[[{"header":{"parameterUnit":"m.s-1","parameterCategory":1,"la1":31.0,"la2":29.5877,"lo1":-88.7671,"lo2":-86.6584,"dy":0.0162,"dx":0.0185,"nx":115,"ny":88,"refTime":"2023-04-13T06:00:00:Z","depth":0,"parameterNumber":2,"parameterNumberName":"U-component_of_WINDS"},"data":[0.0,0.0,0.0,0.0,0.0,0.0,0.0,0.0,0.0,0.0,0.0,0.0,0.0,0.0,0.0,0.0,0.0,0.0,0.0,0.0,0.0,0.0,0.0,0.0,0.0,0.0,0.0,0.0,0.0,0.0,0.0,0.0,0.0,0.0,0.0,0.0,0.0,0.0,0.0,0.0,0.0,0.0,0.0,0.0,0.0,0.0,0.0,0.0,0.0,0.0,0.0,0.0,0.0,0.0,0.0,0.0,0.0,0.0,0.0,0.0,0.0,0.0,0.0,0.0,0.0,0.0,0.0,0.0,0.0,0.0,0.0,0.0,0.0,0.0,0.0,0.0,0.0,0.0,0.0,0.0,0.0,0.0,0.0,0.0,0.0,0.0,0.0,0.0,0.0,0.0,0.0,0.0,0.0,0.0,0.0,0.0,0.0,0.0,0.0,0.0,0.0,0.0,0.0,0.0,0.0,0.0,0.0,0.0,0.0,0.0,0.0,0.0,0.0,0.0,0.0,0.0,0.0,0.0,0.0,0.0,0.0,0.0,0.0,0.0,0.0,0.0,0.0,0.0,0.0,0.0,0.0,0.0,0.0,0.0,0.0,0.0,0.0,0.0,0.0,0.0,0.0,0.0,0.0,0.0,0.0,0.0,0.0,0.0,0.0,0.0,0.0,0.0,0.0,0.0,0.0,0.0,0.0,0.0,0.0,0.0,0.0,0.0,0.0,0.0,0.0,0.0,0.0,0.0,0.0,0.0,0.0,0.0,0.0,0.0,0.0,0.0,0.0,0.0,0.0,0.0,0.0,0.0,0.0,0.0,0.0,0.0,0.0,0.0,0.0,0.0,0.0,0.0,0.0,0.0,0.0,0.0,0.0,0.0,0.0,0.0,0.0,0.0,0.0,0.0,0.0,0.0,0.0,0.0,0.0,0.0,0.0,0.0,0.0,0.0,0.0,0.0,0.0,0.0,0.0,0.0,0.0,0.0,0.0,0.0,0.0,0.0,0.0,0.0,0.0,0.0,0.0,0.0,0.0,0.0,0.0,0.0,0.0,0.0,0.0,0.0,0.0,0.0,0.0,0.0,0.0,0.0,0.0,0.0,0.0,0.0,0.0,0.0,0.0,0.0,0.0,0.0,0.0,0.0,0.0,0.0,0.0,0.0,0.0,0.0,0.0,0.0,0.0,0.0,0.0,0.0,0.0,0.0,0.0,0.0,0.0,0.0,0.0,0.0,0.0,0.0,0.0,0.0,0.0,0.0,0.0,0.0,0.0,0.0,0.0,0.0,0.0,0.0,0.0,0.0,0.0,0.0,0.0,0.0,0.0,0.0,0.0,0.0,0.0,0.0,0.0,0.0,0.0,0.0,0.0,0.0,0.0,0.0,0.0,0.0,0.0,0.0,0.0,0.0,0.0,0.0,0.0,0.0,0.0,0.0,0.0,0.0,0.0,0.0,0.0,0.0,0.0,0.0,0.0,0.0,0.0,0.0,0.0,0.0,0.0,0.0,0.0,0.0,0.0,0.0,0.0,0.0,0.0,0.0,0.0,0.0,0.0,0.0,0.0,0.0,0.0,0.0,0.0,0.0,0.0,0.0,0.0,0.0,0.0,0.0,0.0,0.0,0.0,0.0,0.0,0.0,0.0,0.0,0.0,0.0,0.0,0.0,0.0,0.0,0.0,0.0,0.0,0.0,0.0,0.0,0.0,0.0,0.0,0.0,0.0,0.0,0.0,0.0,0.0,0.0,0.0,0.0,0.0,0.0,0.0,0.0,0.0,0.0,0.0,0.0,0.0,0.0,0.0,0.0,0.0,0.0,0.0,0.0,0.0,0.0,0.0,0.0,0.0,0.0,0.0,0.0,0.0,0.0,0.0,0.0,0.0,0.0,0.0,0.0,0.0,0.0,0.0,0.0,0.0,0.0,0.0,0.0,0.0,0.0,0.0,0.0,0.0,0.0,0.0,0.0,0.0,0.0,0.0,0.0,0.0,0.0,0.0,0.0,0.0,0.0,0.0,0.0,0.0,0.0,0.0,0.0,0.0,0.0,0.0,0.0,0.0,0.0,0.0,0.0,0.0,0.0,0.0,0.0,0.0,0.0,0.0,0.0,0.0,0.0,0.0,0.0,0.0,0.0,0.0,0.0,0.0,0.0,0.0,0.0,0.0,0.0,0.0,0.0,0.0,0.0,0.0,0.0,0.0,0.0,0.0,0.0,0.0,0.0,0.0,0.0,0.0,0.0,0.0,0.0,0.0,0.0,0.0,0.0,0.0,0.0,0.0,0.0,0.0,0.0,0.0,0.0,0.0,0.0,0.0,0.0,0.0,0.0,0.0,0.0,0.0,0.0,0.0,0.0,0.0,0.0,0.0,0.0,0.0,0.0,0.0,0.0,0.0,0.0,0.0,0.0,0.0,0.0,0.0,0.0,0.0,0.0,0.0,0.0,0.0,0.0,0.0,0.0,0.0,0.0,0.0,0.0,0.0,0.0,0.0,0.0,0.0,0.0,0.0,0.0,0.0,0.0,0.0,0.0,0.0,0.0,0.0,0.0,0.0,0.0,0.0,0.0,0.0,0.0,0.0,0.0,0.0,0.0,0.0,0.0,0.0,0.0,0.0,0.0,0.0,0.0,0.0,0.0,0.0,0.0,0.0,0.0,0.0,0.0,0.0,0.0,0.0,0.0,0.0,0.0,0.0,0.0,0.0,0.0,0.0,0.0,0.0,0.0,0.0,0.0,0.0,0.0,0.0,0.0,0.0,0.0,0.0,0.0,0.0,0.0,0.0,0.0,0.0,0.0,0.0,0.0,0.0,0.0,0.0,0.0,0.0,0.0,0.0,0.0,0.0,0.0,0.0,0.0,0.0,0.0,0.0,0.0,0.0,0.0,0.0,0.0,0.0,0.0,0.0,0.0,0.0,0.0,0.0,0.0,0.0,0.0,0.0,0.0,0.0,0.0,0.0,0.0,0.0,0.0,0.0,0.0,0.0,0.0,0.0,0.0,0.0,0.0,0.0,0.0,0.0,0.0,0.0,0.0,0.0,0.0,0.0,0.0,0.0,0.0,0.0,0.0,0.0,0.0,0.0,0.0,0.0,0.0,0.0,0.0,0.0,0.0,0.0,0.0,0.0,0.0,0.0,0.0,0.0,0.0,0.0,0.0,0.0,0.0,0.0,0.0,0.0,0.0,0.0,0.0,0.0,0.0,0.0,0.0,0.0,0.0,0.0,0.0,0.0,0.0,0.0,0.0,0.0,0.0,0.0,0.0,0.0,0.0,0.0,0.0,0.0,0.0,0.0,0.0,0.0,0.0,0.0,0.0,0.0,0.0,0.0,0.0,0.0,0.0,0.0,0.0,0.0,0.0,0.0,0.0,0.0,0.0,0.0,0.0,0.0,0.0,0.0,0.0,0.0,0.0,0.0,0.0,0.0,0.0,0.0,0.0,0.0,0.0,0.0,0.0,0.0,0.0,0.0,0.0,0.0,0.0,0.0,0.0,0.0,0.0,0.0,0.0,0.0,0.0,0.0,0.0,0.0,0.0,0.0,0.0,0.0,0.0,0.0,0.0,0.0,0.0,0.0,0.0,0.0,0.0,0.0,0.0,0.0,0.0,0.0,0.0,0.0,0.0,0.0,0.0,0.0,0.0,0.0,0.0,0.0,0.0,0.0,0.0,0.0,0.0,0.0,0.0,0.0,0.0,0.0,0.0,0.0,0.0,0.0,0.0,0.0,0.0,0.0,0.0,0.0,0.0,0.0,0.0,0.0,0.0,0.0,0.0,0.0,0.0,0.0,0.0,0.0,0.0,0.0,0.0,0.0,0.0,0.0,0.0,0.0,0.0,0.0,0.0,0.0,0.0,0.0,0.0,0.0,0.0,0.0,0.0,0.0,0.0,0.0,0.0,0.0,0.0,0.0,0.0,0.0,0.0,0.0,0.0,0.0,0.0,0.0,0.0,0.0,0.0,0.0,0.0,0.0,0.0,0.0,0.0,0.0,0.0,0.0,0.0,0.0,0.0,0.0,0.0,0.0,0.0,0.0,0.0,0.0,0.0,0.0,0.0,0.0,0.0,0.0,0.0,0.0,0.0,0.0,0.0,0.0,0.0,0.0,0.0,0.0,0.0,0.0,0.0,0.0,0.0,0.0,0.0,0.0,0.0,0.0,0.0,0.0,0.0,0.0,0.0,0.0,0.0,0.0,0.0,0.0,0.0,0.0,0.0,0.0,0.0,0.0,0.0,0.0,0.0,0.0,0.0,0.0,0.0,0.0,0.0,2.5331,0.0,0.0,0.0,0.0,0.0,0.0,0.0,0.0,0.0,0.0,0.0,0.0,0.0,0.0,0.0,0.0,0.0,0.0,0.0,0.0,0.0,0.0,0.0,0.0,0.0,0.0,0.0,0.0,0.0,0.0,0.0,0.0,0.0,0.0,0.0,0.0,0.0,0.0,0.0,0.0,0.0,0.0,0.0,0.0,0.0,0.0,0.0,0.0,0.0,0.0,0.0,0.0,0.0,0.0,0.0,0.0,0.0,0.0,0.0,0.0,0.0,0.0,0.0,0.0,0.0,0.0,0.0,0.0,0.0,0.0,0.0,0.0,0.0,0.0,0.0,0.0,0.0,0.0,0.0,0.0,0.0,0.0,0.0,0.0,0.0,0.0,0.0,0.0,0.0,0.0,0.0,0.0,0.0,0.0,0.0,0.0,0.0,0.0,0.0,0.0,0.0,0.0,0.0,0.0,0.0,0.0,0.0,0.0,0.0,0.0,3.0134,2.9064,2.7744,2.6426,2.5017,0.0,0.0,0.0,0.0,0.0,0.0,0.0,0.0,0.0,0.0,0.0,0.0,0.0,0.0,0.0,0.0,0.0,0.0,0.0,0.0,0.0,0.0,0.0,0.0,0.0,0.0,0.0,0.0,0.0,0.0,0.0,0.0,0.0,0.0,0.0,0.0,0.0,0.0,0.0,0.0,0.0,0.0,0.0,0.0,0.0,0.0,0.0,0.0,0.0,0.0,0.0,0.0,0.0,0.0,0.0,0.0,0.0,0.0,0.0,0.0,0.0,0.0,0.0,0.0,0.0,0.0,0.0,0.0,0.0,0.0,0.0,0.0,0.0,0.0,0.0,0.0,0.0,0.0,0.0,0.0,0.0,0.0,0.0,0.0,0.0,0.0,0.0,0.0,0.0,0.0,0.0,0.0,0.0,0.0,0.0,0.0,0.0,0.0,0.0,0.0,0.0,0.0,0.0,0.0,0.0,0.0,0.0,0.0,0.0,0.0,0.0,0.0,2.7696,2.6163,2.4128,0.0,0.0,0.0,0.0,0.0,0.0,0.0,0.0,0.0,0.0,0.0,0.0,0.0,0.0,0.0,0.0,0.0,0.0,0.0,0.0,0.0,0.0,0.0,0.0,0.0,0.0,0.0,0.0,0.0,0.0,0.0,0.0,0.0,0.0,0.0,0.0,0.0,0.0,0.0,0.0,0.0,0.0,0.0,0.0,0.0,0.0,0.0,0.0,0.0,0.0,0.0,0.0,0.0,0.0,0.0,0.0,0.0,0.0,0.0,0.0,0.0,0.0,0.0,0.0,0.0,0.0,0.0,0.0,0.0,0.0,0.0,0.0,0.0,0.0,0.0,0.0,0.0,0.0,0.0,0.0,0.0,0.0,0.0,0.0,0.0,0.0,0.0,0.0,0.0,0.0,0.0,0.0,0.0,0.0,0.0,0.0,0.0,0.0,0.0,0.0,0.0,0.0,0.0,0.0,0.0,0.0,0.0,0.0,0.0,0.0,2.9559,2.8267,2.7271,0.0,2.2101,0.0,0.0,0.0,0.0,0.0,0.0,0.0,0.0,0.0,0.0,0.0,0.0,0.0,0.0,0.0,0.0,0.0,0.0,0.0,0.0,0.0,0.0,0.0,0.0,0.0,0.0,0.0,0.0,0.0,0.0,0.0,0.0,0.0,0.0,0.0,0.0,0.0,0.0,0.0,0.0,0.0,0.0,0.0,0.0,0.0,0.0,0.0,0.0,0.0,0.0,0.0,0.0,0.0,0.0,0.0,0.0,0.0,0.0,0.0,0.0,0.0,0.0,0.0,0.0,0.0,0.0,0.0,0.0,0.0,0.0,0.0,0.0,0.0,0.0,0.0,0.0,0.0,0.0,0.0,0.0,0.0,0.0,0.0,0.0,0.0,0.0,0.0,0.0,0.0,0.0,0.0,0.0,0.0,0.0,0.0,0.0,0.0,0.0,0.0,0.0,0.0,0.0,0.0,0.0,0.0,0.0,0.0,0.0,0.0,0.0,2.9451,2.7826,2.5663,2.3569,0.0,0.0,0.0,0.0,0.0,0.0,0.0,0.0,0.0,0.0,0.0,0.0,0.0,0.0,0.0,0.0,0.0,0.0,0.0,0.0,0.0,0.0,0.0,0.0,0.0,0.0,0.0,0.0,0.0,0.0,0.0,0.0,0.0,0.0,0.0,0.0,0.0,0.0,0.0,0.0,0.0,0.0,0.0,0.0,0.0,0.0,0.0,0.0,0.0,0.0,0.0,0.0,0.0,0.0,0.0,0.0,0.0,0.0,0.0,0.0,0.0,0.0,0.0,0.0,0.0,0.0,0.0,0.0,0.0,0.0,0.0,0.0,0.0,0.0,0.0,0.0,0.0,0.0,0.0,0.0,0.0,0.0,0.0,0.0,0.0,0.0,0.0,0.0,0.0,0.0,0.0,0.0,0.0,0.0,0.0,0.0,0.0,0.0,0.0,0.0,0.0,0.0,0.0,0.0,0.0,0.0,0.0,0.0,0.0,0.0,3.0529,2.9233,2.7234,2.4502,2.241,2.1174,0.0,0.0,0.0,0.0,0.0,0.0,0.0,0.0,0.0,0.0,0.0,0.0,0.0,0.0,0.0,0.0,0.0,0.0,0.0,0.0,0.0,0.0,0.0,0.0,0.0,0.0,0.0,0.0,0.0,0.0,0.0,0.0,0.0,0.0,0.0,0.0,0.0,0.0,0.0,0.0,0.0,0.0,0.0,0.0,0.0,0.0,0.0,0.0,0.0,0.0,0.0,0.0,0.0,0.0,0.0,0.0,0.0,0.0,0.0,0.0,0.0,0.0,0.0,0.0,0.0,0.0,0.0,0.0,0.0,0.0,0.0,0.0,0.0,0.0,0.0,0.0,0.0,0.0,0.0,0.0,0.0,0.0,0.0,0.0,0.0,0.0,0.0,0.0,0.0,0.0,0.0,0.0,0.0,0.0,0.0,0.0,0.0,0.0,0.0,0.0,0.0,0.0,0.0,0.0,0.0,0.0,0.0,0.0,3.1444,3.0314,2.8687,2.6453,2.4165,2.241,0.0,0.0,0.0,0.0,0.0,0.0,0.0,0.0,0.0,0.0,0.0,0.0,0.0,0.0,0.0,0.0,0.0,0.0,0.0,0.0,0.0,0.0,0.0,0.0,0.0,0.0,0.0,0.0,0.0,0.0,0.0,0.0,0.0,0.0,0.0,0.0,0.0,0.0,0.0,0.0,0.0,0.0,0.0,0.0,0.0,0.0,0.0,0.0,0.0,0.0,0.0,0.0,0.0,0.0,0.0,0.0,0.0,0.0,0.0,0.0,0.0,0.0,0.0,0.0,0.0,0.0,0.0,0.0,0.0,0.0,0.0,0.0,0.0,0.0,0.0,0.0,0.0,0.0,0.0,0.0,0.0,0.0,0.0,0.0,0.0,0.0,0.0,0.0,0.0,0.0,0.0,0.0,0.0,0.0,0.0,0.0,0.0,0.0,0.0,0.0,0.0,0.0,0.0,0.0,0.0,0.0,0.0,0.0,0.0,3.1019,2.9013,2.7413,2.6188,2.4273,2.2749,0.0,0.0,0.0,0.0,0.0,0.0,0.0,0.0,0.0,0.0,0.0,0.0,0.0,0.0,0.0,0.0,0.0,0.0,0.0,0.0,0.0,0.0,0.0,0.0,0.0,0.0,0.0,0.0,0.0,0.0,0.0,0.0,0.0,0.0,0.0,0.0,0.0,0.0,0.0,0.0,0.0,0.0,0.0,0.0,0.0,0.0,0.0,0.0,0.0,0.0,0.0,0.0,0.0,0.0,0.0,0.0,0.0,0.0,0.0,0.0,0.0,0.0,0.0,0.0,0.0,0.0,0.0,0.0,0.0,0.0,0.0,0.0,0.0,0.0,0.0,0.0,0.0,0.0,0.0,0.0,0.0,0.0,0.0,0.0,0.0,0.0,0.0,0.0,0.0,0.0,0.0,0.0,0.0,0.0,0.0,0.0,0.0,0.0,0.0,0.0,0.0,0.0,0.0,0.0,0.0,0.0,0.0,0.0,0.0,3.0474,0.0,2.6989,0.0,2.4761,2.3424,0.0,0.0,0.0,0.0,0.0,0.0,0.0,0.0,0.0,0.0,0.0,0.0,0.0,0.0,0.0,0.0,0.0,0.0,0.0,0.0,0.0,0.0,0.0,0.0,0.0,0.0,0.0,0.0,0.0,0.0,0.0,0.0,0.0,0.0,0.0,0.0,0.0,0.0,0.0,0.0,0.0,0.0,0.0,0.0,0.0,0.0,0.0,0.0,0.0,0.0,0.0,0.0,0.0,0.0,0.0,0.0,0.0,0.0,0.0,0.0,0.0,0.0,0.0,0.0,0.0,0.0,0.0,0.0,0.0,0.0,0.0,0.0,0.0,0.0,0.0,0.0,0.0,0.0,0.0,0.0,0.0,0.0,0.0,0.0,0.0,0.0,0.0,0.0,0.0,0.0,0.0,0.0,0.0,0.0,0.0,0.0,0.0,0.0,0.0,0.0,0.0,0.0,0.0,0.0,0.0,0.0,0.0,0.0,3.2059,2.97,2.8554,2.7517,2.6554,2.5732,2.4351,0.0,0.0,0.0,0.0,0.0,0.0,0.0,0.0,0.0,0.0,0.0,0.0,0.0,0.0,0.0,0.0,0.0,0.0,0.0,0.0,0.0,0.0,0.0,0.0,0.0,0.0,0.0,0.0,0.0,0.0,0.0,0.0,0.0,0.0,0.0,0.0,0.0,0.0,0.0,0.0,0.0,0.0,0.0,0.0,0.0,0.0,0.0,0.0,0.0,0.0,0.0,0.0,0.0,0.0,0.0,0.0,0.0,0.0,0.0,0.0,0.0,0.0,0.0,0.0,0.0,0.0,0.0,0.0,0.0,0.0,0.0,0.0,0.0,0.0,0.0,0.0,0.0,0.0,0.0,0.0,0.0,0.0,0.0,0.0,0.0,0.0,0.0,0.0,0.0,0.0,0.0,0.0,0.0,0.0,0.0,0.0,0.0,0.0,0.0,0.0,0.0,0.0,0.0,0.0,0.0,0.0,0.0,0.0,0.0,3.0962,3.0128,2.9241,2.8502,2.7459,2.5933,0.0,0.0,0.0,0.0,0.0,0.0,0.0,0.0,0.0,0.0,0.0,0.0,0.0,0.0,0.0,0.0,0.0,0.0,0.0,0.0,0.0,0.0,0.0,0.0,0.0,0.0,0.0,0.0,0.0,0.0,0.0,0.0,0.0,0.0,0.0,0.0,0.0,0.0,0.0,0.0,0.0,0.0,0.0,0.0,0.0,0.0,0.0,0.0,0.0,0.0,0.0,0.0,0.0,0.0,0.0,0.0,0.0,0.0,0.0,0.0,0.0,0.0,0.0,0.0,0.0,0.0,0.0,0.0,0.0,0.0,0.0,0.0,0.0,0.0,0.0,0.0,0.0,0.0,0.0,0.0,0.0,0.0,0.0,0.0,0.0,0.0,0.0,0.0,0.0,0.0,0.0,0.0,0.0,0.0,0.0,0.0,0.0,0.0,0.0,0.0,0.0,0.0,0.0,0.0,0.0,0.0,0.0,0.0,0.0,3.2539,3.1597,3.0653,2.9929,2.8516,2.7125,2.5528,0.0,0.0,0.0,0.0,0.0,0.0,0.0,0.0,0.0,0.0,0.0,0.0,0.0,0.0,0.0,0.0,0.0,0.0,0.0,0.0,0.0,0.0,0.0,0.0,0.0,0.0,0.0,0.0,0.0,0.0,0.0,0.0,0.0,0.0,0.0,0.0,0.0,0.0,0.0,0.0,0.0,0.0,0.0,0.0,0.0,0.0,0.0,0.0,0.0,0.0,0.0,0.0,0.0,0.0,0.0,0.0,0.0,0.0,0.0,0.0,0.0,0.0,0.0,0.0,0.0,0.0,0.0,0.0,0.0,0.0,0.0,0.0,0.0,0.0,0.0,0.0,0.0,0.0,0.0,0.0,0.0,0.0,0.0,0.0,0.0,0.0,0.0,0.0,0.0,0.0,0.0,0.0,0.0,0.0,0.0,0.0,0.0,0.0,0.0,0.0,0.0,0.0,0.0,0.0,0.0,0.0,0.0,0.0,3.4284,3.3002,3.1944,3.0889,2.9321,2.7815,0.0,0.0,0.0,0.0,0.0,0.0,0.0,0.0,0.0,0.0,0.0,0.0,0.0,0.0,0.0,0.0,0.0,0.0,0.0,0.0,0.0,0.0,0.0,0.0,0.0,0.0,0.0,0.0,0.0,0.0,0.0,0.0,0.0,0.0,0.0,0.0,0.0,0.0,0.0,0.0,0.0,0.0,0.0,0.0,0.0,0.0,0.0,0.0,0.0,0.0,0.0,0.0,0.0,0.0,0.0,0.0,0.0,0.0,0.0,0.0,0.0,0.0,0.0,0.0,0.0,0.0,0.0,0.0,0.0,0.0,0.0,0.0,0.0,0.0,0.0,0.0,0.0,0.0,0.0,0.0,0.0,0.0,0.0,0.0,0.0,0.0,0.0,0.0,0.0,0.0,0.0,0.0,0.0,0.0,0.0,0.0,0.0,0.0,0.0,0.0,0.0,0.0,0.0,0.0,0.0,0.0,0.0,0.0,0.0,3.5818,3.5175,3.3788,3.1693,3.0501,2.8783,0.0,0.0,0.0,0.0,0.0,0.0,0.0,0.0,0.0,0.0,0.0,0.0,0.0,0.0,0.0,0.0,0.0,0.0,0.0,0.0,0.0,0.0,0.0,0.0,0.0,0.0,0.0,0.0,0.0,0.0,0.0,0.0,0.0,0.0,0.0,0.0,0.0,0.0,0.0,0.0,0.0,0.0,0.0,0.0,0.0,0.0,0.0,0.0,0.0,0.0,0.0,0.0,0.0,0.0,0.0,0.0,0.0,0.0,0.0,0.0,0.0,0.0,0.0,0.0,0.0,0.0,0.0,0.0,0.0,0.0,0.0,0.0,0.0,0.0,0.0,0.0,0.0,0.0,0.0,0.0,0.0,0.0,0.0,0.0,0.0,0.0,0.0,0.0,0.0,0.0,0.0,0.0,0.0,0.0,0.0,0.0,0.0,0.0,0.0,0.0,0.0,0.0,0.0,0.0,0.0,0.0,0.0,0.0,3.6049,3.644,3.5869,3.4366,3.2158,3.1055,2.9435,0.0,0.0,0.0,0.0,0.0,0.0,0.0,0.0,0.0,0.0,0.0,0.0,0.0,0.0,0.0,0.0,0.0,0.0,0.0,0.0,0.0,0.0,0.0,0.0,0.0,0.0,0.0,0.0,0.0,0.0,0.0,0.0,0.0,0.0,0.0,0.0,0.0,0.0,0.0,0.0,0.0,0.0,0.0,0.0,0.0,0.0,0.0,0.0,0.0,0.0,0.0,0.0,0.0,0.0,0.0,0.0,0.0,0.0,0.0,0.0,0.0,0.0,0.0,0.0,0.0,0.0,0.0,0.0,0.0,0.0,0.0,0.0,0.0,0.0,0.0,0.0,0.0,0.0,0.0,0.0,0.0,0.0,0.0,0.0,0.0,0.0,0.0,0.0,0.0,0.0,0.0,0.0,0.0,0.0,0.0,0.0,0.0,0.0,0.0,0.0,0.0,0.0,0.0,0.0,0.0,0.0,0.0,0.0,3.6043,3.6675,3.5716,3.4387,3.2368,3.1209,2.9583,0.0,0.0,0.0,0.0,0.0,0.0,0.0,0.0,0.0,0.0,0.0,0.0,0.0,0.0,0.0,0.0,0.0,0.0,0.0,0.0,0.0,0.0,0.0,0.0,0.0,0.0,0.0,0.0,0.0,0.0,0.0,0.0,0.0,0.0,0.0,0.0,0.0,0.0,0.0,0.0,0.0,0.0,0.0,0.0,0.0,0.0,0.0,0.0,0.0,0.0,0.0,0.0,0.0,0.0,0.0,0.0,0.0,0.0,0.0,0.0,0.0,0.0,0.0,0.0,0.0,0.0,0.0,0.0,0.0,0.0,0.0,0.0,0.0,0.0,0.0,0.0,0.0,0.0,0.0,0.0,0.0,0.0,0.0,0.0,0.0,0.0,0.0,0.0,0.0,0.0,0.0,0.0,0.0,0.0,0.0,0.0,0.0,0.0,0.0,0.0,0.0,0.0,0.0,0.0,0.0,0.0,0.0,0.0,3.6289,3.7025,3.6019,3.4601,3.3041,3.1628,2.976,0.0,0.0,0.0,0.0,0.0,0.0,0.0,0.0,0.0,0.0,0.0,0.0,0.0,0.0,0.0,0.0,0.0,0.0,0.0,0.0,0.0,0.0,0.0,0.0,0.0,0.0,0.0,0.0,0.0,0.0,0.0,0.0,0.0,0.0,0.0,0.0,0.0,0.0,0.0,0.0,0.0,0.0,0.0,0.0,0.0,0.0,0.0,0.0,0.8558,0.0,0.0,0.0,0.0,0.0,0.0,0.0,0.0,0.0,0.0,0.0,0.0,0.0,0.0,0.0,0.0,0.0,0.0,0.0,0.0,0.0,0.0,0.0,0.0,0.0,0.0,0.0,0.0,0.0,0.0,0.0,0.0,0.0,0.0,0.0,0.0,0.0,0.0,0.0,0.0,0.0,0.0,0.0,0.0,0.0,0.0,0.0,0.0,0.0,0.0,0.0,0.0,0.0,0.0,0.0,0.0,0.0,0.0,0.0,3.6824,3.7484,3.6031,3.4651,3.3217,3.1754,2.9802,0.0,0.0,0.0,0.0,0.0,0.0,0.0,0.0,0.0,0.0,0.0,0.0,0.0,0.0,0.0,0.0,0.0,0.0,0.0,0.0,0.0,0.0,0.0,0.0,0.0,0.0,0.0,0.0,0.0,0.0,0.0,0.0,0.0,0.0,0.0,0.0,0.0,0.0,0.0,0.0,0.0,0.0,0.0,0.0,0.0,0.0,0.0,0.0,0.0,0.0,0.0,0.0,0.0,0.0,0.0,0.0,0.0,0.0,0.0,0.0,0.0,0.0,0.0,0.0,0.0,0.0,0.0,0.0,0.0,0.0,0.0,0.0,0.0,0.0,0.0,0.0,0.0,0.0,0.0,0.0,0.0,0.0,0.0,0.0,0.0,0.0,0.0,0.0,0.0,0.0,0.0,0.0,0.0,0.0,0.0,0.0,0.0,0.0,0.0,0.0,0.0,0.0,0.0,0.0,0.0,0.0,0.0,3.7337,3.7445,3.7627,3.602,3.4472,3.3246,3.1734,3.0057,2.7959,0.0,0.0,0.0,0.0,0.0,0.0,0.0,0.0,0.0,0.0,0.0,0.0,0.0,0.0,0.0,0.0,0.0,0.0,0.0,0.0,0.0,0.0,0.0,0.0,0.0,0.0,0.0,0.0,0.0,0.0,0.0,0.0,0.0,0.0,0.0,0.0,0.0,0.0,0.3806,0.3252,0.0,0.0,0.0,0.0,0.0,0.0,0.0,0.0,0.3503,0.0,0.0,0.0,0.0,0.0,0.0,0.0,0.0,0.0,0.0,0.0,0.0,0.0,0.0,0.0,0.0,0.0,0.0,0.0,0.0,0.0,0.0,0.0,0.0,0.0,0.0,0.0,0.0,0.0,0.0,0.0,0.0,0.0,0.0,0.0,0.0,0.0,0.0,0.0,0.0,0.0,0.0,0.0,0.0,0.0,0.0,0.0,0.0,0.0,0.0,0.0,0.0,0.0,0.0,0.0,0.0,3.6664,3.797,3.8099,3.6804,3.5732,3.4472,3.3246,3.1734,3.0156,2.8095,0.0,0.0,0.0,0.0,0.0,0.0,0.0,0.0,0.0,0.0,0.0,0.0,0.0,0.0,0.0,0.0,0.0,0.0,0.0,0.0,0.0,0.0,0.0,0.0,0.0,0.0,0.0,0.0,0.0,0.0,0.0,0.0,0.0,0.0,0.0,0.0,0.0,0.0,0.0,0.0615,0.0631,0.0,0.0,0.0,0.0,0.0,0.0,0.0,0.0,0.095,0.0,0.0,0.0,0.0,0.0,0.0,0.0,0.0,0.0,0.0,0.0,0.0,0.0,0.0,0.0,0.0,0.0,0.0,0.0,0.0,0.0,0.0,0.0,0.0,0.0,0.0,0.0,0.0,0.0,0.0,0.0,0.0,0.0,0.0,0.0,0.0,0.0,0.0,0.0,0.0,0.0,0.0,0.0,0.0,0.0,0.0,0.0,0.0,0.0,0.0,0.0,0.0,0.0,0.0,0.0,3.7629,3.8114,3.7811,3.6982,3.5623,3.4292,3.3232,3.1578,2.9944,0.0,0.0,0.0,0.0,0.0,0.0,0.0,0.0,0.0,0.0,0.0,0.0,0.0,0.0,0.0,0.0,0.0,0.0,0.0,0.0,0.0,0.0,0.0,0.0,0.0,0.0,0.0,0.0,0.0,0.0,0.0,0.0,0.0,0.0,0.0,0.0,0.0,0.0,0.0,0.0,-0.1903,-0.2115,-0.1788,0.0,0.0,0.0,0.0,0.0,0.0,-0.1959,-0.2131,0.0,0.0,0.0,0.0,0.0,0.0,0.0,0.0,0.0,0.0,0.0,0.0,0.0,0.0,0.0,0.0,0.0,0.0,0.0,0.0,0.0,0.0,0.0,0.0,0.0,0.0,0.0,0.0,0.0,0.0,0.0,0.0,0.0,0.0,0.0,0.0,0.0,0.0,0.0,0.0,0.0,0.0,0.0,0.0,0.0,0.0,0.0,0.0,0.0,0.0,0.0,0.0,0.0,0.0,0.0,3.8291,3.8057,3.7691,3.7047,3.5366,3.4097,3.295,3.145,2.9579,0.0,0.0,0.0,0.0,0.0,0.0,0.0,0.0,0.0,0.0,0.0,0.0,0.0,0.0,0.0,0.0,0.0,0.0,0.0,0.0,0.0,0.0,0.0,0.0,0.0,0.0,0.0,0.0,0.0,0.0,0.0,0.0,0.0,0.0,0.0,0.0,0.0,0.0,0.0,0.0,0.0,-0.451,-0.4387,-0.453,0.0,0.0,0.0,0.0,-0.4902,-0.4907,0.0,0.0,0.0,0.0,0.0,0.0,0.0,0.0,0.0,0.0,0.0,0.0,0.0,0.0,0.0,0.0,0.0,0.0,0.0,0.0,0.0,0.0,0.0,0.0,0.0,0.0,0.0,0.0,0.0,0.0,0.0,0.0,0.0,0.0,0.0,0.0,0.0,0.0,0.0,0.0,0.0,0.0,0.0,0.0,0.0,0.0,0.0,0.0,0.0,0.0,0.0,0.0,0.0,0.0,0.0,0.0,3.786,3.8589,3.8061,3.6527,3.5366,3.3814,3.2275,3.1359,2.9509,0.0,0.0,0.0,0.0,0.0,0.0,0.0,0.0,0.0,0.0,0.0,0.0,0.0,0.0,0.0,0.0,0.0,0.0,0.0,0.0,0.0,0.0,0.0,0.0,0.0,0.0,0.0,0.0,0.0,0.0,0.0,0.0,0.0,0.0,0.0,0.0,0.0,0.0,0.0,0.0,0.0,-0.6492,-0.6729,-0.7424,-0.7933,0.0,0.0,-0.8125,-0.8743,-0.7999,0.0,0.0,0.0,0.0,0.0,0.0,0.0,0.0,0.0,0.0,0.0,0.0,0.0,0.0,0.0,0.0,0.0,0.0,0.0,0.0,0.0,0.0,0.0,0.0,0.0,0.0,0.0,0.0,0.0,0.0,0.0,0.0,0.0,0.0,0.0,0.0,0.0,0.0,0.0,0.0,0.0,0.0,0.0,0.0,0.0,0.0,0.0,0.0,0.0,0.0,0.0,0.0,0.0,0.0,0.0,3.7709,3.8499,3.8575,3.7799,3.6543,3.5366,3.3799,3.2218,3.1373,2.9536,0.0,0.0,0.0,0.0,0.0,0.0,0.0,0.0,0.0,0.0,0.0,0.0,0.0,0.0,0.0,0.0,0.0,0.0,0.0,0.0,0.0,0.0,0.0,0.0,0.0,0.0,0.0,0.0,0.0,0.0,0.0,0.0,0.0,0.0,0.0,0.0,0.0,0.0,0.0,0.0,0.0,0.0,-0.9833,-1.0243,0.0,0.0,0.0,-1.064,-1.0932,0.0,0.0,0.0,0.0,0.0,0.0,0.0,0.0,0.0,0.0,0.0,0.0,0.0,0.0,0.0,0.0,0.0,0.0,0.0,0.0,0.0,0.0,0.0,0.0,0.0,0.0,0.0,0.0,0.0,0.0,0.0,0.0,0.0,0.0,0.0,0.0,0.0,0.0,0.0,0.0,0.0,0.0,0.0,0.0,0.0,0.0,0.0,0.0,0.0,0.0,0.0,0.0,0.0,0.0,0.0,0.0,0.0,3.9011,3.8565,3.7625,3.6543,3.528,3.374,3.2155,3.1254,0.0,0.0,0.0,0.0,0.0,0.0,0.0,0.0,0.0,0.0,0.0,0.0,0.0,0.0,0.0,0.0,0.0,0.0,0.0,0.0,0.0,0.0,0.0,0.0,0.0,0.0,0.0,0.0264,0.0,0.0,0.0,0.0,0.0,0.0,0.0,0.0,0.0,0.0,0.0,0.0,0.0,0.0,-1.1519,-1.2135,-1.2432,-1.265,0.0,0.0,-1.2754,-1.2818,-1.2454,-1.2289,0.0,0.0,0.0,0.0,0.0,0.0,0.0,0.0,0.0,0.0,0.0,0.0,0.0,0.0,0.0,0.0,0.0,0.0,0.0,0.0,0.0,0.0,0.0,0.0,0.0,0.0,0.0,0.0,0.0,0.0,0.0,0.0,0.0,0.0,0.0,0.0,0.0,0.0,0.0,0.0,0.0,0.0,0.0,0.0,0.0,0.0,0.0,0.0,0.0,0.0,0.0,0.0,0.0,0.0,0.0,3.8992,3.8583,3.7641,3.6543,3.512,3.3691,3.1944,3.0834,2.9145,0.0,0.0,0.0,0.0,0.0,0.0,0.0,0.0,0.0,0.0,0.0,0.0,0.0,0.0,0.0,0.0,0.0,0.0,0.0,0.0,0.0,0.0,0.0,0.0,0.0,0.0,0.0,0.0,0.0,0.0,0.0,0.0,0.0,0.0,0.0,0.0,0.0,0.0,0.0,0.0,0.0,-1.2698,-1.337,-1.3946,-1.4448,0.0,0.0,-1.4758,-1.4635,-1.392,-1.3554,-1.3852,0.0,0.0,0.0,0.0,0.0,0.0,0.0,0.0,0.0,0.0,0.0,0.0,0.0,0.0,0.0,0.0,0.0,0.0,0.0,0.0,0.0,0.0,0.0,0.0,0.0,0.0,0.0,0.0,0.0,0.0,0.0,0.0,0.0,0.0,0.0,0.0,0.0,0.0,0.0,0.0,0.0,0.0,0.0,0.0,0.0,0.0,0.0,0.0,0.0,0.0,0.0,0.0,0.0,3.8173,3.9759,3.9283,3.8208,3.6892,3.5456,3.3846,3.2267,3.0944,2.9432,0.0,0.0,0.0,0.0,0.0,0.0,0.0,0.0,0.0,0.0,0.0,0.0,0.0,0.0,0.0,0.0,0.0,0.0,0.0,0.0,0.0,0.0,0.0,0.0,0.0,0.0,0.0,0.0,-0.6351,-0.6964,-0.7802,0.0,0.0,0.0,0.0,0.0,0.0,0.0,0.0,0.0,0.0,-1.4496,-1.514,-1.582,0.0,0.0,-1.6508,-1.6328,-1.6465,-1.5969,-1.5521,-1.5217,-1.4792,0.0,0.0,0.0,0.0,0.0,0.0,0.0,0.0,0.0,0.0,0.0,0.0,0.0,0.0,0.0,0.0,0.0,0.0,0.0,0.0,0.0,0.0,0.0,0.0,0.0,0.0,0.0,0.0,0.0,0.0,0.0,0.0,0.0,0.0,0.0,0.0,0.0,0.0,0.0,0.0,0.0,0.0,0.0,0.0,0.0,0.0,0.0,0.0,0.0,0.0,0.0,0.0,3.8669,4.0083,3.9478,3.8465,3.6908,3.5434,3.4088,3.2301,3.0808,2.9508,0.0,0.0,0.0,0.0,0.0,0.0,0.0,0.0,0.0,0.0,0.0,0.0,0.0,0.0,0.0,0.0,0.0,0.0,0.0,0.0,0.0,0.0,0.0,0.0,0.0,0.0,0.0,0.0,-0.9211,-0.9617,-1.0014,0.0,0.0,0.0,0.0,0.0,0.0,0.0,0.0,0.0,0.0,-1.5971,-1.6788,-1.7157,-1.7757,-1.7954,-1.8,-1.7962,-1.7951,-1.7627,-1.7169,-1.6891,0.0,0.0,0.0,0.0,0.0,0.0,0.0,0.0,0.0,0.0,0.0,0.0,0.0,0.0,0.0,0.0,0.0,0.0,0.0,0.0,0.0,0.0,0.0,0.0,0.0,0.0,0.0,0.0,0.0,0.0,4.5104,0.0,0.0,0.0,0.0,0.0,0.0,0.0,0.0,0.0,0.0,0.0,0.0,0.0,0.0,0.0,0.0,0.0,0.0,0.0,0.0,0.0,0.0,3.8463,3.9635,3.9227,3.7975,3.6173,3.5266,3.3905,3.2078,3.0557,2.9242,2.7928,0.0,0.0,0.0,0.0,0.0,0.0,0.0,0.0,0.0,0.0,0.0,0.0,0.0,0.0,0.0,0.0,0.0,0.0,0.0,0.0,0.0,0.0,0.0,0.0,0.0,0.0,-1.1265,-1.1415,-1.1322,0.0,0.0,0.0,0.0,0.0,0.0,0.0,0.0,0.0,0.0,-1.5838,-1.686,-1.8083,-1.8076,-1.8274,-1.9484,-1.9227,-1.9099,-1.9397,-1.9079,-1.8765,0.0,0.0,0.0,0.0,0.0,0.0,0.0,0.0,0.0,0.0,0.0,0.0,0.0,0.0,0.0,0.0,0.0,0.0,0.0,0.0,0.0,0.0,0.0,0.0,0.0,0.0,0.0,5.2816,5.1273,0.0,0.0,0.0,0.0,0.0,0.0,0.0,0.0,0.0,0.0,0.0,4.9096,4.8219,0.0,0.0,0.0,0.0,0.0,0.0,0.0,0.0,0.0,0.0,0.0,0.0,3.9266,4.0225,3.957,3.8585,3.715,3.5652,3.3945,3.2104,3.0361,2.7842,2.4605,0.0,0.0,0.0,0.0,0.0,0.0,0.0,0.0,0.0,0.0,0.0,0.0,0.0,0.0,0.0,0.0,0.0,0.0,0.0,0.0,0.0,0.0,0.0,0.0,0.0,-1.4062,0.0,0.0,0.0,0.0,0.0,0.0,0.0,0.0,0.0,0.0,0.0,-1.5381,-1.5867,-1.7142,-1.8383,-1.9117,-1.9961,-2.0716,0.0,0.0,0.0,0.0,0.0,0.0,0.0,0.0,0.0,0.0,0.0,0.0,0.0,0.0,-1.7608,-1.7422,-1.7887,-1.8479,-1.8496,0.0,0.0,0.0,0.0,0.0,0.0,0.0,0.0,0.0,0.0,0.0,0.0,0.0,0.0,0.0,0.0,5.257,0.0,0.0,0.0,0.0,0.0,0.0,0.0,0.0,5.1297,5.1673,5.1986,5.0865,4.9823,0.0,4.6668,4.4166,0.0,0.0,0.0,0.0,0.0,0.0,0.0,0.0,3.9509,4.0318,3.9533,3.8224,3.6815,3.5151,3.3614,3.1819,2.925,2.6048,2.216,1.9843,1.6861,0.0,0.0,0.0,0.0,0.0,0.0,0.0,0.0,0.0,0.0,0.0,0.0,0.0,0.0,0.0,0.0,0.0,0.0,0.0,0.0,0.0,0.0,0.0,-1.6757,0.0,0.0,0.0,0.0,0.0,0.0,0.0,0.0,0.0,-1.6381,-1.68,-1.7543,-1.7764,-1.9028,-2.0193,-2.109,0.0,0.0,0.0,0.0,0.0,0.0,0.0,-2.4084,-2.392,-2.3962,-2.3658,-2.2771,-2.1981,-2.1293,-2.1108,0.0,0.0,-1.9358,-1.9585,-2.0015,-2.0214,-2.0816,-2.1206,-2.183,-2.2407,-2.2839,0.0,0.0,0.0,0.0,0.0,0.0,0.0,0.0,6.1249,5.9808,0.0,5.5834,0.0,0.0,0.0,0.0,0.0,5.0844,0.0,0.0,5.4152,5.4082,5.4045,5.3637,5.2403,5.0456,4.9545,4.827,4.6393,4.2059,0.0,0.0,0.0,0.0,0.0,0.0,3.9303,3.9977,3.8644,3.7184,3.5515,3.4189,3.2464,3.0778,2.7155,2.3828,2.0843,1.7889,1.4747,1.1803,0.7611,0.0,0.0,0.0,0.0,0.0,0.0,0.0,0.0,0.0,0.0,0.0,0.0,0.0,0.0,0.0,0.0,0.0,0.0,0.0,0.0,-1.9463,0.0,0.0,0.0,0.0,0.0,0.0,0.0,0.0,0.0,0.0,-1.9268,-1.9959,-2.0391,-2.0584,0.0,0.0,0.0,0.0,-2.4087,-2.5687,-2.566,-2.5847,-2.6976,-2.6527,-2.6365,-2.7015,0.0,0.0,-2.507,-2.4488,-2.3952,-2.4167,-2.3788,-2.2922,-2.1156,-2.1208,-2.1633,-2.2191,-2.2836,-2.3317,-2.4097,-2.4503,-2.5179,7.3511,0.0,0.0,0.0,0.0,6.81,6.7774,6.7079,6.6152,6.4706,6.2762,6.0823,0.0,0.0,0.0,0.0,0.0,0.0,5.5932,5.755,5.7397,5.7423,5.7481,5.607,5.4967,5.3723,5.2204,5.0762,4.9651,4.7037,4.4719,4.2935,0.0,0.0,0.0,0.0,4.0207,3.9899,3.849,3.7051,3.549,3.3663,3.1045,2.7277,2.3984,2.1097,1.8404,1.5374,1.2047,0.8481,0.4589,0.0,0.0,0.0,0.0,0.0,0.0,0.0,0.0,0.0,0.0,0.0,0.0,0.0,0.0,0.0,0.0,0.0,0.0,0.0,-2.3143,-2.2522,-2.2202,0.0,0.0,0.0,0.0,0.0,0.0,0.0,0.0,0.0,-2.4866,-2.3655,-2.2864,0.0,0.0,-2.4659,-2.5093,-2.5719,-2.6374,-2.7348,-2.7679,0.0,0.0,-2.8533,-2.8731,-2.8348,-2.7972,-2.7461,-2.7324,-2.6901,-2.6286,-2.5506,-2.5089,-2.4788,-2.3915,-2.3512,-2.3268,-2.3512,-2.4038,-2.4568,-2.4835,-2.527,-2.5746,7.9251,7.5836,7.4762,7.3685,7.2912,7.2845,7.2233,7.1109,6.9911,6.8326,6.637,6.4837,6.3036,6.1378,5.9995,0.0,0.0,0.0,5.9454,6.0521,6.0329,6.009,5.9831,5.8451,5.7243,5.6023,5.4556,5.3137,5.1734,5.033,4.8488,4.6105,0.0,0.0,4.2408,4.0915,3.9803,3.8951,3.7458,3.5991,3.3955,3.1309,2.8039,2.4418,2.1439,1.8649,1.6054,1.2802,0.9332,0.5643,0.1704,-0.1838,0.0,0.0,0.0,0.0,0.0,0.0,0.0,0.0,0.0,0.0,0.0,-2.2266,-2.3337,0.0,0.0,0.0,-2.536,-2.575,-2.6235,-2.536,0.0,0.0,0.0,0.0,0.0,0.0,0.0,-2.5449,-2.6118,-2.6911,-2.8368,-2.7387,-2.6267,-2.5799,-2.6222,-2.6704,-2.7169,0.0,-2.8209,-2.9069,-2.9462,-2.9712,-2.977,-3.0105,-2.993,-2.9403,-2.9073,-2.8813,-2.891,-2.848,-2.7818,-2.7156,-2.6935,-2.6492,-2.626,-2.6006,-2.5438,-2.4633,-2.4846,-2.538,-2.5683,-2.6132,-2.6848,8.4052,8.388,8.152,7.9471,7.7919,7.744,7.6258,7.4672,7.2874,7.107,6.948,6.8028,6.6585,6.5204,6.3834,0.0,6.2844,6.2571,6.2824,6.3223,6.2819,6.2281,6.1595,6.0768,5.9517,5.7722,5.6709,5.5193,5.3302,5.234,5.0763,4.8342,4.513,4.3054,4.2031,4.0184,3.856,3.7234,3.5764,3.3899,3.1436,2.7649,2.4468,2.1848,1.9297,1.6395,1.3369,0.974,0.6309,0.302,-0.0973,-0.4725,-0.7944,0.0,0.0,0.0,0.0,0.0,0.0,0.0,0.0,0.0,0.0,0.0,0.0,0.0,0.0,0.0,-2.8186,0.0,-2.8382,-2.7945,0.0,0.0,0.0,-2.5607,-2.5322,-2.5408,-2.6028,-2.7134,0.0,0.0,-3.0107,-3.0404,-3.001,-2.8353,-2.841,-2.8727,-2.9131,-2.9366,-2.9817,-3.0355,-3.0766,-3.1018,-3.1094,-3.0916,-3.0584,-3.0131,-2.9797,-2.9577,-2.9792,-2.9392,-2.9175,-2.8979,-2.8512,-2.8056,-2.8056,-2.8187,-2.7837,-2.5731,-2.5748,-2.6216,-2.7075,-2.7577,-2.8091,8.5816,8.5057,8.4476,8.3086,8.117,8.0055,7.8925,7.7799,7.6489,7.5007,7.3448,7.2334,7.0649,6.84,6.7669,6.7101,6.6871,6.6298,6.6303,6.6342,6.5712,6.5188,6.4814,6.3592,6.2185,6.0812,5.906,5.7117,5.4903,5.2632,4.995,4.6683,4.3581,4.1895,4.1437,3.894,3.6866,3.5611,3.32,3.0301,2.718,2.463,2.1848,1.8621,1.6004,1.3078,0.9866,0.6739,0.3713,0.0202,-0.3592,-0.7037,-1.0381,-1.3636,0.0,0.0,0.0,0.0,0.0,0.0,0.0,0.0,0.0,-2.7784,-2.9281,0.0,-3.031,0.0,-3.0254,-2.9595,-2.9583,-2.8956,0.0,0.0,-2.8047,-2.7593,-2.7664,-2.7303,-2.7525,-2.8299,-2.9284,-2.9688,-2.9947,-3.0742,-3.0939,-3.0037,-3.0094,-2.9967,-3.0188,-2.9978,-3.009,-3.0504,-3.0859,-3.0849,-3.1252,-3.1115,-3.0857,-3.0753,-3.053,-3.0309,-3.0557,-3.0356,-3.0176,-3.0101,-2.9908,-2.9672,-2.9201,-2.9026,-2.8976,-2.8459,-2.8158,-2.8157,-2.8217,-2.8447,-2.8467,8.8076,8.7402,8.73,8.6386,8.4747,8.2817,8.1389,8.0542,7.9578,7.8355,7.6867,7.5125,7.3753,7.2227,7.1272,7.0846,7.0528,6.967,6.9384,6.9319,6.846,6.7759,6.7035,6.5794,6.4391,6.2596,6.0975,5.8751,5.6111,5.3622,5.0418,4.6608,4.3188,4.059,3.9046,3.673,3.4535,3.2647,2.9591,2.6781,2.423,2.1705,1.8829,1.563,1.2762,0.9871,0.6497,0.4034,0.1042,-0.2463,-0.6301,-0.9989,-1.362,-1.7142,-1.983,0.0,0.0,0.0,0.0,0.0,0.0,0.0,0.0,0.0,0.0,0.0,-3.2033,-3.2101,-3.1178,-3.0638,-3.0612,-3.0144,-2.9861,-2.9677,-2.9315,-2.9108,-2.9037,-2.8687,-2.8792,-2.9354,-3.0049,-3.0364,-3.0534,-3.1017,-3.1379,-3.1259,-3.1064,-3.079,-3.1033,-3.0872,-3.0882,-3.1259,-3.1327,-3.1285,-3.1544,-3.1364,-3.1109,-3.1207,-3.1104,-3.1031,-3.1278,-3.1321,-3.1126,-3.1004,-3.1025,-3.1035,-3.0555,-3.0555,-3.0555,-3.0524,-3.0357,-2.9879,-2.9427,-2.9548,-2.9709,9.0245,8.9811,8.946,8.888,8.7931,8.5471,8.3925,8.2886,8.2165,8.1044,7.951,7.7374,7.6255,7.6057,7.469,7.4114,7.4022,7.2902,7.2161,7.1961,7.1163,6.9945,6.8732,6.7762,6.6055,6.3734,6.257,6.0255,5.7148,5.4571,5.1257,4.7234,4.2989,3.9138,3.6,3.3938,3.1512,2.8764,2.5913,2.3512,2.2054,1.9081,1.5913,1.2498,0.9671,0.6609,0.3273,0.1279,-0.1681,-0.5452,-0.9072,-1.2993,-1.7041,-2.0655,-2.3456,0.0,-2.7722,0.0,0.0,0.0,0.0,0.0,0.0,0.0,0.0,-3.3217,-3.2911,-3.2207,-3.1577,-3.1214,-3.1314,-3.1182,-3.0781,-2.9781,-2.9816,-2.9871,-2.9652,-2.9709,-2.9675,-3.0103,-3.0593,-3.0843,-3.0857,-3.1342,-3.1591,-3.1645,-3.1606,-3.1341,-3.1499,-3.1364,-3.1409,-3.1875,-3.1931,-3.1706,-3.1841,-3.1386,-3.1332,-3.1766,-3.1787,-3.1918,-3.2135,-3.2178,-3.22,-3.2232,-3.2243,-3.2243,-3.2243,-3.2243,-3.2243,-3.2243,-3.2221,-3.1806,-3.0919,-3.0675,-3.0998,9.1185,9.026,8.946,8.8605,8.7765,8.7905,8.687,8.4897,8.3723,8.2261,8.0751,7.9706,7.8929,7.8286,7.78,7.7349,7.6616,7.5554,7.5003,7.4581,7.3365,7.2402,7.1546,6.9777,6.7893,6.5867,6.3937,6.119,5.7841,5.4901,5.1051,4.6678,4.2317,3.8369,3.4336,0.0,0.0,0.0,2.319,2.1647,1.9408,1.6742,1.3339,0.9512,0.6334,0.0,0.0219,-0.2145,-0.4863,-0.8382,-1.1668,0.0,0.0,0.0,0.0,0.0,0.0,0.0,0.0,0.0,0.0,0.0,-3.3398,-3.3625,-3.4241,-3.4191,-3.3587,-3.2353,-3.1573,-3.0982,-3.0882,-3.0679,-3.0366,-3.0174,-3.0137,-3.0209,-3.0043,-2.9987,-2.9694,-3.0005,-3.0461,-3.0931,-3.0726,-3.1188,-3.173,-3.1634,-3.1549,-3.1636,-3.1711,-3.1601,-3.1492,-3.171,-3.1841,-3.1809,-3.1939,-3.1741,-3.2026,-3.2564,-3.2564,-3.2906,-3.3593,-3.3649,-3.3728,-3.3885,-3.4199,-3.3942,-3.3942,-3.4199,-3.3919,-3.4188,-3.3942,-3.355,-3.1881,-3.1741,-3.172,9.2547,0.0,9.1473,9.0672,0.0,9.0299,8.9407,8.7779,8.6557,8.5018,8.3416,8.2336,8.1446,8.0646,7.9958,7.9421,7.8968,7.7878,7.7245,7.7094,7.5435,7.4179,7.3169,7.1343,6.9469,6.7257,6.5244,6.2411,5.8867,5.576,5.1975,4.7494,4.3224,3.9473,3.5782,3.1049,2.6889,2.2934,2.1747,2.0211,1.8094,1.5057,1.1608,0.78,0.4618,0.0,0.0,0.0,0.0,0.0,0.0,0.0,0.0,0.0,0.0,-2.7198,-2.9384,-3.0793,-3.0868,-3.1653,-3.2332,-3.2443,-3.232,-3.2572,-3.3519,-3.2872,-3.2139,-3.1509,-3.0708,-3.008,-2.9899,-2.9699,-2.9618,-2.9416,-2.9836,-3.0126,-3.0148,-3.0331,-3.0514,-3.0632,-3.0985,-3.1158,-3.116,-3.1516,-3.169,-3.1687,-3.1827,-3.1935,-3.2021,-3.1784,-3.1601,-3.172,-3.1935,-3.2075,-3.2585,-3.2683,-3.2983,-3.3483,-3.3717,-3.4006,-3.4365,-3.4388,-3.4445,-3.4559,-3.4582,-3.4582,-3.4582,-3.4582,-3.4582,-3.4582,-3.4582,-3.4267,-3.3261,-3.3139,-3.305,9.397,9.3749,9.3477,9.298,9.2211,9.2044,9.1493,9.038,0.0,0.0,0.0,8.4757,8.3763,8.303,8.2132,8.1568,8.1342,7.9948,7.9281,7.9042,7.7411,7.5739,7.426,7.2652,7.0616,6.8141,6.6279,6.3399,5.9595,5.6816,5.3326,4.9196,4.4739,4.0736,3.6985,3.0769,2.6362,2.3599,2.1219,1.8925,1.7222,1.378,1.0297,0.6999,0.3543,0.0462,-0.2486,-0.4478,-0.6885,-0.9697,-1.3617,-1.6877,-1.9707,-2.3777,-2.6467,-2.7762,-2.9377,-3.0526,-3.0358,-3.055,-3.0522,-3.0176,-3.0196,-3.0755,-3.1867,-3.1012,-3.0344,-3.0365,-2.9737,-2.907,-2.8854,-2.9072,-2.8985,-2.8531,-2.9355,-3.0075,-3.0085,-3.0717,-3.1375,-3.1569,-3.158,-3.1698,-3.1903,-3.1946,-3.2,-3.2054,-3.2438,-3.2569,-3.2547,-3.2406,-3.2032,-3.2308,-3.246,-3.2814,-3.3327,-3.3673,-3.4077,-3.4536,-3.4794,-3.484,-3.4886,-3.5145,-3.5168,-3.5249,-3.5179,-3.5156,-3.5145,-3.5122,-3.5087,-3.4829,-3.4829,-3.5075,-3.5052,-3.4668,-3.453,9.4548,9.4462,9.3537,9.2763,9.2245,9.2589,9.2035,9.079,8.8851,8.7438,8.6587,8.6396,8.6005,8.558,8.4941,8.4235,8.348,8.1891,8.0798,8.0166,7.877,7.7124,7.5425,7.3553,7.1119,6.866,6.6265,6.3496,6.0538,5.7208,5.39,5.0657,4.643,4.1038,3.4679,3.0076,2.6683,2.4292,2.137,1.9018,1.6717,1.3164,0.969,0.6325,0.3114,0.0236,-0.2548,-0.4823,-0.7533,-1.0473,-1.3634,-1.6559,-1.9498,-2.2163,-2.4153,-2.5471,-2.6774,-2.7402,-2.7402,-2.805,-2.8269,-2.759,-2.7608,-2.8502,-3.0066,-3.0219,-2.9965,-2.9564,-2.9087,-2.9089,-2.9077,-2.9279,-2.94,-2.943,-3.0135,-3.0774,-3.0753,-3.129,-3.1827,-3.187,-3.186,-3.1957,-3.2161,-3.2204,-3.2525,-3.2688,-3.2978,-3.3527,-3.3763,-3.3269,-3.2753,-3.3247,-3.3269,-3.3785,-3.4267,-3.4301,-3.4829,-3.5322,-3.5568,-3.5885,-3.6569,-3.6605,-3.6665,-3.6929,-3.6737,-3.6641,-3.6617,-3.6461,-3.6341,-3.6305,-3.6305,-3.6305,-3.6305,-3.6257,-3.5988,9.5441,9.5089,9.4572,9.4,9.3361,9.2895,9.2601,9.2093,9.058,8.9283,8.8331,8.803,8.7538,8.6976,8.6061,8.5173,8.4595,8.3348,8.2387,8.1316,8.0152,7.8373,7.6091,7.4385,7.2228,6.9477,6.7025,6.4444,6.142,5.7826,5.4373,5.1085,4.5437,3.9778,3.513,3.1229,2.8066,2.5399,2.1819,1.8949,1.6744,1.3116,0.9876,0.6992,0.3448,0.0485,-0.215,-0.452,-0.709,-0.9362,-1.2434,-1.5005,-1.7036,-1.9486,-2.1441,-2.2851,-2.3863,-2.4613,-2.5328,-2.5875,-2.6013,-2.5753,-2.5933,-2.6455,-2.7707,-2.7992,-2.8089,-2.7969,-2.7923,-2.7845,-2.794,-2.8531,-2.8833,-2.8833,-2.9752,-3.0608,-3.0629,-3.1725,-3.229,-3.229,-3.2536,-3.2825,-3.2924,-3.3427,-3.346,-3.383,-3.4088,-3.4335,-3.4582,-3.4088,-3.383,-3.4088,-3.4088,-3.4335,-3.5075,-3.5075,-3.5568,-3.6551,-3.6551,-3.6857,-3.7729,-3.7742,-3.7804,-3.7891,-3.7816,-3.7754,-3.7742,-3.7643,-3.7556,-3.7544,-3.7544,-3.7544,-3.7544,-3.7544,-3.7054,9.6158,9.5683,9.5434,9.5031,9.4419,9.335,9.3061,9.3099,9.2509,9.1464,9.018,8.9576,8.8939,8.795,8.7065,8.6235,8.5486,8.4872,8.3758,8.2381,8.0988,7.9122,7.67,7.5086,7.2785,7.0101,6.769,6.5021,6.1687,5.821,5.4215,5.0,4.3715,3.8935,3.5757,3.2319,2.9132,2.6159,2.2587,1.947,1.7027,1.3584,1.0316,0.7685,0.4311,0.1251,-0.1234,-0.3696,-0.612,-0.7972,-1.0908,-1.3085,-1.446,-1.7025,-1.9078,-2.0302,-2.113,-2.2184,-2.3431,-2.3682,-2.4016,-2.4196,-2.45,-2.483,-2.5451,-2.5886,-2.6247,-2.6656,-2.6974,-2.7101,-2.7449,-2.7971,-2.8227,-2.8522,-2.9658,-3.0532,-3.0771,-3.1868,-3.2689,-3.2927,-3.3379,-3.3583,-3.3841,-3.4335,-3.4582,-3.4817,-3.4829,-3.4829,-3.5075,-3.5322,-3.5322,-3.5322,-3.5075,-3.5075,-3.5814,-3.606,-3.6551,-3.7544,-3.7776,-3.7838,-3.8378,-3.8636,-3.8674,-3.8505,-3.8699,-3.8429,-3.8636,-3.8559,-3.8534,-3.829,-3.829,-3.8534,-3.829,-3.829,-3.8277,9.6477,9.6311,9.5752,9.5065,9.4488,9.389,9.3496,9.3265,9.3531,9.3197,9.2321,9.1311,9.0239,8.9262,8.9145,8.8426,8.7306,8.6325,8.482,8.3026,8.12,7.9332,7.7394,7.5208,7.2861,7.017,6.7691,6.4625,6.1246,5.7731,5.3154,4.6987,4.2722,3.9129,3.5757,3.2329,2.9141,2.6192,2.317,2.033,1.7424,1.402,1.1255,0.8322,0.5456,0.258,0.0,-0.2287,-0.4555,-0.7032,-0.9282,-1.1283,-1.3023,-1.529,-1.705,-1.8293,-1.9051,-1.985,-2.1477,-2.2006,-2.2581,-2.2739,-2.3382,-2.3976,-2.4015,-2.4909,-2.555,-2.6173,-2.6788,-2.7466,-2.7776,-2.8327,-2.9122,-2.9753,-3.0602,-3.1454,-3.2152,-3.2552,-3.3198,-3.3938,-3.3738,-3.3841,-3.4335,-3.4829,-3.5075,-3.5568,-3.5814,-3.606,-3.6796,-3.7041,-3.7299,-3.7544,-3.6796,-3.6305,-3.7041,-3.7286,-3.7544,-3.8277,-3.8521,-3.8598,-3.8983,-3.9085,-3.8941,-3.9628,-3.9213,-3.9072,-3.9034,-3.8725,-3.8534,-3.8778,-3.8778,-3.8521,-3.8534,-3.8778,-3.8521,9.7547,9.7114,9.6373,9.5718,9.5068,9.4518,9.4434,9.4808,9.4577,9.4156,9.3573,9.2639,9.1731,9.0861,8.9944,8.8971,8.8083,8.7087,8.5709,8.4148,8.2345,8.047,7.8325,7.5838,7.3321,7.0398,6.7583,6.4516,6.1114,5.6086,5.0611,4.5871,4.1739,3.8404,3.5346,3.1625,2.813,2.5139,2.2318,1.9217,1.6382,1.3978,1.1442,0.8756,0.5797,0.288,0.026,-0.2081,-0.4147,-0.6437,-0.8262,-1.0068,-1.2075,-1.3407,-1.4986,-1.704,-1.8321,-1.9369,-2.0446,-2.0709,-2.1256,-2.209,-2.2927,-2.3487,-2.4002,-2.4588,-2.5296,-2.6126,-2.6836,-2.7423,-2.7567,-2.8861,-2.9918,-3.0241,-3.1291,-3.2065,-3.2817,-3.3502,-3.4148,-3.4505,-3.4879,-3.499,-3.5357,-3.5814,-3.6305,-3.6796,-3.7041,-3.7544,-3.8033,-3.8033,-3.8277,-3.8277,-3.7788,-3.7544,-3.8033,-3.8033,-3.8521,-3.9009,-3.9009,-3.9317,-4.0114,-4.0398,-4.0438,-4.1046,-4.0722,-4.0655,-4.0601,-4.0331,-4.0225,-3.9982,-3.9739,-3.9739,-3.9739,-3.9982,-4.0172,9.8445,9.791,9.7055,9.6361,9.5935,9.54,9.5473,9.5862,9.5365,9.4914,9.4371,9.3614,9.2861,9.2278,9.0713,8.9554,8.877,8.7937,8.6656,8.5157,8.3139,8.1229,7.9219,7.6428,7.3464,7.0662,6.7548,6.4066,6.0199,5.3869,4.8718,4.487,4.0971,3.7624,3.4562,3.0528,2.726,2.4232,2.1102,1.8306,1.5515,1.3391,1.1107,0.8381,0.5618,0.2656,0.0,-0.1852,-0.3952,-0.6017,-0.7622,-0.9199,-1.098,-1.2335,-1.4205,-1.6559,-1.8125,-1.9192,-1.9745,-2.0006,-2.0808,-2.1892,-2.2682,-2.3463,-2.4243,-2.5023,-2.5801,-2.6311,-2.7087,-2.7586,-2.779,-2.9333,-3.0368,-3.0674,-3.1975,-3.2997,-3.3784,-3.4448,-3.4764,-3.5358,-3.5683,-3.6298,-3.6365,-3.7054,-3.7776,-3.7788,-3.8033,-3.8765,-3.9009,-3.9009,-3.9253,-3.9483,-3.9496,-3.9496,-3.9253,-3.9009,-3.9496,-3.9969,-4.0454,-4.0697,-4.1423,-4.1664,-4.1664,-4.1816,-4.2175,-4.2147,-4.172,-4.1437,-4.1423,-4.1195,-4.0939,-4.0939,-4.0953,-4.1382,-4.1472,9.8711,9.8652,9.7689,9.7035,9.672,9.6775,9.6417,9.5996,9.5993,9.5607,9.4812,9.372,9.3306,9.3258,9.1729,9.0509,8.9487,8.8963,8.7631,8.583,8.336,8.1419,7.9731,7.6584,7.3344,7.0358,6.7601,6.2851,5.6098,5.1146,4.6987,4.3888,4.0197,3.6736,3.3282,2.9756,2.6437,2.3441,2.0387,1.7597,1.4531,1.222,0.9933,0.7686,0.4907,0.2165,0.0269,-0.1336,-0.3451,-0.6327,-0.7646,-0.8957,-1.053,-1.3162,-1.5272,-1.6837,-1.8137,-1.898,-1.9347,-2.0417,-2.1514,-2.2431,-2.323,-2.3787,-2.4547,-2.5854,-2.6641,-2.6674,-2.795,-2.8679,-2.8792,-2.9799,-3.1169,-3.1837,-3.3173,-3.4207,-3.4992,-3.5344,-3.5622,-3.6237,-3.6641,-3.7127,-3.8033,-3.8521,-3.8521,-3.8521,-3.8521,-3.9009,-4.0225,-4.0468,-4.0953,-4.1651,-4.1892,-4.1664,-4.071,-4.0468,-4.0953,-4.1423,-4.1651,-4.2147,-4.2388,-4.2388,-4.2388,-4.2388,-4.2615,-4.2615,-4.2388,-4.2374,-4.2133,-4.2133,-4.1851,-4.1851,-4.1809,-4.1869,-4.1912,9.9193,9.8745,9.832,9.7987,9.7707,9.7474,9.7401,9.7226,9.6773,9.6096,9.5145,9.4339,9.3873,9.3909,9.228,9.0972,9.0249,8.9286,8.7797,8.6024,8.3792,8.1811,7.9806,7.6135,7.3026,7.003,6.6311,6.0726,5.373,4.8927,4.5201,4.2019,3.8038,3.4605,3.144,2.7877,2.4549,2.1475,1.8671,1.5547,1.2396,0.9839,0.7281,0.501,0.3579,0.1641,-0.0546,-0.2439,-0.4584,-0.6456,-0.7765,-0.9075,-1.0677,-1.3336,-1.5459,-1.7049,-1.7842,-1.8923,-1.9766,-2.0831,-2.1645,-2.2488,-2.3553,-2.4617,-2.5401,-2.6191,-2.698,-2.8021,-2.8816,-2.9554,-3.0038,-3.1048,-3.1857,-3.3215,-3.4013,-3.5003,-3.5873,-3.6441,-3.6977,-3.7392,-3.752,-3.8045,-3.8521,-3.9253,-3.9739,-3.9982,-4.0454,-4.1181,-4.1423,-4.1664,-4.1906,-4.2374,-4.2374,-4.2629,-4.3124,-4.2147,-4.1906,-4.2147,-4.2374,-4.2629,-4.287,-4.311,-4.335,-4.359,-4.359,-4.335,-4.335,-4.2813,-4.2813,-4.2559,-4.2516,-4.2586,-4.2108,-4.2317,-4.2534,9.9952,9.9536,9.9353,9.9124,9.8777,9.846,9.8258,9.8003,9.7505,9.6645,9.5606,9.4776,9.4432,9.4105,9.2613,9.1569,9.0744,8.9579,8.7905,8.599,8.4113,8.2013,7.9555,7.5807,7.2414,6.9179,6.3697,5.751,5.1806,4.6911,4.3121,4.0172,3.5854,3.2096,2.9167,2.584,2.2476,1.9371,1.6255,1.3383,1.0215,0.7363,0.4802,0.2529,0.1113,-0.0276,-0.193,-0.3834,-0.5456,-0.7089,-0.867,-1.051,-1.2371,-1.4504,-1.6107,-1.7446,-1.8511,-1.9576,-2.0645,-2.1707,-2.2495,-2.3553,-2.4345,-2.5401,-2.6191,-2.7242,-2.8292,-2.9078,-3.0123,-3.0906,-3.1678,-3.2458,-3.2977,-3.4002,-3.5047,-3.5998,-3.702,-3.7408,-3.8111,-3.8409,-3.8893,-3.9266,-3.9496,-4.0454,-4.0953,-4.1195,-4.1906,-4.2374,-4.287,-4.311,-4.335,-4.359,-4.3815,-4.4069,-4.4548,-4.4069,-4.383,-4.4055,-4.3815,-4.383,-4.383,-4.4084,-4.4323,-4.4787,-4.4787,-4.4548,-4.404,-4.3489,-4.3207,-4.2939,-4.2949,-4.3207,-4.3106,-4.3182,-4.3197,10.0795,10.0648,10.0491,10.0194,9.978,9.9465,9.8941,9.8249,9.8003,9.722,9.5966,9.5243,9.4742,9.4314,9.2914,9.1852,9.0984,9.0015,8.8191,8.6046,8.4076,8.1947,7.973,7.5603,7.1597,6.7765,5.9667,5.387,5.0076,4.4806,4.0687,3.7679,3.3623,2.9777,2.6984,2.3355,1.9948,1.6843,1.3723,1.0862,0.7994,0.5398,0.2831,0.0,-0.2247,-0.335,-0.3608,-0.4963,-0.6868,-0.8782,-1.0636,-1.3262,-1.534,-1.6651,-1.7446,-1.8511,-2.0107,-2.1176,-2.1707,-2.2759,-2.4081,-2.5129,-2.5656,-2.6454,-2.7767,-2.9078,-2.9872,-3.0123,-3.1167,-3.2458,-3.3485,-3.4002,-3.4261,-3.4261,-3.5798,-3.7209,-3.7746,-3.7983,-3.8623,-3.9395,-3.9982,-4.071,-4.1181,-4.1906,-4.2388,-4.2388,-4.2629,-4.335,-4.4069,-4.4309,-4.4787,-4.5502,-4.5502,-4.5502,-4.5978,-4.6216,-4.6216,-4.6216,-4.5741,-4.5502,-4.5264,-4.5502,-4.5264,-4.5741,-4.5382,-4.5367,-4.507,-4.4506,-4.4092,-4.4004,-4.4003,-4.4059,-4.3955,-4.3821,-4.4351,10.083,10.083,10.0717,10.0605,10.0457,10.0033,9.9533,9.9179,9.8493,9.7394,9.6532,9.5639,9.4991,9.4297,9.3173,9.2073,9.09,8.9628,8.7669,8.5516,8.3518,8.1315,7.8363,7.4573,6.8867,6.2318,5.6098,5.1308,4.7182,4.1916,3.7816,3.4861,3.0479,2.6629,2.3598,1.99,1.6459,1.3294,1.0411,0.7507,0.489,0.2001,-0.0569,-0.2829,-0.478,-0.6436,-0.8653,-0.8326,-0.885,-1.05,-1.2078,-1.4172,-1.6508,-1.8024,-1.9044,-2.0373,-2.1435,-2.2752,-2.3545,-2.4602,-2.5393,-2.6445,-2.7234,-2.8292,-2.9087,-3.0123,-3.0906,-3.1427,-3.2458,-3.3485,-3.4261,-3.5821,-3.6335,-3.6078,-3.6954,-3.777,-3.8234,-3.9068,-3.9962,-4.0751,-4.1423,-4.1906,-4.2147,-4.287,-4.359,-4.383,-4.4309,-4.5026,-4.5502,-4.5502,-4.5741,-4.6216,-4.6216,-4.6706,-4.7164,-4.7622,-4.7606,-4.759,-4.7354,-4.6928,-4.6928,-4.6691,-4.6691,-4.6346,-4.6223,-4.588,-4.5584,-4.5182,-4.4985,-4.4819,-4.4623,-4.4502,-4.4642,-4.472,-4.4995,10.1164,10.1129,10.1053,10.0942,10.0942,10.0457,10.0114,9.9767,9.8941,9.8011,9.7226,9.603,9.523,9.4549,9.3648,9.2257,9.0759,8.9304,8.712,8.4597,8.2364,8.0062,7.6623,7.1243,6.5204,5.854,5.3149,4.852,4.4463,3.9115,3.4716,3.1447,2.7006,2.3076,2.0011,1.6262,1.3083,0.9892,0.6982,0.4068,0.1446,-0.1435,-0.3991,-0.6526,-0.7877,-1.008,-1.2589,-1.2261,-1.2516,-1.3047,-1.4606,-1.6664,-1.8436,-1.9917,-2.0897,-2.1958,-2.3017,-2.433,-2.5393,-2.6182,-2.7234,-2.8021,-2.8807,-2.9853,-3.0645,-3.1417,-3.2198,-3.2717,-3.4013,-3.5047,-3.5821,-3.685,-3.8108,-3.8242,-3.8362,-3.8597,-3.9233,-4.0504,-4.1222,-4.1906,-4.2629,-4.287,-4.335,-4.4069,-4.5026,-4.5026,-4.5741,-4.6453,-4.6706,-4.6928,-4.6928,-4.7385,-4.7873,-4.8345,-4.858,-4.9034,-4.8986,-4.8719,-4.8468,-4.8297,-4.8345,-4.8093,-4.8093,-4.7323,-4.6916,-4.6261,-4.5951,-4.5704,-4.5257,-4.5119,-4.5241,-4.5087,-4.5192,-4.5569,-4.5897,10.1746,10.1711,10.1494,10.1384,10.1274,10.1018,10.057,9.9999,9.9533,9.8821,9.7935,9.6645,9.5599,9.5058,9.3909,9.2315,9.0638,8.884,8.6486,8.3408,8.0674,7.7506,7.3763,6.6928,6.0857,5.551,5.0032,4.5171,4.0821,3.572,3.1298,2.7354,2.3124,1.9435,1.5679,1.2503,0.9308,0.6109,0.3202,0.0,-0.2617,-0.5176,-0.7423,-1.0549,-1.1831,-1.3704,-1.5935,-1.7309,-1.7315,-1.6467,-1.8468,-1.9916,-2.0867,-2.2048,-2.3009,-2.3802,-2.5121,-2.6182,-2.6971,-2.8283,-2.933,-3.0123,-3.0906,-3.1427,-3.2198,-3.3495,-3.4261,-3.4261,-3.5574,-3.6873,-3.762,-3.8388,-3.9031,-3.9793,-3.9917,-4.016,-4.0949,-4.183,-4.2416,-4.2855,-4.359,-4.4323,-4.4563,-4.5502,-4.6216,-4.6453,-4.6453,-4.7401,-4.7858,-4.8313,-4.8783,-4.8969,-4.9106,-4.9225,-4.9127,-4.9359,-4.9558,-4.9972,-4.9757,-4.9376,-4.9008,-4.9025,-4.9008,-4.8267,-4.7531,-4.6893,-4.6489,-4.6253,-4.6111,-4.5789,-4.586,-4.5639,-4.5802,-4.6253,-4.6623,10.2562,10.2033,10.214,10.214,10.1926,10.1567,10.1274,10.083,10.0114,9.9416,9.8425,9.7279,9.5804,9.4594,9.3658,9.1806,8.9486,8.7527,8.4841,8.1473,7.7477,7.3064,6.8206,6.2672,5.7089,5.1716,4.6267,4.1082,3.6301,3.1268,2.6728,2.2399,1.8213,1.4221,1.0173,0.6689,0.3201,0.0291,-0.291,-0.5528,-0.7549,-1.0054,-1.2269,-1.4238,-1.5753,-1.7597,-1.9821,-2.1757,-2.1757,-2.0074,-2.1746,-2.2936,-2.3388,-2.4757,-2.5911,-2.67,-2.7487,-2.8545,-2.9591,-3.0636,-3.1417,-3.2198,-3.3236,-3.4013,-3.4272,-3.5563,-3.6078,-3.6593,-3.762,-3.8388,-3.9155,-4.0162,-4.1461,-4.2021,-4.153,-4.1261,-4.1898,-4.2926,-4.383,-4.383,-4.5026,-4.5502,-4.5948,-4.666,-4.7606,-4.759,-4.8046,-4.8969,-4.9106,-4.9225,-4.9359,-4.9261,-4.9162,-4.9475,-4.9622,-4.9638,-5.0064,-5.0926,-5.0909,-5.0225,-4.9605,-4.8949,-4.8916,-4.8571,-4.8048,-4.7381,-4.7479,-4.7543,-4.7204,-4.6477,-4.6832,-4.6928,-4.7137,-4.7361,-4.761,10.3058,10.2352,10.2457,10.2457,10.2352,10.214,10.1819,10.1384,10.0683,9.978,9.8924,9.7495,9.6167,9.4701,9.3594,9.1549,8.8759,8.651,8.3615,7.9276,7.3275,6.791,6.3284,5.872,5.3489,4.7711,4.192,3.6903,3.1798,2.6735,2.2115,1.7715,1.3251,0.897,0.5211,0.1453,-0.2037,-0.5236,-0.8144,-1.0457,-1.2733,-1.4902,-1.6787,-1.8688,-2.0184,-2.2283,-2.4767,-2.6421,-2.6123,-2.4365,-2.4977,-2.5875,-2.6305,-2.7653,-2.8807,-2.9582,-3.0114,-3.1157,-3.2198,-3.2977,-3.3744,-3.453,-3.5563,-3.6335,-3.6593,-3.7363,-3.8132,-3.8388,-3.941,-4.0162,-4.0885,-4.2242,-4.3124,-4.3677,-4.3094,-4.2826,-4.3124,-4.4309,-4.5026,-4.5502,-4.6216,-4.685,-4.6742,-4.7903,-4.8291,-4.8645,-4.878,-4.9476,-5.0153,-5.0019,-5.0131,-5.0047,-5.0208,-5.0562,-5.0738,-5.0738,-5.0844,-5.1452,-5.1537,-5.1088,-5.055,-4.9643,-4.9155,-4.9072,-4.8546,-4.8122,-4.8281,-4.8231,-4.7733,-4.7443,-4.7842,-4.7966,-4.8122,-4.8261,-4.8519,10.3445,10.2665,10.2804,10.2665,10.2665,10.2701,10.2352,10.1819,10.1129,10.0466,9.9444,9.78,9.6555,9.5369,9.3732,9.1393,8.8456,8.5954,8.1593,7.5883,6.8949,6.2679,5.8545,5.4612,4.95,4.3603,3.8023,3.2442,2.6994,2.1863,1.7218,1.2512,0.802,0.4024,0.0,-0.3759,-0.7249,-1.0128,-1.2722,-1.5282,-1.7794,-1.9654,-2.1234,-2.3348,-2.5676,-2.7765,-2.9683,-3.1025,-3.0379,-2.7748,-2.84,-2.9033,-2.9636,-3.0733,-3.1678,-3.2447,-3.3226,-3.3744,-3.4519,-3.5809,-3.6593,-3.685,-3.7876,-3.84,-3.8644,-3.941,-3.992,-4.0429,-4.1191,-4.2165,-4.3302,-4.4144,-4.4742,-4.5122,-4.5264,-4.5309,-4.5264,-4.5741,-4.6469,-4.6453,-4.7401,-4.7903,-4.8179,-4.8699,-4.9541,-4.9459,-4.9835,-5.0538,-5.0926,-5.0789,-5.1157,-5.1539,-5.1712,-5.2109,-5.2091,-5.2109,-5.1897,-5.1961,-5.1748,-5.1508,-5.1344,-5.069,-4.9931,-4.9571,-4.9624,-4.9299,-4.9009,-4.8735,-4.8428,-4.8311,-4.8858,-4.8977,-4.8874,-4.9026,-4.9325,10.4461,10.328,10.3679,10.358,10.328,10.3178,10.2872,10.2352,10.1784,10.1164,10.0183,9.8787,9.7194,9.5637,9.3562,9.0967,8.7633,8.4395,7.9272,7.0421,6.4507,5.779,5.2764,4.9154,4.4989,3.9293,3.3156,2.719,2.1585,1.6492,1.156,0.6507,0.2275,-0.2,-0.5717,-0.9724,-1.315,-1.5995,-1.8283,-2.0827,-2.2751,-2.4593,-2.6434,-2.8561,-3.0856,-3.2941,-3.3991,-3.4672,-3.5259,-3.5317,-3.4153,-3.3225,-3.3269,-3.385,-3.4778,-3.5787,-3.6055,-3.6826,-3.7864,-3.8887,-3.9665,-4.0162,-4.067,-4.1432,-4.1458,-4.1952,-4.2458,-4.271,-4.3705,-4.4611,-4.5583,-4.574,-4.6101,-4.672,-4.7129,-4.7637,-4.7858,-4.7873,-4.7653,-4.781,-4.8574,-4.9078,-4.8963,-4.9801,-5.0368,-5.0494,-5.0913,-5.1609,-5.1695,-5.1761,-5.2138,-5.2512,-5.2627,-5.2794,-5.2794,-5.2812,-5.2943,-5.2816,-5.2617,-5.249,-5.2339,-5.1898,-5.1128,-5.0837,-5.1005,-5.0459,-4.9692,-4.9943,-4.9585,-4.9717,-4.9849,-4.9692,-4.9786,-4.995,-5.0025,10.5211,10.3814,10.4107,10.401,10.3778,10.3778,10.348,10.2872,10.2316,10.1567,10.057,9.9229,9.7664,9.5937,9.3461,9.0536,8.6254,8.0895,7.4396,6.7072,6.0884,5.4425,4.7617,4.2896,3.8424,3.3679,2.7952,2.2002,1.6206,1.0819,0.5863,0.112,-0.3669,-0.7932,-1.1627,-1.5608,-1.9037,-2.1585,-2.3826,-2.6042,-2.8179,-2.976,-3.1817,-3.4198,-3.6489,-3.7739,-3.8652,-3.9075,-4.0109,-4.0343,-3.9959,-3.8284,-3.7318,-3.7667,-3.8364,-3.936,-3.9882,-4.0391,-4.1419,-4.2178,-4.2697,-4.2949,-4.3705,-4.3957,-4.4208,-4.4473,-4.471,-4.5211,-4.5918,-4.7043,-4.7788,-4.809,-4.8231,-4.8237,-4.8709,-4.9285,-4.9754,-4.9285,-4.8969,-4.9307,-4.979,-5.0165,-5.0385,-5.0827,-5.1036,-5.1086,-5.1016,-5.1907,-5.2316,-5.2172,-5.2596,-5.2982,-5.3292,-5.3437,-5.3437,-5.3456,-5.3711,-5.3674,-5.3854,-5.3799,-5.3692,-5.3109,-5.2491,-5.2055,-5.1672,-5.1109,-5.053,-5.0755,-5.0758,-5.0272,-5.0149,-5.0384,-5.0669,-5.0597,-5.1036,10.5693,10.4396,10.436,10.436,10.436,10.436,10.4071,10.3544,10.2939,10.2105,10.0954,9.9664,9.8147,9.6126,9.3416,8.9937,8.419,7.7362,7.0318,6.4549,5.8259,5.1585,4.4421,3.7759,3.1714,2.7648,2.2637,1.6961,1.0884,0.5222,0.0277,-0.3879,-0.9492,-1.375,-1.7425,-2.1145,-2.4549,-2.7053,-2.9252,-3.1412,-3.3495,-3.5086,-3.715,-3.998,-4.1424,-4.2363,-4.3213,-4.3819,-4.4361,-4.467,-4.585,-4.4656,-4.2976,-4.1912,-4.2431,-4.3147,-4.3664,-4.418,-4.4932,-4.5447,-4.5712,-4.5961,-4.6461,-4.671,-4.671,-4.6959,-4.7441,-4.7907,-4.8587,-4.9321,-4.9719,-5.0006,-5.0157,-4.9951,-5.0221,-5.0688,-5.1154,-5.0888,-5.0884,-5.0681,-5.0835,-5.093,-5.133,-5.1738,-5.1898,-5.1904,-5.1851,-5.2034,-5.2472,-5.2927,-5.3637,-5.3891,-5.4034,-5.4016,-5.4016,-5.4195,-5.4412,-5.4571,-5.4806,-5.4711,-5.4477,-5.3784,-5.2971,-5.2507,-5.1874,-5.1694,-5.1478,-5.1636,-5.1277,-5.0581,-5.0615,-5.1192,-5.1293,-5.1448,-5.1872,10.5757,10.5108,10.5253,10.5253,10.5144,10.5108,10.4831,10.4288,10.3706,10.297,10.2034,10.0318,9.8582,9.6314,9.3494,8.816,8.1435,7.4579,6.8628,6.2636,5.5957,4.9011,4.1001,3.3736,2.6918,2.0345,1.5775,1.1482,0.5655,0.0,-0.5209,-0.9655,-1.4935,-1.9138,-2.2806,-2.6195,-2.9527,-3.2558,-3.4459,-3.6556,-3.8681,-4.0513,-4.2054,-4.4857,-4.6253,-4.7359,-4.8178,-4.8565,-4.8985,-5.0107,-5.0087,-5.042,-4.9834,-4.7846,-4.7133,-4.7148,-4.7411,-4.7907,-4.8417,-4.8664,-4.8927,-4.9189,-4.9682,-4.9682,-4.9682,-4.9913,-5.0388,-5.0798,-5.1351,-5.1988,-5.2303,-5.2269,-5.2096,-5.2203,-5.2297,-5.2511,-5.292,-5.3168,-5.2711,-5.2255,-5.2078,-5.2138,-5.2555,-5.2798,-5.2854,-5.3182,-5.3363,-5.3563,-5.378,-5.4233,-5.4685,-5.4685,-5.4666,-5.4666,-5.4666,-5.4844,-5.5022,-5.5084,-5.4989,-5.476,-5.4645,-5.3935,-5.3454,-5.3353,-5.3121,-5.2722,-5.2711,-5.2487,-5.2146,-5.1843,-5.1812,-5.1987,-5.2213,-5.2421,-5.2383,10.6377,10.5823,10.5961,10.5874,10.5787,10.5787,10.5522,10.5035,10.4441,10.3769,10.2521,10.0824,9.8871,9.6514,9.3234,8.7187,7.9658,7.3409,6.7502,6.1203,5.392,4.6347,3.7956,3.0569,2.2412,1.5077,0.9534,0.527,0.0266,-0.5381,-1.0583,-1.5272,-2.0243,-2.4435,-2.8087,-3.1394,-3.4435,-3.746,-3.9629,-4.1739,-4.4124,-4.5944,-4.8226,-4.9818,-5.0939,-5.1981,-5.2578,-5.3074,-5.3461,-5.4265,-5.4802,-5.5453,-5.5418,-5.468,-5.299,-5.2051,-5.1824,-5.2084,-5.2588,-5.2831,-5.2831,-5.3091,-5.3091,-5.3091,-5.3333,-5.3559,-5.3784,-5.4181,-5.418,-5.4548,-5.4887,-5.4496,-5.4356,-5.4247,-5.4122,-5.4508,-5.4728,-5.4626,-5.4388,-5.3964,-5.3822,-5.3677,-5.3858,-5.4128,-5.4251,-5.4431,-5.4882,-5.5098,-5.5098,-5.5529,-5.5744,-5.592,-5.5901,-5.6076,-5.5999,-5.5863,-5.5844,-5.5727,-5.5514,-5.5281,-5.5259,-5.4778,-5.487,-5.5117,-5.4831,-5.371,-5.3158,-5.2552,-5.261,-5.2911,-5.2571,-5.2683,-5.3038,-5.3185,-5.339,10.6926,10.647,10.6553,10.6553,10.6553,10.6553,10.6266,10.5838,10.5324,10.4499,10.3366,10.1293,9.9181,9.6487,9.1988,8.5781,7.8105,7.2568,6.6334,5.9327,5.2195,4.4201,3.5809,2.763,1.942,1.1349,0.376,-0.1546,-0.4984,-1.0347,-1.5509,-2.045,-2.5157,-2.9336,-3.2983,-3.6576,-3.9375,-4.2138,-4.4649,-4.7001,-4.9259,-5.1794,-5.4185,-5.5052,-5.5712,-5.6351,-5.7109,-5.758,-5.8097,-5.8644,-5.9476,-6.018,-6.0415,-6.0668,-5.9946,-5.7822,-5.665,-5.6429,-5.6447,-5.6704,-5.6447,-5.6447,-5.6704,-5.6704,-5.6704,-5.6668,-5.7127,-5.7511,-5.74,-5.7194,-5.7251,-5.6899,-5.6565,-5.6305,-5.6383,-5.6271,-5.6328,-5.6175,-5.6238,-5.5753,-5.5469,-5.5242,-5.5428,-5.5586,-5.5725,-5.6154,-5.6368,-5.6368,-5.6582,-5.6796,-5.7009,-5.7183,-5.7336,-5.7449,-5.7289,-5.6971,-5.6701,-5.6602,-5.6325,-5.6027,-5.6036,-5.6042,-5.6168,-5.5863,-5.5188,-5.4286,-5.3551,-5.3287,-5.3808,-5.3731,-5.3224,-5.339,-5.4004,-5.4411,-5.4411,10.7035,10.72,10.7357,10.7434,10.7434,10.7434,10.7163,10.6726,10.6192,10.5502,10.4463,10.211,9.9779,9.629,8.9737,8.3265,7.7344,7.1637,6.5135,5.7913,5.0438,4.2523,3.3826,2.57,1.7196,0.8993,0.0738,-0.5016,-0.9234,-1.485,-2.0057,-2.4747,-2.9582,-3.3968,-3.748,-4.0817,-4.3954,-4.6672,-4.9199,-5.2002,-5.504,-5.7477,-5.8739,-5.959,-6.0236,-6.0944,-6.1874,-6.2322,-6.2782,-6.3474,-6.4124,-6.481,-6.5288,-6.5288,-6.5764,-6.4373,-6.2298,-5.9297,-5.9749,-5.9749,-5.9749,-5.9984,-5.9749,-5.9532,-5.9749,-5.9908,-6.0261,-6.0438,-6.0033,-5.9647,-5.9468,-5.9022,-5.8771,-5.8693,-5.8654,-5.8402,-5.8255,-5.8066,-5.8091,-5.7834,-5.7344,-5.6992,-5.6815,-5.7009,-5.7222,-5.7648,-5.786,-5.786,-5.782,-5.7972,-5.8354,-5.8483,-5.8261,-5.8556,-5.8414,-5.8107,-5.7717,-5.743,-5.7105,-5.6781,-5.6863,-5.6903,-5.6295,-5.6012,-5.5363,-5.5383,-5.5363,-5.5323,-5.5243,-5.4818,-5.4411,-5.4818,-5.5224,-5.5426,-5.5608,10.8141,10.7997,10.8144,10.8254,10.8216,10.8216,10.7999,10.7627,10.7126,10.6443,10.5122,10.2622,9.9251,9.4549,8.8304,8.2954,7.7521,7.1681,6.4752,5.6847,4.9276,4.1222,3.2616,2.4006,1.5337,0.7161,-0.0971,-0.8132,-1.3063,-1.8653,-2.3901,-2.8608,-3.3156,-3.7477,-4.1235,-4.4569,-4.7597,-5.0831,-5.3754,-5.7001,-5.9587,-6.1207,-6.2453,-6.3697,-6.4391,-6.5114,-6.6014,-6.6982,-6.7487,-6.8181,-6.885,-6.9495,-6.9716,-6.9739,-6.9739,-6.9739,-6.8361,-6.6113,-6.4373,-6.4144,-6.3914,-6.3914,-6.3914,-6.4144,-6.3874,-6.3712,-6.355,-6.3595,-6.2678,-6.1988,-6.1726,-6.1362,-6.1201,-6.112,-6.11,-6.0615,-6.0272,-6.0206,-6.0015,-5.9699,-5.9461,-5.8958,-5.8475,-5.8475,-5.8475,-5.8495,-5.8686,-5.8686,-5.8755,-5.9011,-5.9366,-5.9906,-5.9615,-5.9302,-5.936,-5.913,-5.89,-5.8552,-5.8239,-5.7968,-5.7905,-5.756,-5.7256,-5.7235,-5.7277,-5.7277,-5.7235,-5.6635,-5.583,-5.5628,-5.5628,-5.5991,-5.6352,-5.6393,-5.6594,10.9384,10.922,10.9001,10.8935,10.8973,10.8935,10.8773,10.8429,10.7962,10.7323,10.5715,10.2822,9.8234,9.293,8.8083,8.3306,7.8224,7.165,6.4505,5.6778,4.8561,4.0254,3.1509,2.2569,1.3889,0.5614,-0.2627,-0.9723,-1.6255,-2.198,-2.7189,-3.1795,-3.6284,-4.0393,-4.4248,-4.8119,-5.1707,-5.5614,-5.8602,-6.144,-6.37,-6.4815,-6.6198,-6.7305,-6.8475,-6.9244,-6.9827,-7.1083,-7.1936,-7.2565,-7.3214,-7.386,-7.4075,-7.4075,-7.4265,-7.4289,-7.3598,-7.2736,-7.0577,-6.9295,-6.8671,-6.847,-6.8246,-6.7936,-6.7561,-6.708,-6.6494,-6.628,-6.5128,-6.4465,-6.4212,-6.3896,-6.3594,-6.351,-6.351,-6.2923,-6.2398,-6.2209,-6.1598,-6.0971,-6.0824,-6.0824,-6.0344,-5.9947,-5.9528,-5.9318,-5.9318,-5.9696,-5.9886,-6.0051,-6.0068,-6.0373,-5.9972,-5.9655,-5.9528,-5.9539,-5.9506,-5.9514,-5.9413,-5.9065,-5.8889,-5.8691,-5.8429,-5.8825,-5.9023,-5.8627,-5.8032,-5.7235,-5.6434,-5.6835,-5.6994,-5.6912,-5.709,-5.729,-5.7844,11.0596,11.1225,11.0132,10.9704,10.9667,10.9667,10.9484,10.9131,10.8735,10.7995,10.6413,10.2641,9.806,9.3297,8.8633,8.3643,7.7827,7.15,6.408,5.6107,4.7754,3.9221,3.0597,2.1694,1.2753,0.4645,-0.3538,-1.1255,-1.8224,-2.4219,-2.9155,-3.3718,-3.875,-4.3158,-4.7529,-5.161,-5.6029,-5.9903,-6.2932,-6.512,-6.7015,-6.8485,-6.9889,-7.1551,-7.2073,-7.2897,-7.4383,-7.5214,-7.6015,-7.6833,-7.7669,-7.8109,-7.8499,-7.8706,-7.8706,-7.8499,-7.8499,-7.7852,-7.6598,-7.386,-7.2371,-7.1958,-7.1672,-7.1077,-7.0587,-6.9798,-6.9134,-6.8444,-6.7681,-6.7223,-6.6745,-6.6334,-6.6098,-6.6098,-6.5989,-6.5318,-6.4628,-6.3947,-6.3473,-6.249,-6.221,-6.221,-6.2416,-6.1798,-6.1176,-6.099,-6.0986,-6.1151,-6.108,-6.1212,-6.0752,-6.0517,-6.0069,-5.9812,-5.9727,-5.9755,-6.0134,-6.0463,-6.0289,-6.0006,-5.981,-5.9788,-5.9788,-5.9549,-5.9549,-5.9177,-5.8937,-5.8331,-5.8267,-5.8521,-5.8521,-5.8203,-5.8034,-5.8361,-5.8751,11.2503,11.2753,11.2474,11.1902,11.1059,11.1059,11.0644,10.9903,10.9507,10.7818,10.5457,10.2316,9.8642,9.4189,8.8933,8.3932,7.8326,7.0906,6.362,5.5721,4.7268,3.8731,3.0026,2.1349,1.2549,0.4553,-0.3699,-1.1257,-1.8268,-2.5035,-3.0912,-3.5812,-4.0574,-4.5278,-4.9654,-5.4987,-5.987,-6.3292,-6.5846,-6.7775,-6.9936,-7.1619,-7.3059,-7.4407,-7.625,-7.6881,-7.8134,-7.9374,-8.0218,-8.098,-8.176,-8.2161,-8.256,-8.2759,-8.2785,-8.2612,-8.2586,-8.2387,-8.1435,-7.8499,-7.6039,-7.5543,-7.514,-7.443,-7.3675,-7.2852,-7.2172,-7.1263,-7.0519,-6.9848,-6.9547,-6.9037,-6.8618,-6.8618,-6.8227,-6.7634,-6.6998,-6.6247,-6.5277,-6.4478,-6.4097,-6.3871,-6.3871,-6.3871,-6.3237,-6.2827,-6.2793,-6.2734,-6.2428,-6.2258,-6.1751,-6.1467,-6.1052,-6.1009,-6.0943,-6.0963,-6.0982,-6.1176,-6.137,-6.1154,-6.1154,-6.1176,-6.1176,-6.0699,-6.0329,-6.022,-6.0238,-6.004,-5.9654,-5.9269,-5.9118,-5.8815,-5.9091,-5.9218,-5.96,11.3959,11.42,11.4511,11.3839,11.2647,11.256,11.1975,11.1086,11.064,10.8289,10.4725,10.2644,9.9633,9.5007,8.9773,8.4599,7.892,7.1536,6.3666,5.5629,4.7264,3.8477,2.9859,2.1037,1.2368,0.4464,-0.3633,-1.1316,-1.8052,-2.4771,-3.0794,-3.6438,-4.1751,-4.6166,-5.1526,-5.777,-6.3018,-6.5531,-6.7986,-7.0245,-7.245,-7.4527,-7.6129,-7.7313,-7.9097,-8.014,-8.1015,-8.2102,-8.3331,-8.4216,-8.5095,-8.5834,-8.6135,-8.6436,-8.6709,-8.6546,-8.6354,-8.6135,-8.4975,-8.2439,-7.9733,-7.8867,-7.8461,-7.7881,-7.7,-7.5771,-7.4996,-7.4653,-7.33,-7.2522,-7.2522,-7.191,-7.1295,-7.1089,-7.0907,-7.0326,-6.9241,-6.8347,-6.732,-6.6453,-6.5984,-6.5289,-6.5692,-6.5669,-6.5065,-6.4369,-6.3878,-6.3746,-6.3743,-6.3514,-6.2998,-6.2728,-6.2413,-6.2449,-6.2336,-6.2506,-6.2506,-6.2698,-6.2889,-6.2889,-6.272,-6.272,-6.237,-6.1784,-6.1559,-6.1547,-6.1299,-6.1006,-6.0339,-5.9562,-5.949,-5.935,-5.935,-5.9495,-6.006,11.4815,11.5475,11.5753,11.5163,11.4196,11.4039,11.3454,11.2517,11.1909,10.9543,10.5819,10.3757,10.0613,9.603,9.0841,8.5725,7.9852,7.2284,6.4404,5.6328,4.7554,3.8539,2.9671,2.084,1.2423,0.421,-0.3594,-1.0716,-1.7895,-2.4093,-3.0507,-3.6833,-4.1977,-4.7345,-5.2193,-5.9183,-6.3963,-6.675,-6.9792,-7.2517,-7.4781,-7.6908,-7.8691,-8.0136,-8.1602,-8.2791,-8.3873,-8.4903,-8.5868,-8.7008,-8.7869,-8.8588,-8.9038,-8.9648,-8.9848,-8.9722,-8.9779,-8.9652,-8.8941,-8.5723,-8.3651,-8.1905,-8.1274,-8.0608,-7.8899,-7.8095,-7.789,-7.7311,-7.6348,-7.5904,-7.5509,-7.4938,-7.4338,-7.376,-7.3559,-7.2816,-7.1466,-7.0388,-6.9396,-6.8315,-6.7336,-6.667,-6.7289,-6.7487,-6.6892,-6.6332,-6.5392,-6.5005,-6.5138,-6.4541,-6.3967,-6.3807,-6.3577,-6.3531,-6.3485,-6.3843,-6.4033,-6.4222,-6.4222,-6.3986,-6.375,-6.3658,-6.3284,-6.2819,-6.2475,-6.2177,-6.2041,-6.1741,-6.1069,-6.0323,-6.0166,-5.9941,-5.9918,-5.9918,-6.0659,11.6437,11.6792,11.7064,11.6907,11.6444,11.5642,11.4848,11.3854,11.2543,11.0313,10.7332,10.4838,10.1851,9.7463,9.2123,8.6625,8.0963,7.2524,6.4539,5.7109,4.7702,3.8769,3.0081,2.143,1.3113,0.5221,-0.2643,-1.0043,-1.6932,-2.3138,-2.9674,-3.586,-4.3698,-5.0742,-5.5917,-6.1241,-6.4819,-6.8278,-7.1344,-7.3926,-7.6256,-7.8645,-8.0696,-8.2278,-8.3738,-8.5274,-8.6475,-8.73,-8.8555,-8.9643,-9.0518,-9.1158,-9.1564,-9.2121,-9.2294,-9.2121,-9.1947,-9.122,-9.0663,-8.8791,-8.7501,-8.5632,-8.3793,-8.3089,-8.2037,-8.123,-8.0585,-8.0073,-7.9397,-7.9015,-7.8465,-7.7885,-7.7302,-7.6348,-7.5829,-7.4762,-7.3577,-7.2494,-7.1417,-7.0422,-6.9233,-6.8818,-6.9038,-6.9233,-6.8818,-6.8338,-6.7375,-6.6439,-6.619,-6.5418,-6.4574,-6.4574,-6.4458,-6.4458,-6.4624,-6.4977,-6.5165,-6.5165,-6.4907,-6.4437,-6.4366,-6.4577,-6.3992,-6.3408,-6.3081,-6.257,-6.2679,-6.2603,-6.2006,-6.1345,-6.1368,-6.1187,-6.1004,-6.114,-6.1434,11.8347,11.8443,11.8695,11.8752,11.8537,11.7219,11.6085,11.4978,11.3194,11.1045,10.8648,10.5894,10.2852,9.8682,9.333,8.7488,8.2093,7.3478,6.482,5.7466,4.8352,3.9452,3.0664,2.2042,1.3819,0.6009,-0.1522,-0.8821,-1.5622,-2.1973,-2.9085,-3.6981,-4.4916,-5.0882,-5.6401,-6.0768,-6.5046,-6.8414,-7.1633,-7.4858,-7.7461,-8.0047,-8.2266,-8.398,-8.5701,-8.7433,-8.871,-8.9872,-9.11,-9.1973,-9.2927,-9.3574,-9.3963,-9.428,-9.4402,-9.4104,-9.3939,-9.3305,-9.2663,-9.1996,-9.0573,-8.8934,-8.6903,-8.5662,-8.4921,-8.3958,-8.3455,-8.2978,-8.2426,-8.1871,-8.1498,-8.0937,-7.9994,-7.9232,-7.8127,-7.7227,-7.5973,-7.4657,-7.341,-7.242,-7.1525,-7.1143,-7.0759,-7.0759,-7.0759,-7.0151,-6.9522,-6.8563,-6.7607,-6.6605,-6.5961,-6.5938,-6.5938,-6.61,-6.61,-6.6286,-6.6286,-6.6124,-6.5771,-6.5556,-6.5502,-6.5654,-6.4833,-6.4221,-6.4139,-6.3852,-6.3517,-6.3278,-6.2981,-6.2909,-6.3063,-6.2683,-6.2279,-6.2279,-6.2434,12.0331,12.0406,12.0539,12.0522,12.0232,11.8559,11.7186,11.5929,11.3807,11.1983,11.0271,10.6854,10.3795,10.011,9.4424,8.8594,8.2489,7.4693,6.6265,5.7606,4.9029,4.0247,3.147,2.2692,1.4505,0.6799,-0.0645,-0.7402,-1.4404,-2.1644,-2.9503,-3.7278,-4.3769,-4.9387,-5.4692,-5.9466,-6.3839,-6.7915,-7.1696,-7.5037,-7.8076,-8.1111,-8.3217,-8.5229,-8.7053,-8.8562,-8.9912,-9.1251,-9.2445,-9.3458,-9.4587,-9.5181,-9.5681,-9.615,-9.621,-9.6273,-9.6179,-9.561,-9.4845,-9.4222,-9.3647,-9.2007,-9.0375,-8.845,-8.7175,-8.6595,-8.6215,-8.5685,-8.5122,-8.4793,-8.4253,-8.3527,-8.2795,-8.1627,-8.0774,-7.9495,-7.8194,-7.6924,-7.5632,-7.4608,-7.3682,-7.323,-7.2854,-7.2854,-7.2803,-7.2313,-7.1836,-7.0938,-6.9882,-6.8376,-6.7653,-6.758,-6.7764,-6.7764,-6.7764,-6.7764,-6.758,-6.7396,-6.7164,-6.6895,-6.6832,-6.6464,-6.5771,-6.538,-6.541,-6.5165,-6.467,-6.4499,-6.4576,-6.4527,-6.4527,-6.4002,-6.3498,-6.3322,-6.3474,12.0409,12.056,12.0688,12.0746,12.0576,11.9497,11.8027,11.6335,11.4804,11.331,11.1608,10.7834,10.4899,10.2098,9.5547,9.0061,8.3256,7.5795,6.7638,5.8992,4.9772,4.0724,3.1946,2.3644,1.5358,0.7974,0.106,-0.5781,-1.3222,-2.0994,-2.9238,-3.6856,-4.2126,-4.715,-5.1909,-5.6692,-6.2111,-6.7211,-7.1155,-7.473,-7.7963,-8.1118,-8.3377,-8.562,-8.7651,-8.9278,-9.0807,-9.2134,-9.3369,-9.5051,-9.5923,-9.6621,-9.7704,-9.8011,-9.8222,-9.7487,-9.7306,-9.7008,-9.6438,-9.5855,-9.5454,-9.4992,-9.3678,-9.182,-9.0293,-8.926,-8.912,-8.8441,-8.7784,-8.7409,-8.6916,-8.6186,-8.5301,-8.4238,-8.31,-8.1897,-8.0573,-7.9073,-7.7785,-7.6584,-7.5643,-7.5302,-7.4933,-7.4748,-7.467,-7.4412,-7.3999,-7.3198,-7.1985,-7.0497,-6.9501,-6.922,-6.9195,-6.9376,-6.922,-6.9014,-6.9039,-6.8783,-6.849,-6.8168,-6.7665,-6.7241,-6.6666,-6.6342,-6.639,-6.6067,-6.5694,-6.5742,-6.5914,-6.5914,-6.5742,-6.5223,-6.4702,-6.4702,-6.4527,12.2566,12.2698,12.2828,12.2499,12.1711,12.0898,11.9591,11.8062,11.6281,11.4629,11.2889,10.9532,10.6413,10.3112,9.7041,9.1109,8.5527,7.6784,6.8435,5.9811,5.0661,4.1935,3.316,2.4645,1.6632,0.9541,0.2725,-0.3814,-1.1552,-2.1152,-2.9855,-3.4717,-3.9899,-4.4614,-4.9244,-5.4099,-5.9355,-6.4793,-6.964,-7.3911,-7.7401,-8.0671,-8.3236,-8.5723,-8.7907,-8.9991,-9.1729,-9.3119,-9.4761,-9.6266,-9.7177,-9.7896,-9.8631,-9.8906,-9.8906,-9.8322,-9.8322,-9.8133,-9.773,-9.7541,-9.7205,-9.6961,-9.6582,-9.5502,-9.3809,-9.2673,-9.1739,-9.0789,-9.0323,-8.9823,-8.9319,-8.8641,-8.7784,-8.6742,-8.5502,-8.4268,-8.2746,-8.1255,-7.9932,-7.8487,-7.7664,-7.7124,-7.6944,-7.697,-7.671,-7.6471,-7.5967,-7.5278,-7.3908,-7.2315,-7.1165,-7.0808,-7.063,-7.0605,-7.0452,-7.0452,-7.0452,-7.04,-6.9761,-6.9275,-6.8693,-6.8157,-6.7767,-6.7512,-6.7358,-6.7112,-6.7112,-6.7112,-6.7281,-6.7281,-6.7281,-6.6942,-6.6575,-6.6258,-6.6086,12.5843,12.5777,12.5975,12.4892,12.3568,12.2551,12.1611,12.0618,11.8101,11.608,11.4326,11.1416,10.8117,10.4354,9.847,9.2474,8.5996,7.7912,6.9454,6.0861,5.1863,4.3005,3.4454,2.5992,1.8104,1.1083,0.4356,-0.2304,-1.0208,-1.8999,-2.6459,-3.165,-3.6443,-4.1314,-4.6198,-5.1034,-5.6092,-6.1557,-6.6928,-7.1658,-7.6718,-8.0495,-8.3647,-8.6509,-8.8745,-9.099,-9.3037,-9.4761,-9.6328,-9.7319,-9.8189,-9.8749,-9.934,-9.9536,-9.9503,-9.9374,-9.9508,-9.935,-9.9119,-9.8983,-9.8873,-9.8789,-9.8796,-9.7795,-9.6237,-9.4951,-9.384,-9.3211,-9.2735,-9.2124,-9.1475,-9.0713,-8.9769,-8.8639,-8.7351,-8.6263,-8.4927,-8.3448,-8.1772,-8.043,-7.9761,-7.9235,-7.9059,-7.8883,-7.8733,-7.8488,-7.7863,-7.7074,-7.6012,-7.4274,-7.3154,-7.2368,-7.2193,-7.2193,-7.2044,-7.2044,-7.2044,-7.1853,-7.1173,-7.0755,-7.0126,-6.9567,-6.8873,-6.8628,-6.8461,-6.8628,-6.8795,-6.8628,-6.8628,-6.8628,-6.8628,-6.8795,-6.8461,-6.7957,-6.7451,12.6446,12.5913,12.5918,12.561,12.4978,12.3619,12.2878,12.2425,12.0586,11.8598,11.6283,11.2695,10.9275,10.5882,9.9827,9.386,8.7744,7.9316,7.1007,6.2421,5.3385,4.427,3.5777,2.7433,1.9693,1.2775,0.594,-0.1451,-0.9698,-1.7053,-2.2786,-2.7514,-3.2623,-3.7629,-4.2548,-4.7527,-5.2788,-5.8187,-6.3455,-6.9176,-7.4647,-7.8687,-8.1951,-8.4763,-8.7219,-9.0193,-9.2218,-9.4176,-9.6135,-9.7809,-9.9062,-10.018,-10.1181,-10.1269,-10.1181,-10.0971,-10.0664,-10.0588,-10.0385,-10.0143,-10.003,-9.9545,-9.9285,-9.8686,-9.7863,-9.6721,-9.5986,-9.535,-9.4739,-9.4121,-9.3403,-9.256,-9.1779,-9.0464,-8.9339,-8.8245,-8.6987,-8.5281,-8.3376,-8.2648,-8.1803,-8.149,-8.1147,-8.1003,-8.0859,-8.024,-7.9433,-7.8764,-7.8092,-7.6667,-7.5218,-7.4437,-7.3925,-7.378,-7.3634,-7.3462,-7.3634,-7.309,-7.2425,-7.2053,-7.1513,-7.0804,-7.0118,-6.998,-6.9816,-6.998,-7.0118,-6.9816,-6.9816,-6.998,-6.9954,-7.0118,-6.998,-6.9624,-6.8795,12.8595,12.8164,12.7715,12.7262,12.6642,12.5454,12.4693,12.4019,12.2521,12.0898,11.891,11.4938,11.123,10.7673,10.1544,9.5755,8.9724,8.0982,7.2744,6.426,5.5099,4.5782,3.7226,2.9122,2.1512,1.4265,0.568,-0.2468,-0.9407,-1.4779,-1.9982,-2.4356,-2.9317,-3.4019,-3.9041,-4.4059,-4.9236,-5.4638,-5.9893,-6.5615,-7.1801,-7.63,-8.0861,-8.3852,-8.684,-8.9529,-9.2009,-9.3988,-9.5944,-9.7831,-9.9031,-9.9892,-10.0621,-10.0767,-10.083,-10.0856,-10.0882,-10.1209,-10.1104,-10.0874,-10.0823,-10.0596,-10.0499,-10.0294,-9.9794,-9.8715,-9.7438,-9.6841,-9.5901,-9.5285,-9.4545,-9.3843,-9.3146,-9.2193,-9.0744,-8.9477,-8.8299,-8.6868,-8.5611,-8.4772,-8.4117,-8.3513,-8.318,-8.2706,-8.2509,-8.2309,-8.1425,-8.041,-7.9819,-7.8815,-7.7536,-7.629,-7.5789,-7.5312,-7.5198,-7.5028,-7.5028,-7.454,-7.383,-7.2991,-7.2478,-7.1772,-7.1258,-7.1258,-7.1258,-7.1419,-7.1419,-7.1285,-7.1285,-7.1419,-7.1419,-7.1419,-7.1285,-7.1123,-7.0608,13.1386,13.112,13.0164,12.9312,12.8474,12.7418,12.6556,12.5705,12.419,12.2894,12.1401,11.772,11.3735,10.9066,10.4021,9.8287,9.1474,8.3003,7.4802,6.6055,5.655,4.776,3.9373,3.1041,2.28,1.4174,0.5248,-0.102,-0.7023,-1.1861,-1.654,-2.1449,-2.6058,-3.0745,-3.5619,-4.0668,-4.5977,-5.1289,-5.6504,-6.1901,-6.802,-7.4079,-7.9096,-8.3264,-8.6698,-8.9469,-9.1828,-9.3915,-9.5654,-9.7538,-9.9034,-9.9921,-10.0375,-10.062,-10.0582,-10.0587,-10.0871,-10.1082,-10.1111,-10.1384,-10.1716,-10.2004,-10.1925,-10.1559,-10.0926,-10.0171,-9.8904,-9.8089,-9.7184,-9.645,-9.5748,-9.505,-9.441,-9.3553,-9.2215,-9.0882,-8.9573,-8.8502,-8.7698,-8.7042,-8.6251,-8.564,-8.5185,-8.4696,-8.4281,-8.4077,-8.3313,-8.2483,-8.1522,-8.0374,-7.9258,-7.8403,-7.7773,-7.731,-7.6705,-7.6373,-7.6345,-7.5793,-7.5159,-7.4136,-7.3328,-7.2865,-7.254,-7.2699,-7.2699,-7.2699,-7.2699,-7.254,-7.2699,-7.2858,-7.2699,-7.254,-7.254,-7.2381,-7.2277,13.3348,13.1982,13.1061,13.0421,12.9869,12.8495,12.7651,12.7263,12.58,12.4321,12.259,12.0334,11.6512,11.1083,10.577,10.0105,9.3695,8.5327,7.6993,6.8399,5.8993,5.0227,4.1292,3.1935,2.2732,1.3941,0.6238,0.1012,-0.3882,-0.8413,-1.2569,-1.7193,-2.2025,-2.6734,-3.1529,-3.6909,-4.2195,-4.7665,-5.3127,-5.872,-6.4373,-7.0373,-7.6271,-8.0284,-8.3714,-8.6991,-8.9956,-9.2822,-9.5081,-9.7236,-9.904,-9.9996,-10.0356,-10.0409,-10.0541,-10.0577,-10.0873,-10.1034,-10.1298,-10.1314,-10.1679,-10.1752,-10.15,-10.1164,-10.0709,-10.0598,-9.9727,-9.9241,-9.8574,-9.789,-9.7122,-9.6081,-9.5335,-9.4509,-9.3385,-9.2239,-9.1051,-9.0252,-8.9536,-8.8899,-8.8163,-8.7698,-8.723,-8.6757,-8.6121,-8.5694,-8.5019,-8.4209,-8.3055,-8.2092,-8.0975,-8.0339,-7.9574,-7.8613,-7.7829,-7.7666,-7.7418,-7.7082,-7.6465,-7.539,-7.4519,-7.3941,-7.3801,-7.3957,-7.3957,-7.3801,-7.3801,-7.3957,-7.3957,-7.3957,-7.3801,-7.3645,-7.3801,-7.3645,-7.3516]},{"header":{"parameterUnit":"m.s-1","parameterCategory":1,"la1":31.0,"la2":29.5877,"lo1":-88.7671,"lo2":-86.6584,"dy":0.0162,"dx":0.0185,"nx":115,"ny":88,"refTime":"2023-04-13T06:00:00:Z","depth":0,"parameterNumber":3,"parameterNumberName":"V-component_of_WINDS"},"data":[0.0,0.0,0.0,0.0,0.0,0.0,0.0,0.0,0.0,0.0,0.0,0.0,0.0,0.0,0.0,0.0,0.0,0.0,0.0,0.0,0.0,0.0,0.0,0.0,0.0,0.0,0.0,0.0,0.0,0.0,0.0,0.0,0.0,0.0,0.0,0.0,0.0,0.0,0.0,0.0,0.0,0.0,0.0,0.0,0.0,0.0,0.0,0.0,0.0,0.0,0.0,0.0,0.0,0.0,0.0,0.0,0.0,0.0,0.0,0.0,0.0,0.0,0.0,0.0,0.0,0.0,0.0,0.0,0.0,0.0,0.0,0.0,0.0,0.0,0.0,0.0,0.0,0.0,0.0,0.0,0.0,0.0,0.0,0.0,0.0,0.0,0.0,0.0,0.0,0.0,0.0,0.0,0.0,0.0,0.0,0.0,0.0,0.0,0.0,0.0,0.0,0.0,0.0,0.0,0.0,0.0,0.0,0.0,0.0,0.0,0.0,0.0,0.0,0.0,0.0,0.0,0.0,0.0,0.0,0.0,0.0,0.0,0.0,0.0,0.0,0.0,0.0,0.0,0.0,0.0,0.0,0.0,0.0,0.0,0.0,0.0,0.0,0.0,0.0,0.0,0.0,0.0,0.0,0.0,0.0,0.0,0.0,0.0,0.0,0.0,0.0,0.0,0.0,0.0,0.0,0.0,0.0,0.0,0.0,0.0,0.0,0.0,0.0,0.0,0.0,0.0,0.0,0.0,0.0,0.0,0.0,0.0,0.0,0.0,0.0,0.0,0.0,0.0,0.0,0.0,0.0,0.0,0.0,0.0,0.0,0.0,0.0,0.0,0.0,0.0,0.0,0.0,0.0,0.0,0.0,0.0,0.0,0.0,0.0,0.0,0.0,0.0,0.0,0.0,0.0,0.0,0.0,0.0,0.0,0.0,0.0,0.0,0.0,0.0,0.0,0.0,0.0,0.0,0.0,0.0,0.0,0.0,0.0,0.0,0.0,0.0,0.0,0.0,0.0,0.0,0.0,0.0,0.0,0.0,0.0,0.0,0.0,0.0,0.0,0.0,0.0,0.0,0.0,0.0,0.0,0.0,0.0,0.0,0.0,0.0,0.0,0.0,0.0,0.0,0.0,0.0,0.0,0.0,0.0,0.0,0.0,0.0,0.0,0.0,0.0,0.0,0.0,0.0,0.0,0.0,0.0,0.0,0.0,0.0,0.0,0.0,0.0,0.0,0.0,0.0,0.0,0.0,0.0,0.0,0.0,0.0,0.0,0.0,0.0,0.0,0.0,0.0,0.0,0.0,0.0,0.0,0.0,0.0,0.0,0.0,0.0,0.0,0.0,0.0,0.0,0.0,0.0,0.0,0.0,0.0,0.0,0.0,0.0,0.0,0.0,0.0,0.0,0.0,0.0,0.0,0.0,0.0,0.0,0.0,0.0,0.0,0.0,0.0,0.0,0.0,0.0,0.0,0.0,0.0,0.0,0.0,0.0,0.0,0.0,0.0,0.0,0.0,0.0,0.0,0.0,0.0,0.0,0.0,0.0,0.0,0.0,0.0,0.0,0.0,0.0,0.0,0.0,0.0,0.0,0.0,0.0,0.0,0.0,0.0,0.0,0.0,0.0,0.0,0.0,0.0,0.0,0.0,0.0,0.0,0.0,0.0,0.0,0.0,0.0,0.0,0.0,0.0,0.0,0.0,0.0,0.0,0.0,0.0,0.0,0.0,0.0,0.0,0.0,0.0,0.0,0.0,0.0,0.0,0.0,0.0,0.0,0.0,0.0,0.0,0.0,0.0,0.0,0.0,0.0,0.0,0.0,0.0,0.0,0.0,0.0,0.0,0.0,0.0,0.0,0.0,0.0,0.0,0.0,0.0,0.0,0.0,0.0,0.0,0.0,0.0,0.0,0.0,0.0,0.0,0.0,0.0,0.0,0.0,0.0,0.0,0.0,0.0,0.0,0.0,0.0,0.0,0.0,0.0,0.0,0.0,0.0,0.0,0.0,0.0,0.0,0.0,0.0,0.0,0.0,0.0,0.0,0.0,0.0,0.0,0.0,0.0,0.0,0.0,0.0,0.0,0.0,0.0,0.0,0.0,0.0,0.0,0.0,0.0,0.0,0.0,0.0,0.0,0.0,0.0,0.0,0.0,0.0,0.0,0.0,0.0,0.0,0.0,0.0,0.0,0.0,0.0,0.0,0.0,0.0,0.0,0.0,0.0,0.0,0.0,0.0,0.0,0.0,0.0,0.0,0.0,0.0,0.0,0.0,0.0,0.0,0.0,0.0,0.0,0.0,0.0,0.0,0.0,0.0,0.0,0.0,0.0,0.0,0.0,0.0,0.0,0.0,0.0,0.0,0.0,0.0,0.0,0.0,0.0,0.0,0.0,0.0,0.0,0.0,0.0,0.0,0.0,0.0,0.0,0.0,0.0,0.0,0.0,0.0,0.0,0.0,0.0,0.0,0.0,0.0,0.0,0.0,0.0,0.0,0.0,0.0,0.0,0.0,0.0,0.0,0.0,0.0,0.0,0.0,0.0,0.0,0.0,0.0,0.0,0.0,0.0,0.0,0.0,0.0,0.0,0.0,0.0,0.0,0.0,0.0,0.0,0.0,0.0,0.0,0.0,0.0,0.0,0.0,0.0,0.0,0.0,0.0,0.0,0.0,0.0,0.0,0.0,0.0,0.0,0.0,0.0,0.0,0.0,0.0,0.0,0.0,0.0,0.0,0.0,0.0,0.0,0.0,0.0,0.0,0.0,0.0,0.0,0.0,0.0,0.0,0.0,0.0,0.0,0.0,0.0,0.0,0.0,0.0,0.0,0.0,0.0,0.0,0.0,0.0,0.0,0.0,0.0,0.0,0.0,0.0,0.0,0.0,0.0,0.0,0.0,0.0,0.0,0.0,0.0,0.0,0.0,0.0,0.0,0.0,0.0,0.0,0.0,0.0,0.0,0.0,0.0,0.0,0.0,0.0,0.0,0.0,0.0,0.0,0.0,0.0,0.0,0.0,0.0,0.0,0.0,0.0,0.0,0.0,0.0,0.0,0.0,0.0,0.0,0.0,0.0,0.0,0.0,0.0,0.0,0.0,0.0,0.0,0.0,0.0,0.0,0.0,0.0,0.0,0.0,0.0,0.0,0.0,0.0,0.0,0.0,0.0,0.0,0.0,0.0,0.0,0.0,0.0,0.0,0.0,0.0,0.0,0.0,0.0,0.0,0.0,0.0,0.0,0.0,0.0,0.0,0.0,0.0,0.0,0.0,0.0,0.0,0.0,0.0,0.0,0.0,0.0,0.0,0.0,0.0,0.0,0.0,0.0,0.0,0.0,0.0,0.0,0.0,0.0,0.0,0.0,0.0,0.0,0.0,0.0,0.0,0.0,0.0,0.0,0.0,0.0,0.0,0.0,0.0,0.0,0.0,0.0,0.0,0.0,0.0,0.0,0.0,0.0,0.0,0.0,0.0,0.0,0.0,0.0,0.0,0.0,0.0,0.0,0.0,0.0,0.0,0.0,0.0,0.0,0.0,0.0,0.0,0.0,0.0,0.0,0.0,0.0,0.0,0.0,0.0,0.0,0.0,0.0,0.0,0.0,0.0,0.0,0.0,0.0,0.0,0.0,0.0,0.0,0.0,0.0,0.0,0.0,0.0,0.0,0.0,0.0,0.0,0.0,0.0,0.0,0.0,0.0,0.0,0.0,0.0,0.0,0.0,0.0,0.0,0.0,0.0,0.0,0.0,0.0,0.0,0.0,0.0,0.0,0.0,0.0,0.0,0.0,0.0,0.0,0.0,0.0,0.0,0.0,0.0,0.0,0.0,0.0,0.0,0.0,0.0,0.0,0.0,0.0,0.0,0.0,0.0,0.0,0.0,0.0,0.0,0.0,0.0,0.0,0.0,0.0,0.0,0.0,0.0,0.0,0.0,0.0,0.0,0.0,0.0,0.0,0.0,0.0,0.0,0.0,0.0,0.0,0.0,0.0,0.0,0.0,0.0,0.0,0.0,0.0,0.0,0.0,0.0,0.0,0.0,0.0,0.0,0.0,0.0,0.0,0.0,0.0,0.0,0.0,0.0,0.0,0.0,0.0,0.0,0.0,0.0,0.0,0.0,0.0,0.0,0.0,0.0,0.0,0.0,0.0,0.0,0.0,0.0,0.0,0.0,0.0,0.0,0.0,0.0,0.0,0.0,0.0,0.0,0.0,0.0,0.0,0.0,0.0,0.0,0.0,0.0,0.0,0.0,0.0,0.0,0.0,0.0,0.0,0.0,5.053,0.0,0.0,0.0,0.0,0.0,0.0,0.0,0.0,0.0,0.0,0.0,0.0,0.0,0.0,0.0,0.0,0.0,0.0,0.0,0.0,0.0,0.0,0.0,0.0,0.0,0.0,0.0,0.0,0.0,0.0,0.0,0.0,0.0,0.0,0.0,0.0,0.0,0.0,0.0,0.0,0.0,0.0,0.0,0.0,0.0,0.0,0.0,0.0,0.0,0.0,0.0,0.0,0.0,0.0,0.0,0.0,0.0,0.0,0.0,0.0,0.0,0.0,0.0,0.0,0.0,0.0,0.0,0.0,0.0,0.0,0.0,0.0,0.0,0.0,0.0,0.0,0.0,0.0,0.0,0.0,0.0,0.0,0.0,0.0,0.0,0.0,0.0,0.0,0.0,0.0,0.0,0.0,0.0,0.0,0.0,0.0,0.0,0.0,0.0,0.0,0.0,0.0,0.0,0.0,0.0,0.0,0.0,0.0,0.0,0.0,4.8696,4.9342,5.0051,5.0495,5.0729,0.0,0.0,0.0,0.0,0.0,0.0,0.0,0.0,0.0,0.0,0.0,0.0,0.0,0.0,0.0,0.0,0.0,0.0,0.0,0.0,0.0,0.0,0.0,0.0,0.0,0.0,0.0,0.0,0.0,0.0,0.0,0.0,0.0,0.0,0.0,0.0,0.0,0.0,0.0,0.0,0.0,0.0,0.0,0.0,0.0,0.0,0.0,0.0,0.0,0.0,0.0,0.0,0.0,0.0,0.0,0.0,0.0,0.0,0.0,0.0,0.0,0.0,0.0,0.0,0.0,0.0,0.0,0.0,0.0,0.0,0.0,0.0,0.0,0.0,0.0,0.0,0.0,0.0,0.0,0.0,0.0,0.0,0.0,0.0,0.0,0.0,0.0,0.0,0.0,0.0,0.0,0.0,0.0,0.0,0.0,0.0,0.0,0.0,0.0,0.0,0.0,0.0,0.0,0.0,0.0,0.0,0.0,0.0,0.0,0.0,0.0,0.0,5.0746,5.1071,5.1158,0.0,0.0,0.0,0.0,0.0,0.0,0.0,0.0,0.0,0.0,0.0,0.0,0.0,0.0,0.0,0.0,0.0,0.0,0.0,0.0,0.0,0.0,0.0,0.0,0.0,0.0,0.0,0.0,0.0,0.0,0.0,0.0,0.0,0.0,0.0,0.0,0.0,0.0,0.0,0.0,0.0,0.0,0.0,0.0,0.0,0.0,0.0,0.0,0.0,0.0,0.0,0.0,0.0,0.0,0.0,0.0,0.0,0.0,0.0,0.0,0.0,0.0,0.0,0.0,0.0,0.0,0.0,0.0,0.0,0.0,0.0,0.0,0.0,0.0,0.0,0.0,0.0,0.0,0.0,0.0,0.0,0.0,0.0,0.0,0.0,0.0,0.0,0.0,0.0,0.0,0.0,0.0,0.0,0.0,0.0,0.0,0.0,0.0,0.0,0.0,0.0,0.0,0.0,0.0,0.0,0.0,0.0,0.0,0.0,0.0,4.9684,5.0475,5.102,0.0,5.2066,0.0,0.0,0.0,0.0,0.0,0.0,0.0,0.0,0.0,0.0,0.0,0.0,0.0,0.0,0.0,0.0,0.0,0.0,0.0,0.0,0.0,0.0,0.0,0.0,0.0,0.0,0.0,0.0,0.0,0.0,0.0,0.0,0.0,0.0,0.0,0.0,0.0,0.0,0.0,0.0,0.0,0.0,0.0,0.0,0.0,0.0,0.0,0.0,0.0,0.0,0.0,0.0,0.0,0.0,0.0,0.0,0.0,0.0,0.0,0.0,0.0,0.0,0.0,0.0,0.0,0.0,0.0,0.0,0.0,0.0,0.0,0.0,0.0,0.0,0.0,0.0,0.0,0.0,0.0,0.0,0.0,0.0,0.0,0.0,0.0,0.0,0.0,0.0,0.0,0.0,0.0,0.0,0.0,0.0,0.0,0.0,0.0,0.0,0.0,0.0,0.0,0.0,0.0,0.0,0.0,0.0,0.0,0.0,0.0,0.0,4.9749,5.072,5.1193,5.1718,0.0,0.0,0.0,0.0,0.0,0.0,0.0,0.0,0.0,0.0,0.0,0.0,0.0,0.0,0.0,0.0,0.0,0.0,0.0,0.0,0.0,0.0,0.0,0.0,0.0,0.0,0.0,0.0,0.0,0.0,0.0,0.0,0.0,0.0,0.0,0.0,0.0,0.0,0.0,0.0,0.0,0.0,0.0,0.0,0.0,0.0,0.0,0.0,0.0,0.0,0.0,0.0,0.0,0.0,0.0,0.0,0.0,0.0,0.0,0.0,0.0,0.0,0.0,0.0,0.0,0.0,0.0,0.0,0.0,0.0,0.0,0.0,0.0,0.0,0.0,0.0,0.0,0.0,0.0,0.0,0.0,0.0,0.0,0.0,0.0,0.0,0.0,0.0,0.0,0.0,0.0,0.0,0.0,0.0,0.0,0.0,0.0,0.0,0.0,0.0,0.0,0.0,0.0,0.0,0.0,0.0,0.0,0.0,0.0,0.0,4.9094,4.9877,5.0952,5.137,5.1848,5.2408,0.0,0.0,0.0,0.0,0.0,0.0,0.0,0.0,0.0,0.0,0.0,0.0,0.0,0.0,0.0,0.0,0.0,0.0,0.0,0.0,0.0,0.0,0.0,0.0,0.0,0.0,0.0,0.0,0.0,0.0,0.0,0.0,0.0,0.0,0.0,0.0,0.0,0.0,0.0,0.0,0.0,0.0,0.0,0.0,0.0,0.0,0.0,0.0,0.0,0.0,0.0,0.0,0.0,0.0,0.0,0.0,0.0,0.0,0.0,0.0,0.0,0.0,0.0,0.0,0.0,0.0,0.0,0.0,0.0,0.0,0.0,0.0,0.0,0.0,0.0,0.0,0.0,0.0,0.0,0.0,0.0,0.0,0.0,0.0,0.0,0.0,0.0,0.0,0.0,0.0,0.0,0.0,0.0,0.0,0.0,0.0,0.0,0.0,0.0,0.0,0.0,0.0,0.0,0.0,0.0,0.0,0.0,0.0,4.842,4.9227,5.0193,5.1361,5.1529,5.1848,0.0,0.0,0.0,0.0,0.0,0.0,0.0,0.0,0.0,0.0,0.0,0.0,0.0,0.0,0.0,0.0,0.0,0.0,0.0,0.0,0.0,0.0,0.0,0.0,0.0,0.0,0.0,0.0,0.0,0.0,0.0,0.0,0.0,0.0,0.0,0.0,0.0,0.0,0.0,0.0,0.0,0.0,0.0,0.0,0.0,0.0,0.0,0.0,0.0,0.0,0.0,0.0,0.0,0.0,0.0,0.0,0.0,0.0,0.0,0.0,0.0,0.0,0.0,0.0,0.0,0.0,0.0,0.0,0.0,0.0,0.0,0.0,0.0,0.0,0.0,0.0,0.0,0.0,0.0,0.0,0.0,0.0,0.0,0.0,0.0,0.0,0.0,0.0,0.0,0.0,0.0,0.0,0.0,0.0,0.0,0.0,0.0,0.0,0.0,0.0,0.0,0.0,0.0,0.0,0.0,0.0,0.0,0.0,0.0,4.7765,4.9009,4.9966,5.0575,5.1176,5.1701,0.0,0.0,0.0,0.0,0.0,0.0,0.0,0.0,0.0,0.0,0.0,0.0,0.0,0.0,0.0,0.0,0.0,0.0,0.0,0.0,0.0,0.0,0.0,0.0,0.0,0.0,0.0,0.0,0.0,0.0,0.0,0.0,0.0,0.0,0.0,0.0,0.0,0.0,0.0,0.0,0.0,0.0,0.0,0.0,0.0,0.0,0.0,0.0,0.0,0.0,0.0,0.0,0.0,0.0,0.0,0.0,0.0,0.0,0.0,0.0,0.0,0.0,0.0,0.0,0.0,0.0,0.0,0.0,0.0,0.0,0.0,0.0,0.0,0.0,0.0,0.0,0.0,0.0,0.0,0.0,0.0,0.0,0.0,0.0,0.0,0.0,0.0,0.0,0.0,0.0,0.0,0.0,0.0,0.0,0.0,0.0,0.0,0.0,0.0,0.0,0.0,0.0,0.0,0.0,0.0,0.0,0.0,0.0,0.0,4.7605,0.0,4.9708,0.0,5.0768,5.1398,0.0,0.0,0.0,0.0,0.0,0.0,0.0,0.0,0.0,0.0,0.0,0.0,0.0,0.0,0.0,0.0,0.0,0.0,0.0,0.0,0.0,0.0,0.0,0.0,0.0,0.0,0.0,0.0,0.0,0.0,0.0,0.0,0.0,0.0,0.0,0.0,0.0,0.0,0.0,0.0,0.0,0.0,0.0,0.0,0.0,0.0,0.0,0.0,0.0,0.0,0.0,0.0,0.0,0.0,0.0,0.0,0.0,0.0,0.0,0.0,0.0,0.0,0.0,0.0,0.0,0.0,0.0,0.0,0.0,0.0,0.0,0.0,0.0,0.0,0.0,0.0,0.0,0.0,0.0,0.0,0.0,0.0,0.0,0.0,0.0,0.0,0.0,0.0,0.0,0.0,0.0,0.0,0.0,0.0,0.0,0.0,0.0,0.0,0.0,0.0,0.0,0.0,0.0,0.0,0.0,0.0,0.0,0.0,4.6647,4.8229,4.8962,4.9641,4.9942,5.0502,5.1052,0.0,0.0,0.0,0.0,0.0,0.0,0.0,0.0,0.0,0.0,0.0,0.0,0.0,0.0,0.0,0.0,0.0,0.0,0.0,0.0,0.0,0.0,0.0,0.0,0.0,0.0,0.0,0.0,0.0,0.0,0.0,0.0,0.0,0.0,0.0,0.0,0.0,0.0,0.0,0.0,0.0,0.0,0.0,0.0,0.0,0.0,0.0,0.0,0.0,0.0,0.0,0.0,0.0,0.0,0.0,0.0,0.0,0.0,0.0,0.0,0.0,0.0,0.0,0.0,0.0,0.0,0.0,0.0,0.0,0.0,0.0,0.0,0.0,0.0,0.0,0.0,0.0,0.0,0.0,0.0,0.0,0.0,0.0,0.0,0.0,0.0,0.0,0.0,0.0,0.0,0.0,0.0,0.0,0.0,0.0,0.0,0.0,0.0,0.0,0.0,0.0,0.0,0.0,0.0,0.0,0.0,0.0,0.0,0.0,5.0525,5.1661,5.2213,5.1953,5.2468,5.2586,0.0,0.0,0.0,0.0,0.0,0.0,0.0,0.0,0.0,0.0,0.0,0.0,0.0,0.0,0.0,0.0,0.0,0.0,0.0,0.0,0.0,0.0,0.0,0.0,0.0,0.0,0.0,0.0,0.0,0.0,0.0,0.0,0.0,0.0,0.0,0.0,0.0,0.0,0.0,0.0,0.0,0.0,0.0,0.0,0.0,0.0,0.0,0.0,0.0,0.0,0.0,0.0,0.0,0.0,0.0,0.0,0.0,0.0,0.0,0.0,0.0,0.0,0.0,0.0,0.0,0.0,0.0,0.0,0.0,0.0,0.0,0.0,0.0,0.0,0.0,0.0,0.0,0.0,0.0,0.0,0.0,0.0,0.0,0.0,0.0,0.0,0.0,0.0,0.0,0.0,0.0,0.0,0.0,0.0,0.0,0.0,0.0,0.0,0.0,0.0,0.0,0.0,0.0,0.0,0.0,0.0,0.0,0.0,0.0,5.6359,5.6132,5.6164,5.6288,5.5966,5.5003,5.352,0.0,0.0,0.0,0.0,0.0,0.0,0.0,0.0,0.0,0.0,0.0,0.0,0.0,0.0,0.0,0.0,0.0,0.0,0.0,0.0,0.0,0.0,0.0,0.0,0.0,0.0,0.0,0.0,0.0,0.0,0.0,0.0,0.0,0.0,0.0,0.0,0.0,0.0,0.0,0.0,0.0,0.0,0.0,0.0,0.0,0.0,0.0,0.0,0.0,0.0,0.0,0.0,0.0,0.0,0.0,0.0,0.0,0.0,0.0,0.0,0.0,0.0,0.0,0.0,0.0,0.0,0.0,0.0,0.0,0.0,0.0,0.0,0.0,0.0,0.0,0.0,0.0,0.0,0.0,0.0,0.0,0.0,0.0,0.0,0.0,0.0,0.0,0.0,0.0,0.0,0.0,0.0,0.0,0.0,0.0,0.0,0.0,0.0,0.0,0.0,0.0,0.0,0.0,0.0,0.0,0.0,0.0,0.0,6.5164,6.2396,6.1363,6.2293,6.0452,5.8315,0.0,0.0,0.0,0.0,0.0,0.0,0.0,0.0,0.0,0.0,0.0,0.0,0.0,0.0,0.0,0.0,0.0,0.0,0.0,0.0,0.0,0.0,0.0,0.0,0.0,0.0,0.0,0.0,0.0,0.0,0.0,0.0,0.0,0.0,0.0,0.0,0.0,0.0,0.0,0.0,0.0,0.0,0.0,0.0,0.0,0.0,0.0,0.0,0.0,0.0,0.0,0.0,0.0,0.0,0.0,0.0,0.0,0.0,0.0,0.0,0.0,0.0,0.0,0.0,0.0,0.0,0.0,0.0,0.0,0.0,0.0,0.0,0.0,0.0,0.0,0.0,0.0,0.0,0.0,0.0,0.0,0.0,0.0,0.0,0.0,0.0,0.0,0.0,0.0,0.0,0.0,0.0,0.0,0.0,0.0,0.0,0.0,0.0,0.0,0.0,0.0,0.0,0.0,0.0,0.0,0.0,0.0,0.0,0.0,7.1839,7.1721,6.966,6.6073,6.5039,6.2435,0.0,0.0,0.0,0.0,0.0,0.0,0.0,0.0,0.0,0.0,0.0,0.0,0.0,0.0,0.0,0.0,0.0,0.0,0.0,0.0,0.0,0.0,0.0,0.0,0.0,0.0,0.0,0.0,0.0,0.0,0.0,0.0,0.0,0.0,0.0,0.0,0.0,0.0,0.0,0.0,0.0,0.0,0.0,0.0,0.0,0.0,0.0,0.0,0.0,0.0,0.0,0.0,0.0,0.0,0.0,0.0,0.0,0.0,0.0,0.0,0.0,0.0,0.0,0.0,0.0,0.0,0.0,0.0,0.0,0.0,0.0,0.0,0.0,0.0,0.0,0.0,0.0,0.0,0.0,0.0,0.0,0.0,0.0,0.0,0.0,0.0,0.0,0.0,0.0,0.0,0.0,0.0,0.0,0.0,0.0,0.0,0.0,0.0,0.0,0.0,0.0,0.0,0.0,0.0,0.0,0.0,0.0,0.0,6.8517,7.597,7.7362,7.6289,7.2654,7.0579,6.6896,0.0,0.0,0.0,0.0,0.0,0.0,0.0,0.0,0.0,0.0,0.0,0.0,0.0,0.0,0.0,0.0,0.0,0.0,0.0,0.0,0.0,0.0,0.0,0.0,0.0,0.0,0.0,0.0,0.0,0.0,0.0,0.0,0.0,0.0,0.0,0.0,0.0,0.0,0.0,0.0,0.0,0.0,0.0,0.0,0.0,0.0,0.0,0.0,0.0,0.0,0.0,0.0,0.0,0.0,0.0,0.0,0.0,0.0,0.0,0.0,0.0,0.0,0.0,0.0,0.0,0.0,0.0,0.0,0.0,0.0,0.0,0.0,0.0,0.0,0.0,0.0,0.0,0.0,0.0,0.0,0.0,0.0,0.0,0.0,0.0,0.0,0.0,0.0,0.0,0.0,0.0,0.0,0.0,0.0,0.0,0.0,0.0,0.0,0.0,0.0,0.0,0.0,0.0,0.0,0.0,0.0,0.0,0.0,7.1508,7.7762,8.0221,8.1011,8.0114,7.6285,7.142,0.0,0.0,0.0,0.0,0.0,0.0,0.0,0.0,0.0,0.0,0.0,0.0,0.0,0.0,0.0,0.0,0.0,0.0,0.0,0.0,0.0,0.0,0.0,0.0,0.0,0.0,0.0,0.0,0.0,0.0,0.0,0.0,0.0,0.0,0.0,0.0,0.0,0.0,0.0,0.0,0.0,0.0,0.0,0.0,0.0,0.0,0.0,0.0,0.0,0.0,0.0,0.0,0.0,0.0,0.0,0.0,0.0,0.0,0.0,0.0,0.0,0.0,0.0,0.0,0.0,0.0,0.0,0.0,0.0,0.0,0.0,0.0,0.0,0.0,0.0,0.0,0.0,0.0,0.0,0.0,0.0,0.0,0.0,0.0,0.0,0.0,0.0,0.0,0.0,0.0,0.0,0.0,0.0,0.0,0.0,0.0,0.0,0.0,0.0,0.0,0.0,0.0,0.0,0.0,0.0,0.0,0.0,0.0,7.239,7.8504,8.0428,8.1515,8.178,7.9275,7.4595,0.0,0.0,0.0,0.0,0.0,0.0,0.0,0.0,0.0,0.0,0.0,0.0,0.0,0.0,0.0,0.0,0.0,0.0,0.0,0.0,0.0,0.0,0.0,0.0,0.0,0.0,0.0,0.0,0.0,0.0,0.0,0.0,0.0,0.0,0.0,0.0,0.0,0.0,0.0,0.0,0.0,0.0,0.0,0.0,0.0,0.0,0.0,0.0,6.727,0.0,0.0,0.0,0.0,0.0,0.0,0.0,0.0,0.0,0.0,0.0,0.0,0.0,0.0,0.0,0.0,0.0,0.0,0.0,0.0,0.0,0.0,0.0,0.0,0.0,0.0,0.0,0.0,0.0,0.0,0.0,0.0,0.0,0.0,0.0,0.0,0.0,0.0,0.0,0.0,0.0,0.0,0.0,0.0,0.0,0.0,0.0,0.0,0.0,0.0,0.0,0.0,0.0,0.0,0.0,0.0,0.0,0.0,0.0,7.4262,7.9928,8.1406,8.213,8.2215,8.0612,7.6636,0.0,0.0,0.0,0.0,0.0,0.0,0.0,0.0,0.0,0.0,0.0,0.0,0.0,0.0,0.0,0.0,0.0,0.0,0.0,0.0,0.0,0.0,0.0,0.0,0.0,0.0,0.0,0.0,0.0,0.0,0.0,0.0,0.0,0.0,0.0,0.0,0.0,0.0,0.0,0.0,0.0,0.0,0.0,0.0,0.0,0.0,0.0,0.0,0.0,0.0,0.0,0.0,0.0,0.0,0.0,0.0,0.0,0.0,0.0,0.0,0.0,0.0,0.0,0.0,0.0,0.0,0.0,0.0,0.0,0.0,0.0,0.0,0.0,0.0,0.0,0.0,0.0,0.0,0.0,0.0,0.0,0.0,0.0,0.0,0.0,0.0,0.0,0.0,0.0,0.0,0.0,0.0,0.0,0.0,0.0,0.0,0.0,0.0,0.0,0.0,0.0,0.0,0.0,0.0,0.0,0.0,0.0,7.1723,7.6351,8.1154,8.2349,8.2713,8.2287,8.1081,7.7794,7.2364,0.0,0.0,0.0,0.0,0.0,0.0,0.0,0.0,0.0,0.0,0.0,0.0,0.0,0.0,0.0,0.0,0.0,0.0,0.0,0.0,0.0,0.0,0.0,0.0,0.0,0.0,0.0,0.0,0.0,0.0,0.0,0.0,0.0,0.0,0.0,0.0,0.0,0.0,6.4536,6.7695,0.0,0.0,0.0,0.0,0.0,0.0,0.0,0.0,6.9756,0.0,0.0,0.0,0.0,0.0,0.0,0.0,0.0,0.0,0.0,0.0,0.0,0.0,0.0,0.0,0.0,0.0,0.0,0.0,0.0,0.0,0.0,0.0,0.0,0.0,0.0,0.0,0.0,0.0,0.0,0.0,0.0,0.0,0.0,0.0,0.0,0.0,0.0,0.0,0.0,0.0,0.0,0.0,0.0,0.0,0.0,0.0,0.0,0.0,0.0,0.0,0.0,0.0,0.0,0.0,0.0,6.7879,7.3331,7.7684,8.0759,8.2177,8.2713,8.2287,8.1081,7.8049,7.3191,0.0,0.0,0.0,0.0,0.0,0.0,0.0,0.0,0.0,0.0,0.0,0.0,0.0,0.0,0.0,0.0,0.0,0.0,0.0,0.0,0.0,0.0,0.0,0.0,0.0,0.0,0.0,0.0,0.0,0.0,0.0,0.0,0.0,0.0,0.0,0.0,0.0,0.0,0.0,7.0427,7.2302,0.0,0.0,0.0,0.0,0.0,0.0,0.0,0.0,7.2572,0.0,0.0,0.0,0.0,0.0,0.0,0.0,0.0,0.0,0.0,0.0,0.0,0.0,0.0,0.0,0.0,0.0,0.0,0.0,0.0,0.0,0.0,0.0,0.0,0.0,0.0,0.0,0.0,0.0,0.0,0.0,0.0,0.0,0.0,0.0,0.0,0.0,0.0,0.0,0.0,0.0,0.0,0.0,0.0,0.0,0.0,0.0,0.0,0.0,0.0,0.0,0.0,0.0,0.0,0.0,6.9667,7.4004,7.7955,8.115,8.1926,8.228,8.2251,8.0681,7.7502,0.0,0.0,0.0,0.0,0.0,0.0,0.0,0.0,0.0,0.0,0.0,0.0,0.0,0.0,0.0,0.0,0.0,0.0,0.0,0.0,0.0,0.0,0.0,0.0,0.0,0.0,0.0,0.0,0.0,0.0,0.0,0.0,0.0,0.0,0.0,0.0,0.0,0.0,0.0,0.0,7.267,7.454,7.451,0.0,0.0,0.0,0.0,0.0,0.0,7.4818,7.5126,0.0,0.0,0.0,0.0,0.0,0.0,0.0,0.0,0.0,0.0,0.0,0.0,0.0,0.0,0.0,0.0,0.0,0.0,0.0,0.0,0.0,0.0,0.0,0.0,0.0,0.0,0.0,0.0,0.0,0.0,0.0,0.0,0.0,0.0,0.0,0.0,0.0,0.0,0.0,0.0,0.0,0.0,0.0,0.0,0.0,0.0,0.0,0.0,0.0,0.0,0.0,0.0,0.0,0.0,0.0,7.1263,7.4691,7.8142,8.1764,8.1824,8.1812,8.207,8.0353,7.7057,0.0,0.0,0.0,0.0,0.0,0.0,0.0,0.0,0.0,0.0,0.0,0.0,0.0,0.0,0.0,0.0,0.0,0.0,0.0,0.0,0.0,0.0,0.0,0.0,0.0,0.0,0.0,0.0,0.0,0.0,0.0,0.0,0.0,0.0,0.0,0.0,0.0,0.0,0.0,0.0,0.0,7.6469,7.7258,7.6819,0.0,0.0,0.0,0.0,7.7384,7.7462,0.0,0.0,0.0,0.0,0.0,0.0,0.0,0.0,0.0,0.0,0.0,0.0,0.0,0.0,0.0,0.0,0.0,0.0,0.0,0.0,0.0,0.0,0.0,0.0,0.0,0.0,0.0,0.0,0.0,0.0,0.0,0.0,0.0,0.0,0.0,0.0,0.0,0.0,0.0,0.0,0.0,0.0,0.0,0.0,0.0,0.0,0.0,0.0,0.0,0.0,0.0,0.0,0.0,0.0,0.0,0.0,7.1581,7.5735,7.9352,8.204,8.1824,8.1633,8.1414,8.064,7.7377,0.0,0.0,0.0,0.0,0.0,0.0,0.0,0.0,0.0,0.0,0.0,0.0,0.0,0.0,0.0,0.0,0.0,0.0,0.0,0.0,0.0,0.0,0.0,0.0,0.0,0.0,0.0,0.0,0.0,0.0,0.0,0.0,0.0,0.0,0.0,0.0,0.0,0.0,0.0,0.0,0.0,7.8129,7.8893,7.8909,7.8781,0.0,0.0,7.8958,7.9835,7.9442,0.0,0.0,0.0,0.0,0.0,0.0,0.0,0.0,0.0,0.0,0.0,0.0,0.0,0.0,0.0,0.0,0.0,0.0,0.0,0.0,0.0,0.0,0.0,0.0,0.0,0.0,0.0,0.0,0.0,0.0,0.0,0.0,0.0,0.0,0.0,0.0,0.0,0.0,0.0,0.0,0.0,0.0,0.0,0.0,0.0,0.0,0.0,0.0,0.0,0.0,0.0,0.0,0.0,0.0,0.0,6.8734,7.2789,7.6531,7.9693,8.2076,8.1824,8.1597,8.1269,8.0677,7.745,0.0,0.0,0.0,0.0,0.0,0.0,0.0,0.0,0.0,0.0,0.0,0.0,0.0,0.0,0.0,0.0,0.0,0.0,0.0,0.0,0.0,0.0,0.0,0.0,0.0,0.0,0.0,0.0,0.0,0.0,0.0,0.0,0.0,0.0,0.0,0.0,0.0,0.0,0.0,0.0,0.0,0.0,8.1558,8.194,0.0,0.0,0.0,8.2205,8.3033,0.0,0.0,0.0,0.0,0.0,0.0,0.0,0.0,0.0,0.0,0.0,0.0,0.0,0.0,0.0,0.0,0.0,0.0,0.0,0.0,0.0,0.0,0.0,0.0,0.0,0.0,0.0,0.0,0.0,0.0,0.0,0.0,0.0,0.0,0.0,0.0,0.0,0.0,0.0,0.0,0.0,0.0,0.0,0.0,0.0,0.0,0.0,0.0,0.0,0.0,0.0,0.0,0.0,0.0,0.0,0.0,0.0,7.3756,7.6929,7.9776,8.2076,8.2117,8.196,8.1629,8.0891,0.0,0.0,0.0,0.0,0.0,0.0,0.0,0.0,0.0,0.0,0.0,0.0,0.0,0.0,0.0,0.0,0.0,0.0,0.0,0.0,0.0,0.0,0.0,0.0,0.0,0.0,0.0,6.0429,0.0,0.0,0.0,0.0,0.0,0.0,0.0,0.0,0.0,0.0,0.0,0.0,0.0,0.0,7.9443,8.3695,8.4441,8.4646,0.0,0.0,8.5341,8.5766,8.4596,8.3475,0.0,0.0,0.0,0.0,0.0,0.0,0.0,0.0,0.0,0.0,0.0,0.0,0.0,0.0,0.0,0.0,0.0,0.0,0.0,0.0,0.0,0.0,0.0,0.0,0.0,0.0,0.0,0.0,0.0,0.0,0.0,0.0,0.0,0.0,0.0,0.0,0.0,0.0,0.0,0.0,0.0,0.0,0.0,0.0,0.0,0.0,0.0,0.0,0.0,0.0,0.0,0.0,0.0,0.0,0.0,7.3722,7.6964,7.9811,8.2076,8.2737,8.2866,8.2676,8.1386,7.8473,0.0,0.0,0.0,0.0,0.0,0.0,0.0,0.0,0.0,0.0,0.0,0.0,0.0,0.0,0.0,0.0,0.0,0.0,0.0,0.0,0.0,0.0,0.0,0.0,0.0,0.0,0.0,0.0,0.0,0.0,0.0,0.0,0.0,0.0,0.0,0.0,0.0,0.0,0.0,0.0,0.0,8.0172,8.4416,8.5629,8.6338,0.0,0.0,8.8188,8.7456,8.6662,8.5574,8.3903,0.0,0.0,0.0,0.0,0.0,0.0,0.0,0.0,0.0,0.0,0.0,0.0,0.0,0.0,0.0,0.0,0.0,0.0,0.0,0.0,0.0,0.0,0.0,0.0,0.0,0.0,0.0,0.0,0.0,0.0,0.0,0.0,0.0,0.0,0.0,0.0,0.0,0.0,0.0,0.0,0.0,0.0,0.0,0.0,0.0,0.0,0.0,0.0,0.0,0.0,0.0,0.0,0.0,7.0305,7.5172,7.8361,8.1012,8.2861,8.3528,8.3772,8.3514,8.2764,8.0865,0.0,0.0,0.0,0.0,0.0,0.0,0.0,0.0,0.0,0.0,0.0,0.0,0.0,0.0,0.0,0.0,0.0,0.0,0.0,0.0,0.0,0.0,0.0,0.0,0.0,0.0,0.0,0.0,7.0809,7.2322,7.2707,0.0,0.0,0.0,0.0,0.0,0.0,0.0,0.0,0.0,0.0,8.2208,8.5863,8.7487,0.0,0.0,8.9069,8.9182,8.8838,8.7222,8.5834,8.5214,8.1798,0.0,0.0,0.0,0.0,0.0,0.0,0.0,0.0,0.0,0.0,0.0,0.0,0.0,0.0,0.0,0.0,0.0,0.0,0.0,0.0,0.0,0.0,0.0,0.0,0.0,0.0,0.0,0.0,0.0,0.0,0.0,0.0,0.0,0.0,0.0,0.0,0.0,0.0,0.0,0.0,0.0,0.0,0.0,0.0,0.0,0.0,0.0,0.0,0.0,0.0,0.0,0.0,7.1591,7.659,8.0053,8.2488,8.388,8.5021,8.5443,8.5258,8.4646,8.3328,0.0,0.0,0.0,0.0,0.0,0.0,0.0,0.0,0.0,0.0,0.0,0.0,0.0,0.0,0.0,0.0,0.0,0.0,0.0,0.0,0.0,0.0,0.0,0.0,0.0,0.0,0.0,0.0,7.3684,7.4302,7.2397,0.0,0.0,0.0,0.0,0.0,0.0,0.0,0.0,0.0,0.0,8.4122,8.7386,8.9304,9.0302,9.0263,9.0493,9.0301,8.9228,8.7619,8.6317,8.5894,0.0,0.0,0.0,0.0,0.0,0.0,0.0,0.0,0.0,0.0,0.0,0.0,0.0,0.0,0.0,0.0,0.0,0.0,0.0,0.0,0.0,0.0,0.0,0.0,0.0,0.0,0.0,0.0,0.0,0.0,4.115,0.0,0.0,0.0,0.0,0.0,0.0,0.0,0.0,0.0,0.0,0.0,0.0,0.0,0.0,0.0,0.0,0.0,0.0,0.0,0.0,0.0,0.0,7.272,7.7789,8.1782,8.4302,8.5218,8.7285,8.8325,8.8133,8.6893,8.553,8.4076,0.0,0.0,0.0,0.0,0.0,0.0,0.0,0.0,0.0,0.0,0.0,0.0,0.0,0.0,0.0,0.0,0.0,0.0,0.0,0.0,0.0,0.0,0.0,0.0,0.0,0.0,7.4268,7.6378,7.576,0.0,0.0,0.0,0.0,0.0,0.0,0.0,0.0,0.0,0.0,8.2438,8.5741,8.8882,9.0876,9.1872,9.1663,9.2435,9.1824,8.8405,8.7874,8.7343,0.0,0.0,0.0,0.0,0.0,0.0,0.0,0.0,0.0,0.0,0.0,0.0,0.0,0.0,0.0,0.0,0.0,0.0,0.0,0.0,0.0,0.0,0.0,0.0,0.0,0.0,0.0,3.98,4.1335,0.0,0.0,0.0,0.0,0.0,0.0,0.0,0.0,0.0,0.0,0.0,6.1172,6.2557,0.0,0.0,0.0,0.0,0.0,0.0,0.0,0.0,0.0,0.0,0.0,0.0,7.4239,7.9373,8.296,8.5656,8.752,8.9361,9.019,9.0033,8.944,8.7637,8.4417,0.0,0.0,0.0,0.0,0.0,0.0,0.0,0.0,0.0,0.0,0.0,0.0,0.0,0.0,0.0,0.0,0.0,0.0,0.0,0.0,0.0,0.0,0.0,0.0,0.0,7.3193,0.0,0.0,0.0,0.0,0.0,0.0,0.0,0.0,0.0,0.0,0.0,8.0059,8.2591,8.5207,8.7424,8.8985,9.004,9.0631,0.0,0.0,0.0,0.0,0.0,0.0,0.0,0.0,0.0,0.0,0.0,0.0,0.0,0.0,8.1958,8.024,7.9857,8.0043,8.0921,0.0,0.0,0.0,0.0,0.0,0.0,0.0,0.0,0.0,0.0,0.0,0.0,0.0,0.0,0.0,0.0,4.6103,0.0,0.0,0.0,0.0,0.0,0.0,0.0,0.0,6.2505,6.3811,6.5063,6.6288,6.7026,0.0,6.8221,6.7685,0.0,0.0,0.0,0.0,0.0,0.0,0.0,0.0,7.6712,8.2208,8.5265,8.7909,8.9987,9.1571,9.2354,9.2409,9.2067,9.0099,8.6463,8.51,8.2872,0.0,0.0,0.0,0.0,0.0,0.0,0.0,0.0,0.0,0.0,0.0,0.0,0.0,0.0,0.0,0.0,0.0,0.0,0.0,0.0,0.0,0.0,0.0,7.5586,0.0,0.0,0.0,0.0,0.0,0.0,0.0,0.0,0.0,7.7067,7.9893,8.2531,8.448,8.6726,8.8346,8.8699,0.0,0.0,0.0,0.0,0.0,0.0,0.0,8.8338,8.9272,8.8654,8.8291,8.8847,8.816,8.7847,8.8775,0.0,0.0,8.4691,8.3997,8.4176,8.5013,8.5068,8.5052,8.5177,8.5107,8.5235,0.0,0.0,0.0,0.0,0.0,0.0,0.0,0.0,4.3487,4.7361,0.0,5.0716,0.0,0.0,0.0,0.0,0.0,5.9007,0.0,0.0,6.5111,6.6786,6.8864,7.0217,7.1143,7.1726,7.415,7.5405,7.5337,6.9654,0.0,0.0,0.0,0.0,0.0,0.0,8.0139,8.6222,8.8876,9.0891,9.2519,9.3932,9.4955,9.5433,9.4699,9.2971,9.0281,8.8921,8.6961,8.3979,8.0893,0.0,0.0,0.0,0.0,0.0,0.0,0.0,0.0,0.0,0.0,0.0,0.0,0.0,0.0,0.0,0.0,0.0,0.0,0.0,0.0,7.5258,0.0,0.0,0.0,0.0,0.0,0.0,0.0,0.0,0.0,0.0,8.0258,8.2342,8.4126,8.4924,0.0,0.0,0.0,0.0,9.0684,9.0325,9.0982,9.0888,8.8928,8.9552,9.0454,9.12,0.0,0.0,9.1956,9.2194,9.2617,9.3449,9.3667,9.2797,8.9847,8.9193,8.9251,8.9839,8.9919,9.0159,9.0721,9.0653,9.0792,3.2537,0.0,0.0,0.0,0.0,3.5074,3.815,4.1106,4.5678,4.9204,5.1967,5.3576,0.0,0.0,0.0,0.0,0.0,0.0,6.4626,6.679,6.8101,6.9351,7.0668,7.209,7.3276,7.4627,7.6313,7.8167,7.9845,7.8283,7.6298,7.3992,0.0,0.0,0.0,0.0,8.3825,8.9091,9.1788,9.4059,9.6201,9.7765,9.8464,9.8358,9.6196,9.4189,9.2523,9.0659,8.852,8.6107,8.4054,0.0,0.0,0.0,0.0,0.0,0.0,0.0,0.0,0.0,0.0,0.0,0.0,0.0,0.0,0.0,0.0,0.0,0.0,0.0,7.8129,7.7903,7.7426,0.0,0.0,0.0,0.0,0.0,0.0,0.0,0.0,0.0,8.4625,8.6026,8.6845,0.0,0.0,9.0449,8.9721,9.0437,9.1225,9.159,9.1246,0.0,0.0,9.1187,9.1821,9.3451,9.5194,9.6562,9.6884,9.7003,9.7252,9.7742,9.7891,9.7604,9.6816,9.5186,9.42,9.43,9.4651,9.4999,9.5172,9.5138,9.5254,3.5492,3.3171,3.2896,3.358,3.4777,3.7719,4.066,4.3575,4.7378,5.1021,5.4468,5.5867,5.8525,6.1647,6.2399,0.0,0.0,0.0,6.7201,6.8708,7.0015,7.1297,7.2581,7.4145,7.5621,7.7109,7.901,8.1048,8.3195,8.4598,8.4408,8.2749,0.0,0.0,8.4135,8.5781,8.8877,9.3458,9.5704,9.7557,9.9317,10.006,10.0254,9.979,9.7715,9.5938,9.4664,9.2556,9.0693,8.9079,8.678,8.4238,0.0,0.0,0.0,0.0,0.0,0.0,0.0,0.0,0.0,0.0,0.0,6.5127,6.7774,0.0,0.0,0.0,7.5792,7.8666,8.1958,8.0432,0.0,0.0,0.0,0.0,0.0,0.0,0.0,8.196,8.347,8.535,8.796,8.9579,9.0117,8.9236,9.0699,9.1617,9.0991,0.0,9.2268,9.2902,9.2737,9.2821,9.3705,9.4049,9.4924,9.6927,9.8942,10.0482,10.082,10.0982,10.1167,10.1347,10.1406,10.1522,10.1542,10.0559,9.9253,9.7885,9.7832,9.8138,9.8423,9.8385,9.8476,3.8526,3.6908,3.587,3.6427,3.7794,4.0313,4.3145,4.5984,4.8923,5.2829,5.7021,5.7845,6.1014,6.5775,6.7267,0.0,6.6805,6.8284,6.9164,6.9909,7.1317,7.2922,7.4721,7.6396,7.7916,7.9448,8.2128,8.4184,8.5716,8.8855,9.1109,9.2372,8.8097,8.7305,9.0135,9.1869,9.4844,9.8928,10.0299,10.1315,10.2024,10.1415,10.0944,10.0624,9.9274,9.7973,9.6658,9.4656,9.3146,9.2255,8.9213,8.6551,8.4432,0.0,0.0,0.0,0.0,0.0,0.0,0.0,0.0,0.0,0.0,0.0,0.0,0.0,0.0,0.0,8.0149,0.0,8.4213,8.2917,0.0,0.0,0.0,8.06,8.155,8.2463,8.3825,8.6058,0.0,0.0,9.0638,9.2885,9.3751,9.202,9.2206,9.2517,9.2391,9.3136,9.3854,9.483,9.5396,9.6176,9.7137,9.8054,9.9262,10.091,10.223,10.3148,10.3899,10.4216,10.4317,10.4493,10.4581,10.4705,10.4705,10.5195,10.4803,10.1315,10.0464,10.0464,10.1045,10.1152,10.1294,4.0932,4.0798,4.0293,4.03,4.0913,4.3466,4.5797,4.7909,5.1108,5.3997,5.6613,5.8837,6.1685,6.5193,6.6789,6.7689,6.7752,6.9559,7.0791,7.1768,7.2662,7.4332,7.6562,7.7832,7.9953,8.2559,8.4347,8.6705,8.9594,9.1623,9.444,9.7874,9.7885,9.7514,9.703,9.8227,10.0606,10.4159,10.4501,10.4809,10.5097,10.46,10.3899,10.2978,10.1045,9.9338,9.7981,9.6366,9.4497,9.2421,9.1414,8.9411,8.6095,8.2593,0.0,0.0,0.0,0.0,0.0,0.0,0.0,0.0,0.0,7.0084,7.3861,0.0,7.8449,0.0,8.2561,8.4747,8.6528,8.5916,0.0,0.0,8.5683,8.6199,8.6422,8.7929,8.9332,9.0441,9.1482,9.2747,9.4263,9.5321,9.6653,9.8245,9.6919,9.5772,9.5744,9.6546,9.7657,9.9001,9.9382,10.0121,10.1427,10.2572,10.3343,10.3822,10.4743,10.5701,10.6565,10.6744,10.6998,10.7628,10.7844,10.7909,10.8037,10.8327,10.8138,10.7144,10.6011,10.5082,10.5308,10.5246,10.5322,4.3434,4.4774,4.3764,4.4016,4.5298,4.6143,4.7465,4.9115,5.2173,5.461,5.6619,6.0294,6.2991,6.5319,6.7046,6.8117,6.9006,7.0588,7.185,7.3047,7.4385,7.5917,7.7798,7.9815,8.2047,8.4593,8.6678,8.9185,9.2014,9.4296,9.7369,10.1102,10.2991,10.4377,10.5132,10.5177,10.6288,10.8475,10.8538,10.8421,10.8179,10.6681,10.5441,10.458,10.2096,10.0218,9.9123,9.726,9.5541,9.4069,9.3029,9.1212,8.8489,8.5207,8.1811,0.0,0.0,0.0,0.0,0.0,0.0,0.0,0.0,0.0,0.0,0.0,8.1845,8.5292,8.6838,8.8354,9.018,9.0091,8.9897,8.9999,9.0897,9.162,9.2093,9.3102,9.4173,9.5268,9.6033,9.704,9.8337,9.9128,10.0283,10.2242,10.1607,10.0711,9.9941,10.0195,10.1009,10.2242,10.2466,10.3133,10.4809,10.5882,10.673,10.7068,10.7586,10.8217,10.908,10.9231,10.9449,10.993,11.0005,11.0043,11.0177,11.0177,11.0177,11.0064,10.9462,10.8662,10.7935,10.7457,10.7128,4.5734,4.8005,4.6322,4.701,4.9244,4.8357,4.8699,5.0297,5.2851,5.5181,5.7503,6.1546,6.4269,6.5824,6.7547,6.8811,6.9938,7.1328,7.2794,7.4194,7.598,7.7682,7.9067,8.1837,8.4167,8.6132,8.8946,9.1468,9.3715,9.6946,10.0057,10.305,10.5736,10.9007,11.2464,11.188,11.1735,11.2232,11.2243,11.1812,11.0874,10.8213,10.6473,10.5591,10.2788,10.0838,9.9985,9.7726,9.6313,9.6017,9.4212,9.2451,9.0837,8.7718,8.4581,0.0,7.8283,0.0,0.0,0.0,0.0,0.0,0.0,0.0,0.0,8.2215,8.5736,9.095,9.1708,9.2616,9.4271,9.4562,9.4734,9.5176,9.6024,9.6947,9.775,9.7937,9.86,10.0021,10.0852,10.1675,10.2527,10.3319,10.4142,10.5146,10.5851,10.5807,10.4659,10.421,10.436,10.5076,10.5263,10.6188,10.7492,10.8562,10.9268,10.9875,10.995,11.04,11.1151,11.1301,11.1376,11.1489,11.1526,11.1526,11.1526,11.1526,11.1526,11.1526,11.1451,11.092,10.9629,10.8765,10.8104,4.6211,4.6986,4.6322,4.7112,4.89,5.0242,5.117,5.2025,5.4111,5.7066,6.03,6.1993,6.3915,6.5981,6.763,6.8734,6.9899,7.2012,7.3705,7.5235,7.6638,7.8667,8.1225,8.3158,8.5353,8.7806,9.0468,9.3331,9.6264,9.9044,10.2393,10.6083,10.8819,11.1431,11.4085,0.0,0.0,0.0,11.5268,11.4018,11.1487,11.0378,10.8637,10.6058,10.3556,0.0,10.0195,9.8297,9.6831,9.5806,9.5028,0.0,0.0,0.0,0.0,0.0,0.0,0.0,0.0,0.0,0.0,0.0,8.4246,8.4282,8.3696,8.7922,9.1657,9.3961,9.5049,9.6065,9.7204,9.8046,9.8553,9.8693,10.0133,10.1172,10.1425,10.2052,10.2708,10.2943,10.3664,10.4421,10.5418,10.6137,10.7118,10.853,10.9124,10.9425,10.9687,10.8418,10.8043,10.8793,10.9243,11.0025,11.0475,11.0695,11.0776,11.0822,11.0822,11.1088,11.1617,11.1804,11.2066,11.2589,11.2739,11.2776,11.2776,11.2739,11.2701,11.2702,11.2776,11.2363,11.1183,11.0695,11.062,4.741,0.0,4.7618,4.8465,0.0,5.1089,5.2403,5.3528,5.5409,5.8159,6.1163,6.261,6.4207,6.589,6.7391,6.904,7.0792,7.2622,7.4594,7.6424,7.8116,7.9897,8.1979,8.4648,8.6944,8.9254,9.2319,9.5193,9.7971,10.1113,10.4246,10.7302,11.0436,11.3032,11.5236,11.7934,11.8831,11.7987,11.7337,11.6105,11.424,11.2473,11.0446,10.8156,10.5758,0.0,0.0,0.0,0.0,0.0,0.0,0.0,0.0,0.0,0.0,9.0371,8.9108,8.8176,8.7777,8.8162,8.883,8.9745,9.1904,9.1981,8.9057,9.2828,9.6055,9.7701,9.8897,9.9946,10.0938,10.1893,10.2445,10.2584,10.4049,10.5063,10.5138,10.5776,10.6414,10.6827,10.7173,10.7774,10.8667,10.9012,10.9612,11.0507,11.0995,11.1371,11.1671,11.0845,11.0207,11.062,11.1371,11.1859,11.1793,11.2131,11.2246,11.2139,11.2028,11.2104,11.2403,11.2478,11.2664,11.3038,11.3113,11.3113,11.3113,11.3113,11.3113,11.3113,11.3113,11.2964,11.2287,11.1875,11.1575,4.8657,4.9585,4.918,4.9699,5.1113,5.1811,5.309,5.5114,0.0,0.0,0.0,6.3291,6.4857,6.6045,6.7404,6.9359,7.165,7.3259,7.5235,7.7675,7.9465,8.122,8.2837,8.6201,8.8777,9.0837,9.4218,9.7161,9.9675,10.3028,10.5797,10.7951,11.1432,11.4243,11.6414,11.8976,12.015,12.0006,11.8823,11.7825,11.6981,11.4289,11.2067,11.0481,10.8223,10.5936,10.3564,10.2558,10.1642,10.0706,10.0054,9.9516,9.9074,9.8097,9.7081,9.6028,9.5342,9.4652,9.4132,9.4726,9.5351,9.5707,9.8768,9.9046,9.524,9.7614,10.003,10.1696,10.2858,10.3941,10.4933,10.5724,10.6315,10.6478,10.7672,10.8446,10.8483,10.8915,10.9418,11.0094,11.0132,11.0545,11.1258,11.1408,11.1596,11.1784,11.2202,11.2652,11.2577,11.2089,11.1709,11.1751,11.2277,11.2581,11.2511,11.2775,11.3225,11.2963,11.2925,11.3074,11.3224,11.3185,11.3259,11.352,11.3296,11.3222,11.3185,11.311,11.2998,11.3037,11.3037,11.2961,11.2886,11.2514,11.2066,4.9744,5.0491,4.9735,5.0104,5.1132,5.2118,5.4484,5.7562,5.7977,5.9534,6.2047,6.3639,6.54,6.7164,6.9091,7.0681,7.1931,7.3735,7.5676,7.7754,8.0157,8.2706,8.5252,8.8046,9.062,9.2789,9.6416,9.9191,10.1251,10.4818,10.7519,10.9257,11.2092,11.5089,11.8018,11.9516,12.0359,12.0745,11.9669,11.8404,11.7094,11.5541,11.3611,11.1383,10.976,10.7968,10.6141,10.5202,10.4455,10.4005,10.3559,10.3092,10.2697,10.2075,10.1582,10.1219,10.0801,10.0511,10.0511,10.1143,10.1934,10.2969,10.4864,10.4544,10.15,10.2839,10.4499,10.5709,10.6692,10.7622,10.8515,10.927,10.9723,10.9836,11.0536,11.0968,11.0893,11.0945,11.0995,11.1146,11.1108,11.1446,11.2159,11.231,11.2502,11.3065,11.3143,11.3185,11.3075,11.3221,11.329,11.3146,11.3221,11.3149,11.2964,11.3076,11.3037,11.2884,11.2807,11.2952,11.3389,11.3501,11.3687,11.4505,11.391,11.3612,11.3538,11.3055,11.2683,11.2571,11.2571,11.2571,11.2571,11.2423,11.2427,5.048,5.056,5.0285,5.0773,5.2018,5.3633,5.5366,5.7546,5.8543,6.0222,6.2426,6.4251,6.5964,6.7344,6.9071,7.0838,7.2251,7.4391,7.6492,7.8869,8.1208,8.3678,8.6384,8.9438,9.2034,9.4322,9.7979,10.0671,10.2726,10.595,10.8462,11.0178,11.3888,11.7182,11.9555,12.0753,12.1568,12.2113,12.066,11.9641,11.9141,11.7394,11.579,11.4317,11.2838,11.121,10.951,10.8969,10.8166,10.7013,10.7054,10.6763,10.6062,10.6434,10.6575,10.6362,10.654,10.661,10.6522,10.6752,10.7322,10.8308,10.9068,10.9144,10.8107,10.8236,10.8614,10.9129,10.9947,11.0652,11.103,11.1324,11.1488,11.1488,11.2014,11.2269,11.2345,11.2487,11.261,11.261,11.2539,11.2618,11.2956,11.2848,11.2961,11.3299,11.3262,11.3188,11.3113,11.3262,11.3299,11.3262,11.3262,11.3188,11.2961,11.2961,11.2807,11.2492,11.2492,11.2598,11.2761,11.2798,11.2984,11.3243,11.3021,11.2835,11.2798,11.2502,11.2243,11.2206,11.2206,11.2206,11.2206,11.2206,11.2368,5.1128,5.0608,5.0743,5.133,5.2607,5.4714,5.6193,5.7331,5.8935,6.0826,6.2852,6.4782,6.6112,6.7487,6.9255,7.1087,7.3012,7.5088,7.7426,7.9903,8.2414,8.4848,8.746,9.0683,9.3581,9.6044,9.9417,10.2063,10.4203,10.7209,10.9937,11.2302,11.6147,11.8946,12.0714,12.1679,12.2521,12.3071,12.187,12.1219,12.1153,11.9228,11.7909,11.7248,11.617,11.4719,11.3118,11.2908,11.2098,11.0533,11.0753,11.0556,10.9833,11.0611,11.1029,11.0891,11.1293,11.1526,11.143,11.1417,11.1785,11.2625,11.2839,11.3167,11.363,11.3251,11.2566,11.2109,11.2354,11.2886,11.3244,11.3237,11.3214,11.3341,11.3655,11.3949,11.3844,11.3948,11.3999,11.389,11.3596,11.3373,11.3337,11.3188,11.3113,11.3,11.3037,11.3037,11.2961,11.2884,11.2884,11.2884,11.2961,11.2961,11.2729,11.265,11.2492,11.2206,11.2087,11.2272,11.2253,11.2206,11.2317,11.2623,11.2391,11.2401,11.2206,11.1985,11.1911,11.1995,11.1995,11.1911,11.1995,11.1995,11.1958,5.1028,5.0672,5.0644,5.1348,5.2645,5.503,5.6456,5.7433,5.9586,6.1394,6.2565,6.4234,6.5864,6.757,6.9961,7.1926,7.3584,7.6039,7.8407,8.0528,8.3354,8.6198,8.9032,9.205,9.4954,9.7922,10.083,10.3422,10.5549,10.9149,11.2703,11.6296,11.8179,11.954,12.0714,12.1717,12.2559,12.3223,12.3509,12.3137,12.2043,12.0712,11.9628,11.9006,11.9015,11.8253,11.6562,11.6462,11.5926,11.498,11.4742,11.4563,11.4299,11.4215,11.4084,11.3891,11.3846,11.4027,11.4487,11.4546,11.4832,11.5637,11.6226,11.6543,11.6735,11.7186,11.6449,11.4508,11.3763,11.4405,11.5697,11.5764,11.5728,11.6091,11.6234,11.6371,11.5937,11.5419,11.4828,11.4571,11.3897,11.3337,11.3188,11.3037,11.2961,11.2807,11.2729,11.265,11.2412,11.2331,11.2287,11.2206,11.2412,11.2571,11.2331,11.225,11.2206,11.1958,11.1874,11.2095,11.2417,11.2712,11.3093,11.2688,11.3081,11.2675,11.2565,11.2465,11.1911,11.1826,11.1826,11.1874,11.1911,11.1826,11.1874,5.1594,5.0824,5.0973,5.1701,5.2968,5.457,5.6182,5.7531,5.9098,6.0854,6.2523,6.3967,6.5733,6.7849,7.0272,7.2369,7.4238,7.671,7.9229,8.1616,8.4529,8.7434,9.05,9.3652,9.6422,9.9151,10.2592,10.5281,10.7471,11.1273,11.5021,11.7957,11.9523,12.0882,12.2258,12.3394,12.4318,12.4957,12.4976,12.4858,12.4434,12.2683,12.1611,12.1403,12.0681,11.9965,11.9335,11.92,11.8755,11.791,11.8149,11.8048,11.7349,11.7676,11.78,11.7521,11.7328,11.7318,11.7452,11.7446,11.7546,11.775,11.7948,11.8077,11.7973,11.8212,11.7743,11.6641,11.6239,11.6463,11.7071,11.684,11.6735,11.6934,11.6779,11.6609,11.6359,11.5879,11.5283,11.4646,11.4084,11.356,11.2996,11.2729,11.2571,11.2412,11.2331,11.2206,11.2041,11.2041,11.1958,11.1958,11.2124,11.2206,11.2041,11.2041,11.1874,11.1705,11.1705,11.1804,11.1728,11.175,11.186,11.2013,11.1882,11.1698,11.1552,11.1566,11.1272,11.136,11.1447,11.1447,11.1447,11.136,11.1126,5.2069,5.124,5.1605,5.232,5.3177,5.4526,5.5958,5.76,5.9014,6.0467,6.2167,6.3441,6.5628,6.7971,7.0237,7.2519,7.4817,7.7459,8.0104,8.2595,8.5718,8.8646,9.1534,9.4381,9.7489,10.0448,10.4015,10.7152,10.9728,11.3575,11.6894,11.9218,12.0696,12.2108,12.3578,12.4756,12.5551,12.6131,12.6098,12.6258,12.6355,12.4791,12.3839,12.374,12.2527,12.1729,12.1523,12.1275,12.0716,11.981,12.0305,12.0234,11.9496,11.9875,12.0021,11.9719,11.9492,11.9484,11.9592,11.9548,11.953,11.9575,11.9467,11.9316,11.916,11.8999,11.8833,11.8681,11.8506,11.8311,11.8022,11.7648,11.7425,11.7548,11.7282,11.6998,11.6855,11.6294,11.5507,11.4754,11.404,11.3394,11.2757,11.2368,11.2087,11.2124,11.2041,11.1789,11.1705,11.1705,11.1619,11.1497,11.1533,11.1533,11.1619,11.1705,11.1533,11.1323,11.1148,11.1059,11.0791,11.07,11.07,11.1102,11.059,11.0517,11.0846,11.0827,11.0791,11.0917,11.097,11.097,11.1007,11.0681,11.0188,5.2485,5.2179,5.249,5.296,5.3613,5.5032,5.6511,5.768,5.9113,6.0323,6.1278,6.3215,6.5334,6.7756,7.0069,7.2641,7.5421,7.8363,8.1005,8.3248,8.6699,8.9636,9.2125,9.4153,9.7774,10.2372,10.5097,10.8862,11.3755,11.6237,11.8526,12.0581,12.1902,12.3031,12.4212,12.5144,12.5727,12.6479,12.6927,12.7226,12.7534,12.6913,12.6211,12.5663,12.4903,12.4043,12.332,12.2492,12.163,12.0732,12.0695,12.0527,12.036,12.018,12.0048,11.9799,11.957,11.9834,12.0448,12.039,12.0477,12.1025,12.0914,12.0964,12.0653,12.034,12.0168,12.0321,11.987,11.9457,11.8787,11.8417,11.8387,11.8816,11.8612,11.8318,11.8129,11.6515,11.5613,11.493,11.3612,11.2591,11.2041,11.1874,11.1874,11.1874,11.1874,11.1705,11.1272,11.1184,11.1007,11.0663,11.0572,11.07,11.1096,11.1184,11.1007,11.0791,11.0663,11.0517,11.0425,11.0425,11.0425,11.0425,11.0296,11.0296,11.0425,11.0388,11.0481,11.0481,11.0463,11.0463,11.0353,10.9787,10.9185,5.2742,5.2504,5.2553,5.2926,5.3604,5.4588,5.5669,5.6985,5.8435,5.9466,6.0614,6.2146,6.4517,6.6985,6.9538,7.2687,7.5728,7.8647,8.1515,8.4168,8.753,9.0861,9.4271,9.7012,10.0051,10.3824,10.7157,11.1264,11.5884,11.8119,12.0095,12.2031,12.3452,12.4782,12.61,12.7056,12.778,12.8332,12.877,12.8949,12.874,12.8608,12.8231,12.7519,12.616,12.5341,12.5077,12.4195,12.3547,12.319,12.2566,12.2124,12.2034,12.1772,12.152,12.1308,12.1193,12.1187,12.1369,12.1231,12.1207,12.1332,12.1169,12.0997,12.0796,12.0627,12.0453,12.0175,12.0027,11.9646,11.9364,11.8984,11.8892,11.8763,11.8618,11.8167,11.7334,11.6463,11.5515,11.4231,11.2955,11.2078,11.1874,11.1619,11.1447,11.136,11.1148,11.0881,11.0791,11.07,11.0609,11.0388,11.0388,11.0332,11.0181,11.0517,11.0609,11.0517,11.0388,11.0332,11.0239,11.0145,11.0051,10.9956,10.9956,11.0051,11.0051,11.0093,11.0093,11.015,11.0041,10.9511,10.9695,10.8819,10.7979,5.2309,5.2092,5.2272,5.2705,5.3353,5.4017,5.5027,5.6582,5.7435,5.8646,6.0032,6.1548,6.3695,6.6507,6.9158,7.2187,7.5807,7.8905,8.1973,8.4872,8.825,9.1887,9.5655,9.9242,10.2463,10.5516,10.9772,11.4099,11.7739,11.9857,12.177,12.3637,12.5039,12.6378,12.7607,12.8442,12.9113,12.9615,13.0042,13.0055,12.9794,12.9674,12.9403,12.8764,12.7495,12.6601,12.6391,12.5488,12.4959,12.4838,12.3994,12.3224,12.2855,12.2543,12.2342,12.2198,12.2041,12.1875,12.1738,12.1553,12.137,12.1169,12.1013,12.0796,12.0627,12.0394,12.0151,11.9963,11.9705,11.9505,11.9263,11.9053,11.891,11.858,11.8317,11.7745,11.6526,11.5992,11.4734,11.315,11.2159,11.1656,11.1533,11.1148,11.1007,11.0917,11.0609,11.0388,11.0239,11.0145,11.0051,10.9956,10.9824,10.9765,10.9571,10.9765,10.9861,10.9728,10.9824,10.9861,10.9861,10.9801,10.9704,10.9474,10.9474,10.9571,10.9692,10.9702,10.9687,10.9709,10.9033,10.83,10.8046,10.7553,10.6916,5.1358,5.156,5.2034,5.2436,5.3054,5.3724,5.4844,5.6154,5.6582,5.784,5.9676,6.0969,6.3304,6.6346,6.8753,7.1763,7.5335,7.8941,8.2239,8.4927,8.8985,9.2625,9.5865,10.0328,10.4174,10.7401,11.2809,11.6852,11.9418,12.1452,12.3386,12.5195,12.6587,12.7707,12.8326,12.9155,12.9606,13.0125,13.057,13.0721,13.0693,13.0161,12.9734,12.9531,12.873,12.7925,12.7175,12.6308,12.5789,12.5591,12.4703,12.3587,12.2717,12.2348,12.2198,12.2041,12.1788,12.1647,12.1553,12.1321,12.1065,12.0812,12.0702,12.0569,12.0274,11.9963,11.9809,11.9705,11.9438,11.9053,11.8728,11.858,11.8506,11.8506,11.801,11.7122,11.617,11.5188,11.3779,11.2025,11.136,11.1096,11.0881,11.0609,11.0425,11.0425,11.0332,11.0051,10.9765,10.9668,10.9474,10.9178,10.9178,10.9178,10.8979,10.8878,10.8878,10.8878,10.9079,10.9178,10.9277,10.9178,10.9277,10.9079,10.889,10.8854,10.8808,10.8787,10.845,10.8232,10.7558,10.7028,10.6775,10.645,10.5765,5.1375,5.1375,5.1595,5.1815,5.2016,5.2909,5.3761,5.4412,5.5725,5.7084,5.8002,6.0052,6.2576,6.5416,6.8005,7.0969,7.4269,7.8256,8.2111,8.5516,8.9562,9.3542,9.7638,10.1241,10.6046,11.1277,11.5017,11.8,12.0548,12.2603,12.4664,12.6778,12.8184,12.9437,13.05,13.1194,13.167,13.2027,13.2286,13.2209,13.1784,13.1,13.0311,12.9656,12.8817,12.8159,12.7754,12.7032,12.6566,12.6361,12.5435,12.439,12.3314,12.243,12.1959,12.1744,12.1562,12.1282,12.1131,12.0921,12.0757,12.0531,12.0355,12.0151,12.0001,11.9705,11.9505,11.9369,11.9053,11.8728,11.8506,11.8085,11.7927,11.8006,11.7203,11.6244,11.5105,11.3462,11.2072,11.1206,11.0791,11.0609,11.0517,11.0239,10.9956,10.9861,10.9668,10.9376,10.9178,10.9178,10.9079,10.8878,10.8878,10.8711,10.8471,10.8228,10.8192,10.8157,10.826,10.8573,10.8573,10.8676,10.8676,10.8526,10.8238,10.8087,10.8043,10.7746,10.7278,10.6881,10.6413,10.6125,10.5812,10.5354,10.4728,5.0714,5.0697,5.0935,5.1155,5.1155,5.2016,5.2673,5.3327,5.4844,5.6018,5.6985,5.9425,6.2139,6.4982,6.7417,7.0472,7.3824,7.7974,8.1954,8.5712,8.9884,9.4156,9.896,10.3659,10.8518,11.3662,11.6624,11.9342,12.216,12.4057,12.6251,12.8513,12.9838,13.0871,13.1928,13.2443,13.2834,13.3109,13.3215,13.3141,13.2531,13.1554,13.0642,12.9953,12.8782,12.808,12.7819,12.734,12.708,12.6791,12.5756,12.4475,12.3356,12.2295,12.1616,12.1429,12.1233,12.0936,12.0757,12.0589,12.0355,12.0175,11.9989,11.9733,11.9573,11.9332,11.9123,11.8982,11.8618,11.8317,11.8085,11.7768,11.7284,11.683,11.6338,11.5354,11.3942,11.2044,11.099,11.0609,11.0332,11.0239,11.0051,10.9765,10.9376,10.9376,10.9079,10.8777,10.8711,10.8573,10.8573,10.8332,10.816,10.795,10.7844,10.7596,10.7489,10.7524,10.7595,10.7843,10.795,10.8019,10.8019,10.7549,10.7258,10.7032,10.6953,10.6379,10.5975,10.5652,10.5302,10.4943,10.4557,10.418,10.3695,4.9625,4.9608,5.0051,5.0272,5.0493,5.0917,5.1797,5.2891,5.3761,5.506,5.6543,5.8646,6.1787,6.4722,6.6985,6.988,7.3725,7.7911,8.1715,8.562,8.9992,9.4863,10.0141,10.6589,11.1504,11.5085,11.7868,12.0816,12.3794,12.5605,12.7906,13.0085,13.1141,13.2014,13.2473,13.2889,13.3112,13.3258,13.3399,13.3437,13.3255,13.1734,13.0727,13.0394,12.8754,12.7704,12.7484,12.7187,12.7225,12.722,12.5444,12.3996,12.3048,12.1929,12.1194,12.1041,12.0774,12.0589,12.0415,12.0113,11.9862,11.9705,11.9505,11.9369,11.9123,11.8765,11.8506,11.8506,11.82,11.7842,11.7524,11.7275,11.6651,11.5567,11.5111,11.4199,11.2506,11.1139,11.0498,11.0202,10.9956,10.9704,10.9607,10.9178,10.8878,10.8777,10.8777,10.8368,10.8124,10.7879,10.7667,10.7453,10.7133,10.6778,10.6565,10.6457,10.6279,10.5955,10.6099,10.6493,10.692,10.6956,10.692,10.6528,10.6132,10.5945,10.5654,10.5118,10.4796,10.4681,10.4224,10.3723,10.348,10.328,10.2899,4.9194,4.8941,4.8718,4.8718,4.9163,4.9812,5.0493,5.1375,5.2673,5.3978,5.5686,5.7588,6.1034,6.4709,6.6191,6.8867,7.2788,7.7097,8.1573,8.5855,9.0714,9.6959,10.3538,10.91,11.3262,11.6156,11.8976,12.1896,12.4544,12.6586,12.8499,13.0355,13.1676,13.252,13.297,13.3191,13.336,13.3437,13.3366,13.3284,13.295,13.1413,13.04,13.0004,12.8294,12.7226,12.6938,12.6621,12.6621,12.674,12.4918,12.3752,12.319,12.1686,12.0607,12.0435,12.0258,12.0051,11.9798,11.9535,11.9332,11.9123,11.8838,11.8618,11.8543,11.8163,11.8006,11.7848,11.7524,11.7275,11.7021,11.6638,11.5478,11.3902,11.3333,11.26,11.1321,11.0384,10.9861,10.9861,10.9376,10.9178,10.8907,10.8604,10.8192,10.8157,10.7912,10.7453,10.7133,10.6778,10.6457,10.6245,10.6032,10.5498,10.5213,10.5249,10.4961,10.4414,10.4379,10.471,10.5178,10.5571,10.55,10.5359,10.4825,10.4571,10.4183,10.3724,10.3579,10.3779,10.3361,10.2975,10.2837,10.2733,10.2101,4.8605,4.8272,4.8049,4.8049,4.8272,4.8718,4.9386,5.0272,5.1577,5.3054,5.4553,5.7143,6.0092,6.3576,6.5535,6.8363,7.2197,7.6538,8.1099,8.6515,9.2949,9.9739,10.5844,11.0437,11.4057,11.7351,12.0039,12.2614,12.5205,12.7141,12.8699,13.0167,13.16,13.2431,13.2632,13.3195,13.3344,13.3256,13.3149,13.287,13.224,13.0794,12.9699,12.8886,12.7435,12.6371,12.5947,12.565,12.5593,12.5349,12.4153,12.3051,12.244,12.0981,11.9989,11.976,11.9667,11.94,11.9123,11.891,11.8654,11.8468,11.8163,11.7927,11.7848,11.7606,11.7359,11.7275,11.6936,11.6638,11.6262,11.5277,11.3823,11.2314,11.1534,11.0842,11.0181,10.9668,10.9376,10.9178,10.8878,10.8394,10.8143,10.7591,10.7203,10.6742,10.6423,10.6101,10.574,10.5458,10.5102,10.4925,10.4675,10.4244,10.4028,10.4028,10.3672,10.3197,10.2805,10.3029,10.3642,10.4079,10.4224,10.4047,10.3518,10.3198,10.2952,10.2846,10.2949,10.2911,10.2597,10.228,10.2034,10.1752,10.1153,4.7963,4.7601,4.7393,4.7601,4.7601,4.7618,4.8272,4.9386,5.0697,5.1743,5.3433,5.6465,5.9169,6.1638,6.4722,6.8246,7.195,7.6046,8.1593,8.8067,9.5336,10.2283,10.6714,11.0743,11.4526,11.819,12.0593,12.3223,12.5648,12.7237,12.8618,12.9946,13.1122,13.1696,13.1914,13.2485,13.2771,13.2386,13.2123,13.1576,13.0748,12.9572,12.861,12.7528,12.6203,12.524,12.484,12.4433,12.4149,12.3883,12.3014,12.2103,12.1114,11.9913,11.9263,11.9015,11.88,11.8654,11.8431,11.8047,11.7848,11.7768,11.7442,11.7312,11.7191,11.6936,11.6763,11.6587,11.632,11.5846,11.505,11.3515,11.2146,11.0983,10.9954,10.9386,10.9277,10.9079,10.8813,10.8777,10.8368,10.7591,10.6954,10.6245,10.564,10.5463,10.507,10.4776,10.4414,10.4133,10.3736,10.3372,10.3154,10.2823,10.2788,10.2823,10.2405,10.1978,10.1561,10.1638,10.2421,10.279,10.2944,10.2771,10.2311,10.2208,10.2174,10.2175,10.2105,10.1858,10.1293,10.0975,10.0765,10.0517,10.0022,4.7056,4.6253,4.535,4.5576,4.6253,4.6479,4.7153,4.8272,4.9369,5.0714,5.2709,5.5041,5.8112,6.1222,6.4003,6.7312,7.1599,7.6324,8.2447,9.1361,9.746,10.2665,10.6994,11.1053,11.4947,11.8293,12.1616,12.3927,12.562,12.7413,12.8896,12.9563,13.0331,13.0922,13.093,13.085,13.0589,13.0271,13.0088,12.9666,12.9025,12.801,12.7084,12.6223,12.4917,12.402,12.3615,12.2938,12.1958,12.1169,12.1096,12.0827,11.9964,11.903,11.8355,11.7973,11.7932,11.7693,11.7404,11.7069,11.6849,11.6638,11.6462,11.6193,11.6267,11.6048,11.5864,11.5771,11.5357,11.4717,11.3535,11.2502,11.1298,11.0065,10.904,10.8264,10.8124,10.816,10.83,10.8017,10.7204,10.6458,10.621,10.4999,10.4424,10.4103,10.3812,10.3512,10.3119,10.2692,10.2326,10.1959,10.1636,10.1417,10.1417,10.1452,10.1163,10.0921,10.054,10.0298,10.1081,10.1308,10.1437,10.1408,10.1192,10.1204,10.1322,10.0719,10.0548,10.0264,9.9981,9.9666,9.9313,9.91,9.8712,4.5747,4.514,4.4459,4.4686,4.5124,4.5124,4.5802,4.7153,4.8255,4.9812,5.1797,5.4158,5.7242,6.0532,6.304,6.6384,7.1737,7.8461,8.5583,9.2741,9.8388,10.2899,10.6949,11.1024,11.4836,11.8429,12.1073,12.3207,12.5205,12.6844,12.7873,12.8354,12.9323,12.9679,12.9636,12.9453,12.9309,12.8987,12.8553,12.8002,12.7109,12.6387,12.528,12.4368,12.3186,12.2482,12.1664,12.1159,11.9874,11.8847,11.8564,11.8706,11.8357,11.7673,11.7201,11.6788,11.6652,11.6477,11.6156,11.5883,11.5734,11.5641,11.5357,11.5262,11.5166,11.5105,11.4972,11.4775,11.4368,11.3572,11.1902,11.1263,11.0264,10.8981,10.8129,10.7524,10.7308,10.7524,10.7453,10.6955,10.617,10.5172,10.446,10.3637,10.2924,10.2463,10.2323,10.1874,10.1577,10.1299,10.1036,10.0702,10.0228,9.9974,9.9974,10.0008,9.996,9.9891,9.9705,9.9602,9.9926,9.9883,9.9768,9.9996,10.0327,10.0308,10.0251,9.9612,9.9083,9.9199,9.8955,9.8353,9.7855,9.7716,9.7003,4.4321,4.3777,4.3762,4.3762,4.3762,4.3762,4.4444,4.5561,4.6912,4.8428,5.0609,5.3271,5.6096,5.9195,6.2124,6.5945,7.2543,8.0111,8.7615,9.2615,9.7925,10.2344,10.6582,11.0442,11.4356,11.8577,12.0668,12.2621,12.4407,12.5907,12.6757,12.6972,12.7733,12.8131,12.8038,12.8071,12.778,12.7274,12.6706,12.5987,12.5004,12.4405,12.3437,12.2138,12.1161,12.0463,11.9538,11.8776,11.7865,11.6369,11.5657,11.5579,11.5714,11.5938,11.5791,11.5401,11.5248,11.5093,11.4801,11.464,11.4577,11.4477,11.4275,11.4174,11.4174,11.4072,11.383,11.355,11.309,11.209,11.0373,10.9728,10.88,10.7733,10.709,10.687,10.6647,10.6688,10.6084,10.5661,10.4806,10.3847,10.2952,10.2091,10.1308,10.0778,10.0674,10.0491,10.0263,10.0068,9.9823,9.9774,9.9519,9.9485,9.9485,9.9298,9.9179,9.8958,9.8873,9.8702,9.8787,9.8544,9.8584,9.9274,9.965,9.9303,9.8888,9.8144,9.7979,9.8208,9.7751,9.6788,9.6469,9.6253,9.5537,4.2728,4.1934,4.146,4.146,4.1948,4.1934,4.2621,4.3731,4.5093,4.6655,4.8668,5.1944,5.4364,5.7301,6.1297,6.7342,7.4296,8.1388,8.6665,9.1563,9.692,10.161,10.5433,10.9491,11.3211,11.6875,11.9825,12.2039,12.3347,12.4765,12.5595,12.6193,12.6189,12.6174,12.6118,12.5937,12.5398,12.4767,12.4255,12.341,12.2679,12.1963,12.1274,11.9974,11.894,11.7957,11.7034,11.5815,11.4705,11.3877,11.3161,11.2584,11.2589,11.3406,11.3788,11.3825,11.3758,11.355,11.3375,11.3269,11.3199,11.3128,11.2912,11.2912,11.2912,11.2768,11.2513,11.2114,11.1389,11.023,10.9042,10.8365,10.7407,10.6442,10.6048,10.5899,10.5564,10.4914,10.4576,10.4237,10.332,10.2326,10.1497,10.0886,10.046,10.0021,9.9836,9.9685,9.9568,9.9367,9.9163,9.9163,9.9129,9.9129,9.9129,9.8941,9.8753,9.836,9.819,9.7781,9.7576,9.7301,9.7433,9.7755,9.7837,9.7609,9.7082,9.667,9.6543,9.6485,9.5925,9.5252,9.5173,9.5058,9.499,4.0834,4.0093,3.9617,3.9848,4.0079,4.0079,4.0771,4.1905,4.3261,4.4851,4.7263,4.9995,5.2848,5.5723,5.9397,6.6298,7.4608,8.0817,8.6011,9.1166,9.6281,10.0534,10.4284,10.8389,11.1401,11.4519,11.7857,12.0705,12.207,12.3242,12.408,12.4378,12.43,12.4261,12.4127,12.3615,12.3127,12.2526,12.1965,12.1218,12.0412,11.9688,11.8618,11.7364,11.6456,11.5395,11.405,11.3173,11.2082,11.1261,11.0518,11.0018,10.9948,11.0273,11.1095,11.1624,11.1773,11.1695,11.1502,11.1387,11.1387,11.1307,11.1307,11.1307,11.1191,11.1039,11.0887,11.0476,10.9867,10.8811,10.7721,10.6955,10.6106,10.5327,10.5084,10.4709,10.402,10.3279,10.283,10.2568,10.176,10.0952,10.0235,9.9691,9.9401,9.9214,9.9009,9.8889,9.8889,9.8648,9.8527,9.8337,9.8303,9.8113,9.7977,9.774,9.7706,9.7503,9.713,9.6723,9.6195,9.5841,9.5518,9.5466,9.545,9.5906,9.59,9.5789,9.54,9.4965,9.4841,9.4556,9.4223,9.4005,9.3889,3.8918,3.8227,3.7994,3.7994,3.7994,3.7994,3.8678,3.9834,4.0958,4.3018,4.5482,4.8043,5.1081,5.459,5.9169,6.5822,7.477,7.9891,8.5287,9.0489,9.5138,9.9276,10.3264,10.6836,11.0137,11.2711,11.486,11.8076,12.017,12.1317,12.1908,12.2207,12.2283,12.2192,12.2027,12.1529,12.1185,12.0666,12.0218,11.9319,11.8192,11.7018,11.5542,11.4135,11.3597,11.2408,11.0884,11.0023,10.9265,10.8573,10.7851,10.746,10.7328,10.723,10.7591,10.8747,10.9406,10.9564,10.9599,10.951,10.9599,10.9599,10.951,10.951,10.951,10.9441,10.9158,10.8735,10.7954,10.7002,10.5995,10.5342,10.4723,10.4242,10.3844,10.3638,10.2673,10.1865,10.0937,10.0581,10.0069,9.9659,9.8974,9.875,9.8493,9.8249,9.8126,9.8126,9.8003,9.7879,9.7755,9.7563,9.7337,9.7044,9.6775,9.6237,9.626,9.6092,9.562,9.5116,9.4657,9.4199,9.3942,9.3897,9.4159,9.4502,9.4651,9.4665,9.4145,9.4009,9.4073,9.3889,9.3537,9.3301,9.3301,3.6855,3.6129,3.5661,3.5427,3.5427,3.5427,3.6116,3.727,3.8651,4.0498,4.3003,4.5997,4.8935,5.31,6.0528,6.7126,7.3076,7.8521,8.3745,8.8753,9.3381,9.7796,10.1833,10.5026,10.8568,11.116,11.2693,11.489,11.7332,11.8802,11.9857,12.0293,11.976,11.9443,11.9781,11.9387,11.9143,11.8483,11.8048,11.6798,11.4748,11.3415,11.2238,11.0903,10.9796,10.8823,10.7712,10.6866,10.6052,10.5639,10.5155,10.4733,10.4482,10.4482,10.4229,10.5048,10.6291,10.8084,10.779,10.779,10.779,10.7659,10.779,10.7954,10.779,10.7523,10.7056,10.6283,10.557,10.4891,10.4048,10.3268,10.2827,10.2691,10.2624,10.2183,10.1411,10.0574,9.9611,9.8675,9.8329,9.8217,9.7913,9.7755,9.763,9.738,9.7254,9.7254,9.7187,9.696,9.6639,9.6378,9.601,9.5555,9.5322,9.4823,9.4649,9.4641,9.4107,9.3573,9.3248,9.2858,9.2771,9.276,9.3057,9.3091,9.3057,9.299,9.2856,9.3062,9.3301,9.3062,9.2822,9.2702,9.2547,3.2804,3.3276,3.3063,3.2838,3.2827,3.2827,3.3535,3.4711,3.6104,3.7955,4.0616,4.356,4.7606,5.3493,6.0689,6.6578,7.1974,7.7206,8.2508,8.7536,9.2188,9.6527,10.0381,10.3983,10.7426,10.9258,11.1285,11.2754,11.4649,11.6128,11.7476,11.8027,11.7562,11.7077,11.7257,11.6868,11.6343,11.5522,11.4623,11.3087,11.148,11.042,10.9271,10.7598,10.6637,10.5739,10.4626,10.3637,10.2935,10.2523,10.2075,10.159,10.1438,10.147,10.147,10.147,10.231,10.3776,10.5048,10.5188,10.5328,10.5328,10.5328,10.5188,10.5261,10.4994,10.4726,10.4287,10.329,10.2658,10.2223,10.1621,10.1354,10.122,10.1187,10.0384,9.9816,9.9216,9.8418,9.7421,9.6558,9.6683,9.6839,9.6839,9.6839,9.6873,9.6712,9.6712,9.635,9.5827,9.5469,9.4946,9.4483,9.3988,9.3627,9.3264,9.2902,9.2799,9.2303,9.1874,9.1774,9.1669,9.1629,9.1596,9.1662,9.1662,9.1596,9.1968,9.2459,9.2581,9.2581,9.227,9.1958,9.2025,9.1902,2.8543,2.901,2.9973,3.021,3.0221,3.021,3.0933,3.2118,3.3523,3.539,3.8477,4.2065,4.7647,5.4195,5.9974,6.5379,7.0743,7.6166,8.1459,8.6601,9.133,9.541,9.9177,10.2865,10.5496,10.7118,10.946,11.1138,11.2109,11.3079,11.4351,11.563,11.5079,11.4862,11.4522,11.4053,11.3461,11.2774,11.1384,10.9709,10.8141,10.7339,10.594,10.4637,10.3454,10.2658,10.1599,10.0581,9.9925,9.942,9.8943,9.8462,9.8301,9.8301,9.8108,9.8139,9.856,9.9199,10.0794,10.1774,10.229,10.2472,10.2621,10.2639,10.2559,10.2314,10.1904,10.1577,10.1253,10.0704,10.0309,9.9816,9.9823,9.9691,9.9691,9.8769,9.7945,9.7649,9.7157,9.6168,9.5474,9.5474,9.564,9.5935,9.6196,9.6326,9.6326,9.5999,9.5374,9.4716,9.4288,9.3861,9.3237,9.2744,9.2547,9.2122,9.1631,9.1207,9.0619,9.052,9.0681,9.0809,9.0839,9.0583,9.0454,9.0711,9.1093,9.1596,9.2092,9.1844,9.1654,9.1521,9.1364,9.1239,9.0796,2.4518,2.2882,2.6186,2.7607,2.7597,2.7597,2.8314,2.9497,3.0923,3.3017,3.6382,4.1991,4.7827,5.3324,5.8665,6.4181,7.0076,7.5017,8.02,8.5172,8.9812,9.4107,9.7785,10.0977,10.3868,10.6383,10.8067,10.9383,11.038,11.0382,11.1727,11.2925,11.2539,11.2431,11.1971,11.1312,11.0558,10.9756,10.8454,10.6789,10.5193,10.3962,10.2645,10.0776,10.0115,9.9419,9.8263,9.758,9.6858,9.616,9.5486,9.5177,9.4805,9.4633,9.4633,9.4805,9.4805,9.5286,9.6297,9.8462,9.961,9.9957,10.0018,10.0107,9.9879,10.0146,9.9657,9.8662,9.8476,9.8269,9.8028,9.7883,9.7995,9.7995,9.7833,9.7295,9.6723,9.6613,9.5897,9.4861,9.4436,9.4436,9.4301,9.4707,9.5109,9.5276,9.4814,9.4615,9.4055,9.3363,9.3104,9.2744,9.2057,9.1665,9.1534,9.1142,9.0424,9.0063,8.9804,8.9805,8.9936,8.9903,8.9903,8.9968,8.9968,9.026,9.0323,9.0252,9.0153,9.0547,9.0547,9.0055,8.9792,8.944,8.9185,2.1868,1.9881,2.1608,2.3276,2.513,2.513,2.5544,2.6639,2.8066,3.1426,3.5798,4.1338,4.6523,5.1407,5.7204,6.296,6.869,7.3747,7.8916,8.3788,8.8433,9.2364,9.5959,9.9373,10.2201,10.4275,10.5912,10.7105,10.772,10.8436,10.8698,10.9405,10.9981,10.999,10.9588,10.8503,10.7454,10.6385,10.5376,10.3867,10.2235,10.0871,9.964,9.8294,9.6723,9.6221,9.5207,9.4176,9.3509,9.2747,9.2008,9.165,9.1291,9.111,9.1139,9.1349,9.132,9.1499,9.2451,9.4805,9.6889,9.7127,9.7045,9.7,9.6888,9.6678,9.6212,9.5868,9.5737,9.5697,9.5723,9.5899,9.6199,9.6199,9.6094,9.57,9.524,9.5051,9.4536,9.3378,9.3261,9.3369,9.3369,9.3369,9.3752,9.4027,9.3533,9.3007,9.2554,9.1868,9.155,9.1129,9.0514,9.0025,8.9928,8.9536,8.9145,8.9012,8.8878,8.898,8.898,8.9012,8.9012,8.9149,8.9022,8.8861,8.8471,8.818,8.8441,8.9123,8.8895,8.8439,8.802,8.7794,8.7534,1.9326,1.7067,1.7625,1.9561,2.2152,2.239,2.2527,2.3359,2.5035,2.9016,3.4787,3.9658,4.436,4.9457,5.5283,6.1465,6.7107,7.2478,7.7923,8.2863,8.7504,9.12,9.4701,9.7922,10.0728,10.2246,10.4038,10.5449,10.6449,10.7295,10.7391,10.7343,10.7363,10.7455,10.7422,10.5847,10.4363,10.336,10.2231,10.0787,9.9263,9.8008,9.6569,9.5473,9.3847,9.2597,9.1571,9.0387,8.9362,8.8745,8.8119,8.7728,8.7652,8.7575,8.7469,8.7686,8.7874,8.8035,8.9155,9.1558,9.3769,9.399,9.3922,9.3642,9.3409,9.3153,9.3026,9.2601,9.298,9.3242,9.3242,9.3715,9.4183,9.4339,9.4525,9.4178,9.3574,9.3213,9.2658,9.1886,9.208,9.2382,9.2097,9.2065,9.2493,9.2788,9.251,9.1889,9.1034,9.0288,8.9553,8.917,8.8723,8.8363,8.8203,8.8035,8.8035,8.7899,8.7762,8.7762,8.7931,8.7931,8.7844,8.7828,8.7509,8.7087,8.6736,8.6321,8.6979,8.7891,8.7373,8.6759,8.6759,8.6565,8.6174,1.6647,1.469,1.4982,1.6698,1.8854,1.9084,1.9495,2.0093,2.226,2.6299,3.1848,3.6997,4.2191,4.7617,5.3509,5.9747,6.6118,7.1344,7.6754,8.2342,8.6679,9.0792,9.4105,9.7005,9.9383,10.1514,10.2906,10.4137,10.5524,10.5406,10.5522,10.5472,10.5216,10.5102,10.5838,10.4076,10.2362,10.0848,9.9674,9.8001,9.6581,9.5399,9.378,9.2186,9.0629,8.9172,8.7615,8.6398,8.5494,8.439,8.4116,8.37,8.3393,8.3598,8.3784,8.4034,8.4087,8.4336,8.5142,8.8382,8.9705,9.0566,9.0661,9.0314,9.0364,9.0234,8.9998,8.9724,9.0186,9.0459,9.0789,9.1312,9.18,9.2315,9.2476,9.2367,9.1885,9.1731,9.126,9.0657,9.0999,9.1343,9.0936,9.0789,9.1229,9.1299,9.1255,9.0715,8.9655,8.8834,8.8044,8.7822,8.7506,8.7443,8.738,8.7071,8.6931,8.6791,8.6791,8.6868,8.6945,8.6819,8.6705,8.6463,8.5989,8.5579,8.5001,8.4591,8.5222,8.5751,8.5528,8.5208,8.5176,8.5176,8.465,1.4555,1.176,1.1788,1.2545,1.3524,1.5225,1.6141,1.727,2.0605,2.4708,2.9262,3.457,3.9864,4.5448,5.1591,5.8155,6.469,7.0036,7.5565,8.1183,8.5616,8.9162,9.2579,9.5676,9.7954,9.9629,10.0942,10.1967,10.2557,10.33,10.3486,10.3412,10.2945,10.2895,10.2986,10.1922,10.029,9.9346,9.7748,9.5909,9.4168,9.249,9.081,8.9008,8.7474,8.5647,8.3873,8.2844,8.1502,8.0361,8.0084,7.9592,7.9245,7.9376,7.9175,7.9376,7.9577,8.0351,8.092,8.2799,8.4498,8.6006,8.715,8.6796,8.6827,8.6728,8.6796,8.7003,8.7409,8.7755,8.8299,8.8811,8.9319,9.0186,9.0369,9.0292,9.0053,9.0326,9.0186,8.933,8.9416,8.9686,8.9567,8.9416,8.9686,8.9463,8.941,8.9378,8.8638,8.7606,8.687,8.687,8.6714,8.6714,8.6541,8.6227,8.6086,8.6086,8.6134,8.6291,8.6197,8.5697,8.5307,8.4914,8.4476,8.4174,8.3557,8.3077,8.3036,8.3283,8.3314,8.3448,8.3581,8.3385,8.3023,1.1917,0.9062,0.9342,0.9607,0.985,1.1803,1.3226,1.4882,1.8688,2.2592,2.6837,3.187,3.7435,4.3421,4.9624,5.6274,6.2992,6.8519,7.4239,7.9826,8.4171,8.8092,9.1646,9.4534,9.6792,9.8254,9.9676,10.0826,10.15,10.2275,10.2273,10.1604,10.0882,10.0948,10.0712,9.9652,9.8275,9.7253,9.5493,9.3689,9.1906,9.008,8.8219,8.6208,8.4218,8.2249,8.0579,7.9163,7.7807,7.6833,7.5924,7.5437,7.5077,7.4993,7.5091,7.5526,7.5731,7.6573,7.7409,7.7536,7.943,8.1493,8.2468,8.3085,8.3452,8.3592,8.382,8.4072,8.4613,8.5151,8.5507,8.6039,8.6916,8.7611,8.792,8.7673,8.7783,8.8189,8.8266,8.7464,8.7542,8.7854,8.8163,8.8163,8.8163,8.7799,8.7401,8.7363,8.7315,8.6411,8.5575,8.5545,8.5545,8.537,8.537,8.5225,8.5225,8.54,8.5328,8.505,8.4597,8.4034,8.3733,8.3317,8.2837,8.2466,8.2034,8.1725,8.1708,8.1615,8.1447,8.169,8.1901,8.1901,8.1734,0.947,0.6574,0.7636,0.7899,0.8144,0.855,1.051,1.3208,1.6248,1.9746,2.3439,2.9382,3.4981,4.0956,4.7336,5.4291,6.1039,6.6666,7.2952,7.8565,8.3235,8.7302,9.0753,9.3617,9.5625,9.7223,9.8552,9.9608,10.0891,10.0748,10.0403,10.0371,10.0065,9.9599,9.8668,9.7517,9.645,9.5213,9.3436,9.1432,8.9422,8.7746,8.5424,8.3026,8.0824,7.8698,7.6792,7.4888,7.3534,7.2689,7.1926,7.1724,7.1774,7.2126,7.25,7.2547,7.2476,7.3033,7.3769,7.3615,7.4157,7.6182,7.7872,7.9292,8.0232,8.0399,8.0749,8.1312,8.1844,8.2242,8.2795,8.3527,8.4253,8.4897,8.5118,8.5248,8.5334,8.5432,8.5486,8.545,8.589,8.6121,8.644,8.644,8.638,8.618,8.5611,8.5293,8.5152,8.4816,8.4294,8.4203,8.4055,8.4055,8.4055,8.4055,8.4203,8.435,8.3685,8.335,8.29,8.2444,8.1949,8.1461,8.1136,8.0832,8.0578,8.0364,8.0102,8.0041,8.0041,8.0462,8.091,8.1048,8.0879,0.842,0.5,0.4742,0.4217,0.3421,0.4173,0.6444,0.9922,1.308,1.6682,2.0937,2.6387,3.2321,3.8681,4.5574,5.2522,5.9386,6.5888,7.2216,7.7579,8.2427,8.6347,8.9592,9.2253,9.4304,9.5958,9.7181,9.8033,9.8767,9.877,9.9504,9.9902,9.9242,9.83,9.7114,9.5766,9.4735,9.3362,9.1484,8.9455,8.6967,8.4736,8.2292,7.9842,7.7547,7.5245,7.3206,7.1337,7.0039,6.8743,6.7792,6.7341,6.715,6.7047,6.6877,6.7944,6.8134,6.8558,6.9425,6.9963,7.0311,7.0934,7.2533,7.4686,7.6101,7.7251,7.7471,7.8246,7.9041,7.9397,7.9994,8.0722,8.1658,8.2419,8.2738,8.2614,8.271,8.2962,8.305,8.3577,8.401,8.4368,8.4696,8.4859,8.4772,8.4478,8.4009,8.3466,8.3175,8.2907,8.2828,8.286,8.283,8.2679,8.286,8.2981,8.3011,8.3071,8.235,8.1601,8.1359,8.0848,8.0158,7.9767,7.9472,7.9437,7.934,7.9046,7.8903,7.8903,7.9046,7.9475,7.99,7.99,8.0041,0.7765,0.4285,0.2412,0.0535,-0.1328,-0.0264,0.2087,0.4897,0.9151,1.3567,1.8132,2.3532,2.9511,3.6008,4.3459,5.0763,5.7688,6.4429,7.0866,7.69,8.147,8.5505,8.8691,9.1181,9.3136,9.4755,9.6055,9.7073,9.76,9.8456,9.9198,9.8722,9.8136,9.7333,9.6128,9.4654,9.3168,9.1681,8.9941,8.7694,8.5212,8.2451,8.003,7.7185,7.4748,7.2226,7.0069,6.8278,6.6661,6.5238,6.4015,6.3271,6.3138,6.2707,6.2707,6.3547,6.3547,6.4339,6.5301,6.5792,6.6496,6.7264,6.7942,6.9386,7.1658,7.3058,7.4289,7.5509,7.6126,7.6716,7.7302,7.8079,7.9041,8.0183,8.0082,7.9967,8.0256,8.0549,8.0986,8.1631,8.2199,8.2706,8.2874,8.2902,8.2984,8.2726,8.2181,8.1435,8.1366,8.1379,8.1507,8.1455,8.161,8.158,8.1764,8.1764,8.1764,8.1344,8.0605,8.0044,7.9722,7.91,7.8302,7.8006,7.7829,7.7887,7.7887,7.7887,7.774,7.774,7.774,7.8033,7.8295,7.8614,7.8759,0.6595,0.3294,0.055,-0.2725,-0.5935,-0.4012,-0.2654,-0.1316,0.4898,1.0156,1.5051,2.0901,2.6706,3.3404,4.1039,4.8653,5.5847,6.2811,6.9757,7.6172,8.0246,8.4402,8.8029,9.0644,9.2065,9.3643,9.5017,9.5988,9.7121,9.7741,9.7893,9.7409,9.7472,9.6743,9.5247,9.3992,9.2437,9.0408,8.8817,8.6928,8.446,8.1912,7.9032,7.5533,7.2831,7.0135,6.7595,6.5432,6.3457,6.1999,6.0761,5.9922,5.9395,5.9218,5.9198,5.9415,5.9495,6.0287,6.1337,6.1851,6.2686,6.3543,6.4466,6.5344,6.7073,6.994,7.1681,7.2498,7.3106,7.3937,7.4738,7.5111,7.5995,7.6714,7.6943,7.6992,7.7481,7.7817,7.8622,7.9384,8.011,8.0631,8.0803,8.0976,8.1175,8.0923,8.0278,7.9465,7.9403,7.9649,7.9833,8.002,8.0178,8.0178,8.0365,8.0365,8.0365,7.9801,7.9046,7.8582,7.8569,7.7601,7.6491,7.6554,7.6704,7.6554,7.6404,7.6554,7.6554,7.6554,7.6554,7.6404,7.6704,7.715,7.7593,0.4416,-0.2473,-0.3847,-0.5759,-0.737,-0.6479,-0.5634,-0.4275,-0.0,0.5178,1.0941,1.7094,2.3976,3.1364,3.882,4.6541,5.4033,6.1413,6.857,7.439,7.9147,8.3259,8.6908,8.9033,9.0699,9.2363,9.3757,9.4989,9.631,9.6711,9.6767,9.6749,9.6799,9.614,9.4453,9.3277,9.1894,8.96,8.774,8.5425,8.2541,7.9031,7.5755,7.2715,7.0001,6.7045,6.4572,6.2038,6.0364,5.9061,5.7482,5.6391,5.5798,5.5558,5.5798,5.6257,5.6086,5.6621,5.7375,5.8109,5.8922,5.9813,6.0544,6.1367,6.325,6.6786,6.8782,6.9594,7.0424,7.1248,7.1995,7.2316,7.2678,7.3257,7.3646,7.4046,7.4623,7.5451,7.64,7.7071,7.7968,7.8351,7.8706,7.891,7.9114,7.8852,7.8058,7.7401,7.7414,7.7677,7.7891,7.8099,7.8584,7.8774,7.8963,7.9124,7.8963,7.8723,7.8007,7.7606,7.7362,7.6261,7.5192,7.5374,7.5526,7.5374,7.5192,7.5526,7.5526,7.5374,7.5345,7.5192,7.5374,7.5649,7.6404,0.3087,-0.4476,-0.6693,-0.7784,-0.8301,-0.8498,-0.8173,-0.7042,-0.3743,0.0264,0.5192,1.2588,2.0615,2.8599,3.6458,4.4397,5.2325,5.9924,6.7244,7.3275,7.7964,8.2169,8.5105,8.7672,8.9602,9.1354,9.2873,9.4264,9.5514,9.6018,9.6069,9.5901,9.5892,9.5405,9.3674,9.2893,9.1633,8.9161,8.7145,8.4362,8.1156,7.7983,7.4747,7.1617,6.8153,6.5047,6.1769,5.9302,5.7081,5.5069,5.3211,5.2001,5.1269,5.1067,5.1375,5.1666,5.1958,5.2686,5.3475,5.4485,5.5314,5.6048,5.6859,5.7613,5.8783,6.1984,6.4187,6.5013,6.6529,6.7341,6.8376,6.8809,6.9555,7.0105,7.0897,7.1493,7.2143,7.2891,7.3767,7.467,7.5407,7.6191,7.6555,7.7124,7.7278,7.7091,7.6263,7.5974,7.5746,7.5779,7.5863,7.629,7.6788,7.731,7.753,7.7694,7.7694,7.7188,7.6788,7.5915,7.5053,7.4648,7.4113,7.4113,7.4113,7.3957,7.3957,7.4141,7.4141,7.3957,7.3957,7.3957,7.4141,7.4296,7.4732,0.2293,-0.4865,-0.7676,-0.9326,-0.9547,-1.0028,-1.0516,-0.9893,-0.678,-0.4292,-0.1059,0.8232,1.6744,2.5431,3.3548,4.1974,5.0184,5.8119,6.56,7.2086,7.6772,8.108,8.4435,8.7053,8.896,9.0775,9.2429,9.3471,9.4505,9.4886,9.5016,9.4791,9.4764,9.4622,9.3399,9.2425,9.1216,8.8835,8.6594,8.4038,8.1063,7.8063,7.4406,7.0801,6.7129,6.3523,6.0205,5.727,5.4395,5.1862,4.9646,4.8465,4.7608,4.7456,4.717,4.7709,4.8113,4.8756,4.9589,5.0272,5.1269,5.2254,5.3342,5.4284,5.537,5.6963,5.9134,6.0699,6.2211,6.3839,6.4887,6.5632,6.6414,6.7348,6.7925,6.8796,6.9668,7.0397,7.1334,7.2072,7.3017,7.3792,7.4377,7.4933,7.5224,7.5042,7.5016,7.4595,7.4375,7.4297,7.4234,7.4401,7.4777,7.5312,7.6039,7.6373,7.6345,7.6124,7.5487,7.4136,7.3009,7.2865,7.2858,7.2699,7.2699,7.2699,7.2699,7.2858,7.2699,7.254,7.2699,7.2858,7.2858,7.3016,7.3229,0.1746,-0.6628,-0.7729,-0.9692,-1.1648,-1.209,-1.2291,-1.2254,-1.0177,-0.7876,-0.4013,0.3677,1.3275,2.4119,3.133,3.918,4.774,5.5943,6.3751,7.052,7.5507,7.9991,8.3731,8.6563,8.8696,9.0574,9.2093,9.2807,9.3591,9.3803,9.3889,9.3908,9.4458,9.4007,9.288,9.193,9.1006,8.8708,8.6696,8.4251,8.0566,7.7136,7.3014,6.9177,6.5111,6.1479,5.814,5.5224,5.2704,5.008,4.7505,4.5834,4.4944,4.4443,4.4239,4.4255,4.4648,4.5247,4.5897,4.6707,4.7684,4.8533,4.9505,5.0714,5.1868,5.2927,5.4712,5.6148,5.7775,6.0576,6.1873,6.2694,6.34,6.4349,6.5085,6.6097,6.7067,6.801,6.9014,6.9769,7.0759,7.1334,7.1906,7.2476,7.323,7.319,7.3257,7.288,7.2837,7.2629,7.2591,7.2656,7.2916,7.3951,7.4832,7.5001,7.5089,7.4763,7.4164,7.2803,7.1962,7.1717,7.1581,7.1419,7.1419,7.1581,7.1581,7.1419,7.1419,7.1419,7.1581,7.1741,7.1581,7.1741,7.1929]}]]